[[{"header":{"parameterUnit":"m.s-1","parameterCategory":1,"la1":30.6,"la2":29.2853,"lo1":-89.7004,"lo2":-87.6739,"dy":0.0162,"dx":0.0183,"nx":112,"ny":82,"refTime":"2023-03-12T06:00:00:Z","depth":0,"parameterNumber":2,"parameterNumberName":"U-component_of_WINDS"},"data":[0.0,0.0,0.0,0.0,0.0,0.0,0.0,0.0,0.0,0.0,0.0,0.0,0.0,0.0,0.0,0.0,0.0,0.0,0.0,0.0,0.0,0.0,0.0,0.0,0.0,0.0,0.0,0.0,0.0,0.0,0.0,0.0,0.0,0.0,0.0,0.0,0.0,0.0,0.0,0.0,0.0,0.0,0.0,0.0,0.0,0.0,0.0,0.0,0.0,0.0,0.0,0.0,0.0,0.0,0.0,0.0,0.0,0.0,0.0,0.0,0.0,0.0,0.0,0.0,0.0,0.0,0.0,0.0,0.0,0.0,0.0,0.0,0.0,0.0,0.0,0.0,0.0,0.0,0.0,0.0,0.0,0.0,0.0,0.0,0.0,0.0,0.0,0.0,0.0,0.0,0.0,6.3782,7.4345,8.084,8.0662,7.7347,7.1286,6.1934,0.0,0.0,0.0,0.0,0.0,0.0,0.0,0.0,0.0,0.0,0.0,0.0,0.0,0.0,0.0,0.0,0.0,0.0,0.0,0.0,0.0,0.0,0.0,0.0,0.0,0.0,0.0,0.0,0.0,0.0,0.0,0.0,0.0,0.0,0.0,0.0,0.0,0.0,0.0,0.0,0.0,0.0,0.0,0.0,0.0,0.0,0.0,0.0,0.0,0.0,0.0,0.0,0.0,0.0,0.0,0.0,0.0,0.0,0.0,0.0,0.0,0.0,0.0,0.0,0.0,0.0,0.0,0.0,0.0,0.0,0.0,0.0,0.0,0.0,0.0,0.0,0.0,0.0,0.0,0.0,0.0,0.0,0.0,0.0,0.0,0.0,0.0,0.0,0.0,0.0,0.0,0.0,0.0,0.0,0.0,0.0,0.0,0.0,0.0,0.0,0.0,0.0,0.0,0.0,6.063,7.2487,7.858,8.1465,8.0592,7.5764,6.9657,6.2425,0.0,0.0,0.0,0.0,0.0,0.0,0.0,0.0,0.0,0.0,0.0,0.0,0.0,0.0,0.0,0.0,0.0,0.0,0.0,0.0,0.0,0.0,0.0,0.0,0.0,0.0,0.0,0.0,0.0,0.0,0.0,0.0,0.0,0.0,0.0,0.0,0.0,0.0,0.0,0.0,0.0,0.0,0.0,0.0,0.0,0.0,0.0,0.0,0.0,0.0,0.0,0.0,0.0,0.0,0.0,0.0,0.0,0.0,0.0,0.0,0.0,0.0,0.0,0.0,0.0,0.0,0.0,0.0,0.0,0.0,0.0,0.0,0.0,0.0,0.0,0.0,0.0,0.0,0.0,0.0,0.0,0.0,0.0,0.0,0.0,0.0,0.0,0.0,0.0,0.0,0.0,0.0,0.0,0.0,0.0,0.0,0.0,0.0,0.0,0.0,0.0,0.0,0.0,5.917,6.605,7.7742,8.1496,8.2764,8.1867,7.6556,7.0316,6.3345,5.8588,0.0,0.0,0.0,0.0,0.0,0.0,0.0,0.0,0.0,0.0,0.0,0.0,0.0,0.0,0.0,0.0,0.0,0.0,0.0,0.0,0.0,0.0,0.0,0.0,0.0,0.0,0.0,0.0,0.0,0.0,0.0,0.0,0.0,0.0,0.0,0.0,0.0,0.0,0.0,0.0,0.0,0.0,0.0,0.0,0.0,0.0,0.0,0.0,0.0,0.0,0.0,0.0,0.0,0.0,0.0,0.0,0.0,0.0,0.0,0.0,0.0,0.0,0.0,0.0,0.0,0.0,0.0,0.0,0.0,0.0,0.0,0.0,0.0,0.0,0.0,0.0,0.0,0.0,0.0,0.0,0.0,0.0,0.0,0.0,0.0,0.0,0.0,0.0,0.0,0.0,0.0,0.0,0.0,0.0,0.0,0.0,0.0,0.0,0.0,0.0,0.0,0.0,6.5774,7.1089,8.0881,8.3213,8.365,8.259,7.6674,7.0308,6.3856,5.7281,0.0,0.0,0.0,0.0,0.0,0.0,0.0,0.0,0.0,0.0,0.0,0.0,0.0,0.0,0.0,0.0,0.0,0.0,0.0,0.0,0.0,0.0,0.0,0.0,0.0,0.0,0.0,0.0,0.0,0.0,0.0,0.0,0.0,0.0,0.0,0.0,0.0,0.0,0.0,0.0,0.0,0.0,0.0,0.0,0.0,0.0,0.0,0.0,0.0,0.0,0.0,0.0,0.0,0.0,0.0,0.0,0.0,0.0,0.0,0.0,0.0,0.0,0.0,0.0,0.0,0.0,0.0,0.0,0.0,0.0,0.0,0.0,0.0,0.0,0.0,0.0,0.0,0.0,0.0,0.0,0.0,0.0,0.0,0.0,0.0,0.0,0.0,0.0,0.0,0.0,0.0,0.0,0.0,0.0,0.0,0.0,0.0,0.0,0.0,0.0,0.0,0.0,6.8016,7.4201,8.1817,8.3405,8.3203,8.1481,7.4124,6.7773,6.3321,5.4985,0.0,0.0,0.0,0.0,0.0,0.0,0.0,0.0,0.0,0.0,0.0,0.0,0.0,0.0,0.0,0.0,0.0,0.0,0.0,0.0,0.0,0.0,0.0,0.0,0.0,0.0,0.0,0.0,0.0,0.0,0.0,0.0,0.0,0.0,0.0,0.0,0.0,0.0,0.0,0.0,0.0,0.0,0.0,0.0,0.0,0.0,0.0,0.0,0.0,0.0,0.0,0.0,0.0,0.0,0.0,0.0,0.0,0.0,0.0,0.0,0.0,0.0,0.0,0.0,0.0,0.0,0.0,0.0,0.0,0.0,0.0,0.0,0.0,0.0,0.0,0.0,0.0,0.0,0.0,0.0,0.0,0.0,0.0,0.0,0.0,0.0,0.0,0.0,0.0,0.0,0.0,0.0,0.0,0.0,0.0,0.0,0.0,0.0,0.0,0.0,0.0,0.0,6.8699,7.5238,0.0,8.4014,8.3805,8.2113,7.5853,6.9476,6.3505,0.0,0.0,0.0,0.0,0.0,0.0,0.0,0.0,0.0,0.0,0.0,0.0,0.0,0.0,0.0,0.0,0.0,0.0,0.0,0.0,0.0,0.0,0.0,0.0,0.0,0.0,0.0,0.0,0.0,0.0,0.0,0.0,0.0,0.0,0.0,0.0,0.0,0.0,0.0,0.0,0.0,0.0,0.0,0.0,0.0,0.0,0.0,0.0,0.0,0.0,0.0,0.0,0.0,0.0,0.0,0.0,0.0,0.0,0.0,0.0,0.0,0.0,0.0,0.0,0.0,0.0,0.0,0.0,0.0,0.0,0.0,0.0,0.0,0.0,0.0,0.0,0.0,0.0,0.0,0.0,0.0,0.0,0.0,0.0,0.0,0.0,0.0,0.0,0.0,0.0,0.0,0.0,0.0,0.0,0.0,0.0,0.0,0.0,0.0,0.0,0.0,0.0,6.3163,7.0525,7.7341,0.0,8.4682,8.4322,8.2135,7.5727,6.9201,6.3094,0.0,0.0,0.0,0.0,0.0,0.0,0.0,0.0,0.0,0.0,0.0,0.0,0.0,0.0,0.0,0.0,0.0,0.0,0.0,0.0,0.0,0.0,0.0,0.0,0.0,0.0,0.0,0.0,0.0,0.0,0.0,0.0,0.0,0.0,0.0,0.0,0.0,0.0,0.0,0.0,0.0,0.0,0.0,0.0,0.0,0.0,0.0,0.0,0.0,0.0,0.0,0.0,0.0,0.0,0.0,0.0,0.0,0.0,0.0,0.0,0.0,0.0,0.0,0.0,0.0,0.0,0.0,0.0,0.0,0.0,0.0,0.0,0.0,0.0,0.0,0.0,0.0,0.0,0.0,0.0,0.0,0.0,0.0,0.0,0.0,0.0,0.0,0.0,0.0,0.0,0.0,0.0,0.0,0.0,0.0,0.0,0.0,0.0,0.0,0.0,0.0,0.0,6.4763,7.3817,8.102,8.4242,8.5306,8.447,8.126,7.287,6.5975,0.0,0.0,0.0,0.0,0.0,0.0,0.0,0.0,0.0,0.0,0.0,0.0,0.0,0.0,0.0,0.0,0.0,0.0,0.0,0.0,0.0,0.0,0.0,0.0,0.0,0.0,0.0,0.0,0.0,0.0,0.0,0.0,0.0,0.0,0.0,0.0,0.0,0.0,0.0,0.0,0.0,0.0,0.0,0.0,0.0,0.0,0.0,0.0,0.0,0.0,0.0,0.0,0.0,0.0,0.0,0.0,0.0,0.0,0.0,0.0,0.0,0.0,0.0,0.0,0.0,0.0,0.0,0.0,0.0,0.0,0.0,0.0,0.0,0.0,0.0,0.0,0.0,0.0,0.0,0.0,0.0,0.0,0.0,0.0,0.0,0.0,0.0,0.0,0.0,0.0,0.0,0.0,0.0,0.0,0.0,0.0,0.0,0.0,0.0,0.0,0.0,0.0,0.0,0.0,7.3817,8.0836,8.3463,8.4454,8.3654,8.0432,7.4074,6.7754,6.1967,0.0,0.0,0.0,0.0,0.0,0.0,0.0,0.0,0.0,0.0,0.0,0.0,0.0,0.0,0.0,0.0,0.0,0.0,0.0,0.0,0.0,0.0,0.0,0.0,0.0,0.0,0.0,0.0,0.0,0.0,0.0,0.0,0.0,0.0,0.0,0.0,0.0,0.0,0.0,0.0,0.0,0.0,0.0,0.0,0.0,0.0,0.0,0.0,0.0,0.0,0.0,0.0,0.0,0.0,0.0,0.0,0.0,0.0,0.0,0.0,0.0,0.0,0.0,0.0,0.0,0.0,0.0,0.0,0.0,0.0,0.0,0.0,0.0,0.0,0.0,0.0,0.0,0.0,0.0,0.0,0.0,0.0,0.0,0.0,0.0,0.0,0.0,0.0,0.0,0.0,0.0,0.0,0.0,0.0,0.0,0.0,0.0,0.0,0.0,0.0,0.0,0.0,6.5017,7.4662,8.1782,8.3234,8.4417,8.3663,8.011,7.4581,6.8665,6.2475,0.0,0.0,0.0,0.0,0.0,0.0,0.0,0.0,0.0,0.0,0.0,0.0,0.0,0.0,0.0,0.0,0.0,0.0,0.0,0.0,0.0,0.0,0.0,0.0,0.0,0.0,0.0,0.0,0.0,0.0,0.0,0.0,0.0,0.0,0.0,0.0,0.0,0.0,0.0,0.0,0.0,0.0,0.0,0.0,0.0,0.0,0.0,0.0,0.0,0.0,0.0,0.0,0.0,0.0,0.0,0.0,0.0,0.0,0.0,0.0,0.0,0.0,0.0,0.0,0.0,0.0,0.0,0.0,0.0,0.0,0.0,0.0,0.0,0.0,0.0,0.0,0.0,0.0,0.0,0.0,0.0,0.0,0.0,0.0,0.0,0.0,0.0,0.0,0.0,0.0,0.0,0.0,0.0,0.0,0.0,0.0,0.0,0.0,0.0,0.0,0.0,0.0,6.5178,7.5821,8.3197,8.3279,8.4646,8.3993,8.0028,7.4654,6.9018,6.3103,0.0,0.0,0.0,0.0,0.0,0.0,0.0,0.0,0.0,0.0,0.0,0.0,0.0,0.0,0.0,0.0,0.0,0.0,0.0,0.0,0.0,0.0,0.0,0.0,0.0,0.0,0.0,0.0,0.0,0.0,0.0,0.0,0.0,0.0,0.0,0.0,0.0,0.0,0.0,0.0,0.0,0.0,0.0,0.0,0.0,0.0,0.0,0.0,0.0,0.0,0.0,0.0,0.0,0.0,0.0,0.0,0.0,0.0,0.0,0.0,4.5044,0.0,0.0,0.0,0.0,0.0,0.0,0.0,0.0,0.0,0.0,0.0,0.0,0.0,0.0,0.0,0.0,0.0,0.0,0.0,0.0,0.0,0.0,0.0,0.0,0.0,0.0,0.0,0.0,0.0,0.0,0.0,0.0,0.0,0.0,0.0,0.0,0.0,0.0,0.0,0.0,0.0,6.5962,7.5168,8.1738,8.237,8.3316,8.2545,7.9147,7.5366,7.0029,6.2636,0.0,0.0,0.0,0.0,0.0,0.0,0.0,0.0,0.0,0.0,0.0,0.0,0.0,0.0,0.0,0.0,0.0,0.0,0.0,0.0,0.0,0.0,0.0,0.0,0.0,0.0,0.0,0.0,0.0,0.0,0.0,0.0,0.0,0.0,0.0,0.0,0.0,0.0,0.0,0.0,0.0,0.0,0.0,0.0,0.0,0.0,0.0,0.0,0.0,0.0,0.0,0.0,0.0,0.0,0.0,0.0,0.0,0.0,0.0,0.0,0.0,4.8483,0.0,0.0,0.0,0.0,0.0,0.0,0.0,0.0,0.0,0.0,0.0,0.0,0.0,0.0,0.0,0.0,0.0,0.0,0.0,0.0,0.0,0.0,0.0,0.0,0.0,0.0,0.0,0.0,0.0,0.0,0.0,0.0,0.0,0.0,0.0,0.0,0.0,0.0,0.0,0.0,6.6182,7.4992,8.1305,8.2121,8.2904,8.2251,7.941,7.5503,7.062,6.4626,5.9858,0.0,0.0,0.0,0.0,0.0,0.0,0.0,0.0,0.0,0.0,0.0,0.0,0.0,0.0,0.0,0.0,0.0,0.0,0.0,0.0,0.0,0.0,0.0,0.0,0.0,0.0,0.0,0.0,0.0,0.0,0.0,0.0,0.0,0.0,0.0,0.0,0.0,0.0,0.0,0.0,0.0,0.0,0.0,0.0,0.0,0.0,0.0,0.0,0.0,0.0,0.0,0.0,0.0,5.9561,6.0928,6.2381,6.3562,6.4048,6.3755,5.9936,5.6005,5.2313,0.0,0.0,0.0,0.0,0.0,0.0,0.0,0.0,0.0,0.0,0.0,0.0,0.0,0.0,0.0,0.0,0.0,0.0,0.0,0.0,0.0,0.0,0.0,0.0,0.0,5.7699,5.7682,0.0,0.0,0.0,0.0,0.0,0.0,0.0,0.0,0.0,0.0,0.0,0.0,6.6366,7.4955,8.1158,8.2113,8.2796,8.2193,7.9804,7.5555,7.1221,6.7013,6.1354,5.6702,0.0,0.0,0.0,0.0,0.0,0.0,0.0,0.0,0.0,0.0,0.0,0.0,0.0,0.0,0.0,0.0,0.0,0.0,0.0,0.0,0.0,0.0,0.0,0.0,0.0,0.0,0.0,0.0,0.0,0.0,0.0,0.0,4.6443,4.5687,0.0,0.0,0.0,0.0,0.0,0.0,0.0,0.0,0.0,0.0,0.0,0.0,0.0,0.0,6.3844,6.3371,6.348,6.4305,6.6689,6.6969,6.5421,6.8146,7.0103,7.1356,7.1971,0.0,5.8315,5.4567,0.0,0.0,0.0,0.0,0.0,0.0,0.0,0.0,0.0,0.0,0.0,0.0,0.0,0.0,0.0,0.0,0.0,0.0,0.0,0.0,0.0,0.0,5.7553,5.9566,6.1107,6.1654,0.0,5.7248,5.4992,5.4106,0.0,0.0,0.0,0.0,0.0,0.0,0.0,0.0,6.7143,7.4823,8.0542,8.2048,8.2249,8.1336,7.8966,7.6239,7.2487,6.7304,6.3656,5.9968,5.6039,5.2902,0.0,0.0,0.0,0.0,0.0,0.0,0.0,0.0,0.0,0.0,0.0,0.0,0.0,0.0,0.0,0.0,0.0,0.0,0.0,0.0,0.0,0.0,0.0,0.0,0.0,0.0,0.0,0.0,0.0,4.6327,4.8169,4.5942,4.866,4.9861,0.0,0.0,0.0,0.0,0.0,0.0,0.0,0.0,0.0,6.1458,6.2881,6.5176,6.8452,6.9362,7.0783,7.2721,7.4699,7.5568,7.5499,7.7258,7.8672,7.9718,7.95,7.6632,7.1635,6.4749,5.955,5.5695,0.0,0.0,0.0,0.0,5.3567,5.4701,5.4849,5.495,0.0,0.0,0.0,0.0,0.0,0.0,0.0,0.0,0.0,0.0,0.0,0.0,0.0,6.361,6.5535,6.6682,6.5617,6.3133,6.0229,0.0,5.6357,5.5561,5.3755,0.0,0.0,0.0,0.0,0.0,6.8535,7.4597,7.9394,8.1843,8.1284,8.0136,7.8672,7.5955,7.2799,6.9124,6.5258,6.1892,5.9254,5.5264,5.2934,0.0,0.0,0.0,0.0,0.0,0.0,0.0,0.0,0.0,0.0,0.0,0.0,0.0,0.0,0.0,0.0,0.0,0.0,0.0,0.0,0.0,0.0,0.0,0.0,0.0,0.0,0.0,0.0,4.8328,5.0141,4.6672,5.0651,5.2306,0.0,0.0,0.0,0.0,0.0,0.0,5.9047,6.3264,6.6221,6.7556,6.9842,7.2119,7.444,7.6338,7.8534,8.1017,8.2316,8.3419,8.4397,8.5109,8.5673,8.6018,8.5052,8.4006,8.226,7.35,6.6475,6.1075,5.9197,5.836,5.8184,5.8388,5.9393,6.0693,6.1006,6.1063,6.0806,6.0025,0.0,5.7036,5.4716,0.0,0.0,0.0,0.0,5.6485,5.9109,6.2574,6.584,6.7711,6.9831,7.1135,7.0149,6.8662,6.6021,0.0,5.9408,5.8332,5.621,0.0,0.0,0.0,0.0,6.5252,6.9878,7.4849,7.8855,8.117,8.0559,7.9403,7.8025,7.5393,7.2835,7.0536,6.6661,6.3781,6.222,5.7794,5.5083,0.0,0.0,0.0,0.0,0.0,0.0,0.0,0.0,0.0,0.0,0.0,0.0,0.0,0.0,0.0,0.0,0.0,0.0,0.0,0.0,0.0,0.0,0.0,0.0,0.0,0.0,0.0,0.0,0.0,0.0,4.9161,5.3969,0.0,0.0,0.0,0.0,5.8306,6.1392,6.3816,6.5368,6.9025,7.2464,7.5419,7.7729,8.104,8.5466,8.6316,8.7178,8.8088,8.8881,8.8915,8.8329,8.9088,8.9053,8.8467,8.9088,8.8122,8.5363,7.6267,7.1042,6.8345,6.4265,6.2256,6.1733,6.2422,6.3224,6.3911,6.3543,6.2992,6.2621,6.395,6.3203,6.1276,5.8635,5.7842,0.0,0.0,5.8904,6.087,6.4148,6.6752,6.9149,7.178,7.3573,7.427,7.2837,7.2931,7.1419,0.0,6.2098,6.03,5.9411,0.0,6.029,6.0419,6.4468,6.8421,7.0911,7.6086,7.9575,7.9783,8.0382,7.954,7.6559,7.4761,7.284,7.0545,6.8157,6.6127,6.46,6.0798,5.7982,5.6302,5.326,0.0,0.0,0.0,0.0,0.0,0.0,0.0,0.0,0.0,0.0,0.0,0.0,0.0,0.0,0.0,0.0,0.0,0.0,0.0,0.0,0.0,0.0,0.0,0.0,0.0,0.0,0.0,0.0,5.7736,6.2944,0.0,0.0,6.1884,6.2944,6.4738,6.8162,7.1267,7.3809,7.7982,8.1612,8.4433,8.6009,8.8157,9.1092,9.1616,9.2226,9.2999,9.324,9.3227,9.2999,9.3261,9.2964,9.224,9.1985,9.0847,8.8868,8.4639,8.012,7.5579,7.2586,7.1265,7.1057,7.1324,7.1922,7.2617,7.2999,7.2291,7.0946,6.899,6.6641,6.4226,6.2533,6.2037,6.211,6.2373,6.4072,6.6195,6.7908,7.015,7.2219,7.3177,7.416,7.4757,7.4237,7.3917,7.3088,7.0812,6.7292,6.425,6.2891,6.1777,6.1895,6.4213,6.6528,6.9545,7.3825,7.6538,7.864,8.0131,7.9657,7.8403,7.6298,7.4703,7.3026,7.1232,6.8507,6.6541,6.5506,6.1314,5.8184,5.6432,5.3371,5.145,0.0,0.0,0.0,0.0,0.0,0.0,0.0,0.0,0.0,0.0,0.0,0.0,0.0,0.0,0.0,0.0,0.0,0.0,0.0,0.0,0.0,0.0,0.0,0.0,0.0,0.0,6.4092,6.4368,6.9739,7.218,6.9066,6.9253,7.0285,7.2041,7.5841,7.9233,8.1919,8.5802,8.8843,9.0892,9.2159,9.3615,9.5303,9.5803,9.628,9.6762,9.6762,9.6705,9.6558,9.6317,9.5734,9.4834,9.4042,9.2877,9.1468,9.026,8.7191,8.3006,7.9971,7.8764,7.8729,7.8488,7.8867,7.9488,7.9523,7.8522,7.6695,7.3395,7.0774,6.8685,6.7455,6.7238,6.7566,6.8066,6.9867,7.1879,7.2941,7.4642,7.6165,7.6441,7.666,7.6753,7.6511,7.5867,7.5199,7.4682,7.1478,6.841,6.7018,6.5874,6.5959,6.8369,6.9906,7.2177,7.596,7.758,7.8821,8.0097,7.935,7.804,7.6246,7.4682,7.2819,7.0508,6.8024,6.592,6.4402,6.1151,5.8369,5.6175,5.3557,5.2044,5.1699,0.0,0.0,0.0,0.0,0.0,0.0,0.0,0.0,0.0,0.0,0.0,0.0,0.0,0.0,0.0,0.0,0.0,0.0,0.0,0.0,0.0,0.0,0.0,5.7322,6.4368,6.9335,6.8714,7.3936,7.6308,7.3077,7.5479,7.8154,8.0429,8.4451,8.7522,8.9368,9.2,9.3794,9.455,9.6013,9.7301,9.8377,9.9078,9.9455,9.9455,9.9455,9.9292,9.8945,9.8228,9.7228,9.6043,9.5371,9.4337,9.3144,9.2399,9.164,9.0454,8.5937,8.4178,8.4075,8.335,8.3488,8.3868,8.2385,8.0867,7.9247,7.6971,7.5684,7.4787,7.3371,7.3416,7.4095,7.4856,7.6155,7.7649,7.9109,8.0074,8.0833,8.1557,8.1143,8.0419,7.966,7.8936,7.7971,7.6488,7.4395,7.2623,7.175,7.2267,7.2795,7.283,7.474,0.0,7.7235,7.9235,8.035,7.9626,7.9523,7.8591,7.627,7.4636,7.2129,6.829,6.6644,6.4437,6.1358,6.0496,5.8668,5.5582,5.3863,5.2886,5.2701,0.0,0.0,0.0,0.0,0.0,0.0,0.0,0.0,0.0,0.0,0.0,0.0,0.0,0.0,0.0,0.0,0.0,0.0,0.0,0.0,0.0,0.0,6.6613,6.665,7.1936,7.7005,8.012,8.3914,8.6119,8.5733,8.6276,8.7624,8.9901,9.1419,9.3159,9.5323,9.614,9.7051,9.8157,9.8825,9.9432,9.9996,10.0494,10.0702,10.0702,10.0702,10.0706,10.0615,10.041,9.9484,9.8171,9.8166,9.7042,9.5169,9.4662,9.4034,9.2999,8.9502,8.7812,8.7329,8.7122,8.6467,8.5454,8.3937,8.2764,8.1661,7.9936,7.8856,7.8281,7.8385,7.781,7.7396,7.866,7.9339,7.9649,7.9523,8.0488,8.1247,8.035,8.0385,8.0419,7.966,7.935,7.9074,7.866,7.7637,7.6223,7.4305,7.4626,7.535,7.5867,7.7005,0.0,8.0293,8.0592,8.0511,8.0304,8.0304,7.8925,7.5511,7.3843,7.1381,0.0,6.4851,6.2298,5.9814,5.8435,5.6564,5.4038,5.3355,5.2966,0.0,0.0,0.0,0.0,0.0,0.0,0.0,0.0,0.0,0.0,0.0,0.0,0.0,0.0,0.0,0.0,0.0,0.0,0.0,0.0,0.0,0.0,6.9651,7.4842,7.7285,8.0249,8.3441,8.6774,8.9844,9.1795,9.2118,9.2541,9.3537,9.5192,9.5979,9.7018,9.8462,9.8716,9.9263,10.0315,10.0502,10.1003,10.1689,10.191,10.2019,10.2019,10.2019,10.1908,10.1683,10.1393,10.0706,0.0,9.9219,9.8171,9.6694,9.5832,9.5142,0.0,0.0,0.0,0.0,0.0,8.8295,8.7087,8.5833,8.4937,8.4006,8.2178,8.1074,8.0488,8.0592,8.0247,8.0074,8.1247,8.204,8.2419,8.2005,8.2569,8.3018,8.2109,8.173,8.135,8.0626,8.0212,7.9867,7.9557,0.0,0.0,7.7477,7.7166,7.7316,7.804,7.9109,8.0293,8.1638,8.1661,8.1557,8.1557,8.073,7.9097,7.658,7.4395,0.0,0.0,0.0,6.1505,5.8262,5.6667,0.0,0.0,0.0,5.3902,5.4481,0.0,0.0,0.0,5.4451,5.4012,0.0,0.0,0.0,0.0,0.0,0.0,0.0,0.0,0.0,0.0,0.0,0.0,0.0,0.0,0.0,0.0,7.6415,8.2503,8.7759,8.8721,8.9349,9.0523,9.3193,9.4849,9.469,9.5841,9.6948,9.7847,9.8797,9.9549,9.9998,0.0,0.0,0.0,0.0,10.2189,10.3087,10.3087,10.3003,10.2901,10.2901,10.2791,10.2502,10.1792,10.1308,10.0696,9.9331,9.8459,9.7896,9.6452,9.5498,9.4774,9.2781,9.195,9.1709,9.0329,8.9295,8.8467,8.7661,0.0,0.0,8.373,8.2626,8.2052,8.135,8.1557,8.219,8.2937,8.4156,8.519,8.5087,8.5121,8.5156,8.4984,8.3914,8.2695,8.1948,8.1247,8.0557,7.9902,7.9764,8.0005,8.0718,7.9695,7.9017,7.966,8.1074,8.2052,8.2052,8.2626,8.2971,8.2902,0.0,0.0,7.835,7.5602,7.2302,6.8463,6.5324,6.1712,5.7495,5.6004,5.5486,5.5961,5.5349,5.5574,5.6775,5.6775,5.7062,5.7526,5.5881,5.5171,0.0,0.0,0.0,0.0,0.0,0.0,0.0,0.0,0.0,0.0,0.0,0.0,0.0,0.0,0.0,7.5948,8.239,8.8198,9.2697,9.5378,9.6507,9.5492,9.695,9.8247,9.8851,9.8936,9.9482,10.0792,10.1016,10.1485,10.2802,10.2906,0.0,10.4007,10.4091,10.3904,10.3495,10.3495,10.3208,10.2599,0.0,0.0,10.2486,10.2401,10.1891,10.1192,10.0578,9.9902,9.9162,9.7885,9.6633,9.521,9.292,9.1606,9.1019,9.0709,8.9743,8.8467,8.7661,8.6902,8.6018,8.4316,8.4109,8.4501,8.4363,8.3983,0.0,8.4535,8.4984,8.5052,8.4385,8.4695,8.488,8.3626,8.3121,8.2695,8.1948,8.1672,8.1535,8.1397,8.1362,8.1592,8.2316,8.1741,8.119,8.1316,8.2626,8.3557,8.3557,8.3695,8.3557,8.2971,8.2523,8.0936,7.7718,7.5753,7.3074,6.9311,6.5644,6.2643,6.053,6.0142,5.9452,5.8349,5.8202,5.827,5.8508,5.8508,5.8574,5.8689,5.8054,5.8075,0.0,0.0,0.0,0.0,0.0,0.0,0.0,0.0,0.0,0.0,0.0,6.1974,0.0,0.0,7.7037,8.2569,8.8293,9.306,9.5939,9.8612,9.9549,9.7567,9.8666,9.9856,10.0703,10.0905,10.1692,10.31,10.3107,10.3414,10.4108,10.4192,10.4311,10.47,10.4684,10.4514,10.4192,10.4192,10.4007,10.3585,10.3212,10.3093,10.2993,10.2705,10.2299,10.1909,10.129,10.0607,9.9775,9.8244,9.6505,9.4688,9.3673,9.2632,9.1715,9.1483,9.0674,8.9605,8.8812,8.8329,8.7708,8.5764,8.5419,8.5742,8.5742,8.5466,8.5316,8.6075,8.6294,8.6109,8.5351,8.5454,8.557,8.4764,8.4006,8.3454,8.35,8.2914,8.2454,8.2833,8.2902,8.3143,8.3914,8.3742,8.3362,8.2971,8.3868,8.4592,8.4592,8.4592,8.4466,8.4087,8.335,8.1971,7.9695,7.635,7.305,7.0035,6.6644,6.423,6.3048,6.2634,6.191,6.0771,6.0737,6.0737,6.0737,6.0737,6.0737,6.0755,6.0957,6.0588,0.0,0.0,0.0,0.0,0.0,0.0,0.0,0.0,5.8364,6.247,6.5433,6.8662,7.3241,7.8538,8.3791,8.8605,9.336,9.6954,9.8442,10.0522,10.1115,9.9322,10.0118,10.1216,10.1993,10.262,10.3415,10.4582,10.4684,10.4802,10.4887,10.492,10.4988,10.509,10.509,10.5106,10.492,10.492,10.4802,10.4684,10.4108,10.3787,10.3804,10.3093,10.2689,10.2705,10.1808,10.0894,9.9845,9.8042,9.6126,9.434,9.4387,9.3702,9.2701,9.2233,9.1432,9.0572,8.9952,8.9613,8.9101,8.724,8.6692,8.6742,8.6742,8.6742,8.688,8.7454,8.7627,8.7489,8.6915,8.6626,8.6523,8.6523,8.5351,8.4419,8.5052,8.4121,8.3281,8.3868,8.4144,8.4454,8.5087,8.5328,8.5156,8.435,8.4915,8.5363,8.5225,8.5328,8.5363,8.5225,8.4087,8.2811,8.1466,7.7396,7.3819,7.1232,6.9059,6.7265,6.5842,6.5359,6.4644,6.3609,6.3574,6.3574,6.3574,6.3574,6.3574,6.3609,6.4195,6.315,5.2949,5.1486,5.1941,5.4979,5.5714,5.7183,0.0,0.0,6.4907,6.8061,7.2094,7.5651,7.7618,8.3708,8.9461,9.2729,9.6342,9.927,10.0793,10.2383,10.3296,10.3009,10.3111,10.3483,10.4294,10.4413,10.4514,10.47,10.4684,10.4988,10.5598,10.5682,10.5986,10.6595,10.668,10.6291,10.5716,10.5682,10.531,10.4684,10.4582,10.4598,10.4598,10.3787,10.3499,10.3382,10.2011,10.059,9.9101,9.7575,9.6406,9.5488,9.4476,9.3553,9.2842,9.234,9.1303,9.0085,9.0017,8.9219,8.8251,8.7976,8.8089,8.8329,8.8329,8.8329,8.8364,8.8433,8.8467,8.8433,8.8364,8.7812,8.7282,8.7282,8.6144,8.5087,8.519,8.4488,8.3902,8.3971,8.4592,8.5087,8.519,8.5742,8.5902,8.519,8.5708,8.5949,8.5294,8.5777,8.5949,8.5259,8.5052,8.3535,8.004,7.9212,7.7327,7.3658,7.4395,7.3395,6.9921,7.0301,6.9646,6.7497,6.7472,6.7472,6.7472,6.7472,6.7472,6.7463,6.7576,6.6326,5.5908,5.5085,0.0,0.0,6.0913,6.3766,6.8404,7.0478,7.262,7.6829,8.0571,8.3976,8.6806,9.0861,9.4599,0.0,9.9554,10.1503,10.2502,10.3179,10.3585,10.3585,10.3585,10.4108,10.5208,10.531,10.5479,10.5885,10.6003,10.6088,10.6392,10.6376,10.6595,10.6917,10.7306,10.7204,10.6376,10.69,10.6697,10.6003,10.5513,10.5123,10.47,10.3889,10.3111,10.2281,10.1722,10.0793,9.9645,9.8612,9.7732,9.7003,9.6056,9.4982,9.3874,9.3126,9.2183,9.1226,9.081,9.0372,8.9928,8.907,8.8992,8.9226,8.9226,8.9226,8.9226,8.9226,8.9226,8.9157,8.8708,8.8674,8.873,8.873,8.795,8.7191,8.7191,8.657,8.5971,8.5971,8.6639,8.7018,8.6557,8.673,8.6695,8.5949,8.6087,8.6191,8.588,8.6122,8.6178,8.588,8.5466,8.4363,8.2281,8.0902,7.9281,7.7258,7.604,7.4891,7.3774,7.275,7.176,7.0784,7.0335,6.9887,6.9439,6.9439,6.9439,6.9439,6.9439,6.8927,5.7273,0.0,0.0,6.3249,6.7024,7.0937,7.5265,7.7978,8.0868,8.5344,8.8511,9.1353,9.4248,9.6631,0.0,10.0508,10.1911,10.3077,10.3804,10.3601,10.3095,10.2705,10.2299,10.2587,10.4109,10.5208,10.6004,10.6612,10.6815,10.69,10.69,10.69,10.69,10.69,10.7593,10.7593,10.69,10.7593,10.7593,10.69,10.6409,10.5716,10.4988,10.399,10.2908,10.1706,10.1706,10.1099,10.0102,9.939,9.8544,9.7597,9.665,9.5635,9.4597,9.3713,9.2796,9.1876,9.1345,9.1062,9.0748,8.9687,8.9545,8.9783,8.9783,8.9836,8.9901,8.9901,8.9954,8.9881,8.9364,8.9605,9.0006,9.0006,8.9433,8.8915,8.8915,8.8122,8.7454,8.7708,8.8019,8.8157,8.7799,8.7558,8.7282,8.6984,8.657,8.6294,8.6294,8.6294,8.6294,8.6294,8.5811,8.5121,8.4075,8.2488,8.0971,7.9592,7.758,7.6373,7.6097,7.4499,7.3451,7.3002,7.2233,7.1577,7.1036,7.1036,7.1036,7.1036,7.1036,7.1036,0.0,0.0,6.1806,6.9169,7.3815,7.8157,8.4058,8.7103,8.9574,9.2638,9.5075,9.6868,9.7732,9.9744,10.1503,10.2299,10.3077,10.3787,10.4598,10.3415,10.1995,10.049,9.9036,9.8731,0.0,10.372,10.5801,10.5801,10.6494,10.69,10.69,10.69,10.69,10.69,10.7593,10.7593,10.69,10.7593,10.7593,10.69,10.6917,10.6494,10.5699,10.4311,10.3179,10.2502,10.2502,10.1606,10.0102,9.939,9.8255,9.68,9.533,9.474,9.462,9.3871,9.2634,9.1333,9.1299,9.0536,8.9551,8.9517,8.9724,8.9983,8.9983,9.0173,9.0388,9.0388,9.0566,9.0765,9.073,9.073,9.0765,9.0765,9.0192,8.9674,8.9674,8.8454,8.7627,8.8398,8.7937,8.7661,8.8433,8.7915,8.7661,8.8433,8.726,8.6294,8.6294,8.6294,8.6294,8.6294,8.6294,8.5661,8.4144,8.3937,8.2626,7.9695,8.0074,7.9143,7.6212,7.604,7.5292,7.3796,7.3037,7.2657,7.2623,7.2623,7.2623,7.2623,7.2623,7.2623,0.0,0.0,7.1887,7.7908,8.2577,8.6907,9.1406,9.3383,9.4702,9.621,9.5533,9.4804,9.5026,9.6108,9.736,9.8578,10.1909,10.4413,10.47,10.4701,10.3196,9.9205,9.8747,0.0,0.0,0.0,0.0,10.5598,10.6004,10.6595,10.761,10.7593,10.7593,10.7593,10.8388,10.8202,10.69,10.7593,10.7593,10.6917,10.5902,10.5293,10.5005,10.3501,10.2502,10.1808,10.2299,10.1606,10.0204,10.0506,9.9744,9.8323,9.78,9.6717,9.5398,9.5127,9.3774,9.1967,9.1474,9.1166,9.0877,8.9843,8.973,8.9949,8.9625,8.9621,8.9693,8.9891,9.001,9.0192,9.0661,9.0799,9.0799,9.0799,9.0592,9.0295,8.9812,8.9661,8.9592,8.9364,8.9502,8.9605,8.9364,8.9122,8.8846,8.8639,8.7708,8.6833,8.6363,8.6294,8.6294,8.6294,8.6294,8.6075,8.5557,8.5087,8.4156,8.2592,8.1316,7.9936,7.8419,7.6891,7.558,7.4546,7.3819,7.3209,7.2692,7.2692,7.2692,7.2692,7.2692,7.2692,0.0,7.2902,7.987,8.5669,8.9884,9.3368,9.6311,9.7781,9.8323,9.7732,9.5229,9.2861,9.1793,9.0899,9.1068,9.3349,9.6766,9.9947,10.2399,10.2198,10.0912,9.8292,9.7495,0.0,0.0,0.0,0.0,10.4312,10.5377,10.6308,10.7492,10.7593,10.7881,10.8422,10.871,10.8287,10.7306,10.7813,10.7593,10.6917,10.5394,10.4684,10.4616,10.3179,10.2215,10.1792,10.2299,10.1792,10.0592,10.0878,10.0202,9.9051,9.8526,9.7258,9.577,9.5499,9.4315,9.2711,9.1947,9.1501,9.1096,9.0369,8.9918,8.9683,8.9622,8.9505,8.9352,8.9265,8.9307,8.955,9.0124,9.0254,9.0349,9.0717,9.0799,9.0661,9.0192,9.026,9.0329,9.0109,9.0247,9.0329,9.0123,9.0088,8.9743,8.8743,8.8398,8.795,8.7225,8.7122,8.7018,8.673,8.6695,8.6592,8.6329,8.5639,8.4984,8.4454,8.2557,8.1109,8.035,7.8385,7.6822,7.5742,7.5016,7.413,7.3106,7.3106,7.2968,7.2692,7.2692,7.2692,7.4728,8.0682,8.5757,9.23,9.5548,9.7511,9.8966,10.0285,10.0303,9.7206,9.4011,9.085,0.0,0.0,8.3511,8.7279,8.8917,9.1996,9.851,9.7022,9.5992,0.0,0.0,0.0,0.0,0.0,0.0,10.2283,0.0,10.6122,10.6984,10.7086,10.7712,10.9201,10.849,10.7999,10.7881,10.7881,10.761,10.6798,10.5394,10.47,10.4582,10.3195,10.2486,10.2486,10.2486,10.2096,10.1284,10.0592,9.9848,9.9033,9.7612,9.6597,9.5804,9.5093,9.4349,9.3586,9.2812,9.1561,9.0425,9.1034,9.0304,8.9289,8.9898,8.981,8.932,8.8647,8.8708,8.9052,8.9387,8.9453,8.9691,9.0617,9.0842,9.0863,9.0794,9.0243,8.998,9.0635,9.0247,8.9985,9.0674,9.0799,9.0329,8.8915,8.9295,8.9467,8.8708,8.8605,8.8295,8.7523,8.742,8.7109,8.6432,8.5673,8.5225,8.519,8.3845,8.2673,8.1845,8.0385,7.8867,7.7304,7.658,7.543,7.3854,7.3888,7.352,7.2761,7.2761,7.2761,8.0906,8.7955,9.4296,9.7649,9.939,10.0488,10.1419,10.0202,9.7529,9.2861,8.7313,8.19,0.0,0.0,0.0,8.5736,9.3045,0.0,10.3501,10.3399,0.0,0.0,0.0,9.8528,9.8559,9.9051,0.0,0.0,10.47,10.5986,10.8507,10.9099,10.9386,10.9183,10.9014,10.8321,10.7204,10.7204,10.6798,10.6088,10.5107,10.4413,10.3821,10.2892,10.2486,10.2486,10.2486,10.2096,10.1402,10.1792,10.1099,9.9881,9.9509,9.8562,9.736,9.6631,9.5887,9.5127,9.4368,9.3117,9.1696,9.0783,9.0222,8.9777,8.9072,8.8775,8.8817,8.9437,8.9777,9.0307,9.152,9.1843,9.1753,9.1395,9.1576,9.1549,9.0446,9.0481,9.072,9.0523,9.0516,9.0558,9.0765,9.0799,9.0661,9.0295,9.0398,9.0054,8.8777,8.8605,8.8501,8.8329,8.7764,8.7316,8.7144,8.642,8.5777,8.5225,8.4846,8.3776,8.1879,8.1431,8.0224,7.8143,7.7902,7.6764,7.4615,7.5212,7.4843,7.352,7.352,7.352,8.797,9.4054,9.9405,10.1589,10.2315,10.1706,9.9153,9.7022,9.3218,8.5033,7.9329,0.0,0.0,0.0,0.0,0.0,0.0,0.0,10.2621,10.3281,10.3212,0.0,10.208,0.0,10.1605,10.1893,10.3009,0.0,10.5191,10.6409,10.9099,10.9589,10.9793,10.9691,10.8997,10.8084,10.69,10.69,10.6697,10.6291,10.5513,10.4819,10.4108,10.3314,10.2806,10.2486,0.0,10.2299,10.1909,10.2011,10.1318,10.0186,9.9848,9.8815,9.7461,9.7037,9.6428,9.5702,9.4958,9.4131,9.3218,9.2083,9.1237,9.0623,9.0256,8.994,8.9744,9.0027,9.0193,9.055,9.1555,9.1836,9.1829,9.1789,9.1986,9.1964,9.1124,9.1309,9.1426,9.0972,9.0855,9.076,9.0641,9.0614,9.0574,9.0489,9.0428,9.0153,8.9329,8.9414,8.9433,8.9122,8.8398,8.7764,8.742,8.673,8.6122,8.5708,8.5397,8.4639,8.3362,8.2638,8.1535,7.9902,7.9557,7.8419,7.6442,7.6902,7.6326,7.4809,7.5154,7.5119,9.4684,9.8943,10.2315,10.4295,10.3889,10.1284,9.4905,9.2049,8.7468,7.5833,0.0,6.733,6.2289,6.5368,7.0331,7.5473,0.0,9.2232,9.9881,10.0982,10.2301,10.5716,10.5005,10.4498,10.5411,10.5411,10.558,10.6494,10.6494,10.7204,10.9082,10.9285,10.9505,11.0012,10.8608,10.7492,10.69,10.69,10.6883,10.6697,10.6122,10.5411,10.47,10.3889,10.3296,10.2587,0.0,0.0,10.2502,10.1792,10.1097,10.0287,9.966,9.8559,9.7341,9.724,9.68,9.6108,9.5296,9.4924,9.4687,9.3654,9.2469,9.1541,9.1967,9.173,9.1169,9.0648,9.0521,9.064,9.1045,9.1217,9.1492,9.2262,9.2494,9.2466,9.2262,9.2187,9.2026,9.1618,9.125,9.0889,9.0532,9.0492,9.0377,9.0051,8.999,8.999,8.999,9.0422,9.0452,8.9798,8.901,8.8243,8.7528,8.6752,8.6294,8.6294,8.5708,8.5294,8.519,8.3914,8.2811,8.1948,8.1247,8.0143,7.8557,7.8626,7.7902,7.6419,7.6959,7.6891,9.7839,10.1203,10.4379,10.5394,10.2705,9.8612,9.3726,8.7265,0.0,0.0,0.0,6.0622,5.6673,6.1612,6.9157,7.7976,0.0,0.0,0.0,0.0,10.6189,0.0,0.0,0.0,0.0,0.0,0.0,0.0,0.0,10.9403,10.9217,10.9793,10.9606,10.8388,10.7492,10.7001,10.69,10.69,10.6595,10.5986,10.5885,10.5411,10.47,10.3889,10.3517,10.3382,10.2806,0.0,10.2502,10.2401,10.1909,10.1199,10.1113,10.0405,9.9543,9.895,9.8661,9.8341,9.7003,9.6123,9.5195,9.2556,9.1947,9.2,9.0918,9.0932,9.1406,9.1865,9.2237,9.2602,9.3243,9.3869,9.4224,9.3791,9.3976,9.3921,9.2619,9.2089,9.186,9.1746,9.1868,9.174,9.1097,9.0981,9.0762,9.0092,8.999,8.999,8.999,9.0071,9.0105,8.9955,8.8901,8.814,8.8002,8.6948,8.6294,8.6294,8.6191,8.5846,8.5225,8.4949,8.4156,8.273,8.2557,8.1454,7.9316,7.9936,7.9454,7.7971,7.7453,7.7488,10.0599,10.2994,10.5411,10.6189,10.2705,9.7022,8.9024,0.0,0.0,0.0,0.0,5.5378,5.3247,5.9573,0.0,7.3409,0.0,0.0,0.0,0.0,0.0,0.0,0.0,0.0,0.0,0.0,0.0,0.0,0.0,11.0689,11.0402,10.9996,10.942,10.8608,10.7509,10.7103,10.7509,10.7103,10.6697,10.6409,10.6409,10.58,10.47,10.4295,10.3804,10.3009,10.2705,0.0,10.2486,10.2486,10.2112,10.1418,10.0912,10.0303,9.9559,9.8815,9.8544,9.8375,9.7274,9.6191,9.4924,9.3098,9.2725,9.2895,9.2184,9.2232,9.2571,9.2928,9.3147,9.3346,9.3704,9.4043,9.4247,9.3874,9.396,9.3909,9.3165,9.2701,9.2373,9.2373,9.2294,9.2025,9.1558,9.1476,9.1147,9.0231,9.0101,8.9965,8.9571,8.9537,8.9648,8.9983,8.8744,8.7952,8.8083,8.7208,8.6729,8.6855,8.6868,8.6695,8.6363,8.5604,8.4846,8.4121,8.3695,8.2937,8.1833,8.2212,8.1799,8.073,8.035,8.0178,10.2379,10.4216,10.6105,10.6612,10.2281,9.5093,8.4356,7.6115,0.0,0.0,0.0,5.1446,5.104,0.0,6.3666,0.0,7.642,8.5554,0.0,0.0,0.0,0.0,0.0,0.0,0.0,0.0,0.0,0.0,0.0,0.0,11.0892,10.9793,10.9183,10.9183,10.7695,10.7323,10.7999,10.7323,10.6798,10.6714,10.6714,10.6003,10.4684,10.4514,10.3787,10.2689,10.2603,0.0,0.0,10.2486,10.2112,10.1418,10.0912,10.0118,9.9254,9.8698,9.8375,9.8138,9.7409,9.6277,9.5093,9.4499,9.3857,9.3349,9.3349,9.3451,9.3586,9.3586,9.3586,9.362,9.3789,9.3958,9.406,9.406,9.3958,9.3789,9.362,9.3321,9.304,9.304,9.275,9.2359,9.1976,9.1948,9.1591,9.0589,9.0459,9.0222,8.9661,8.9424,8.9525,8.9983,8.8728,8.7953,8.8218,8.7637,8.7345,8.7648,8.7489,8.7385,8.7385,8.6156,8.5363,8.519,8.4592,8.4178,8.4006,8.4006,8.3695,8.3143,8.2971,8.2661,10.2379,10.4585,10.6714,10.6088,9.9965,9.1691,8.2509,0.0,0.0,0.0,0.0,0.0,5.0075,0.0,0.0,0.0,0.0,7.9071,9.2063,9.8221,0.0,0.0,0.0,0.0,0.0,0.0,0.0,0.0,0.0,0.0,10.9505,10.9302,10.9183,10.9183,10.7695,10.7323,10.7999,10.7323,10.6612,10.5919,10.5919,10.5496,10.47,10.4007,10.3585,10.3499,10.2806,0.0,0.0,10.2486,10.2112,10.1519,10.2096,10.1403,10.0084,10.0001,9.9577,9.8882,9.8172,9.736,9.6699,9.6631,9.4755,9.2508,9.2508,9.303,9.3586,9.3586,9.3586,9.3755,9.4451,9.5093,9.5601,9.5601,9.5093,9.4417,9.3755,9.3581,9.3528,9.3528,9.3509,9.3253,9.2484,9.2349,9.2063,9.1305,9.1203,9.1169,9.1102,9.0527,9.0135,9.0191,8.9059,8.845,8.8712,8.8294,8.8157,8.8489,8.7799,8.7385,8.7385,8.6626,8.588,8.5225,8.5121,8.473,8.4006,8.4006,8.3971,8.3868,8.3212,8.3212,10.3195,10.6005,10.7407,10.6579,9.895,8.9342,8.083,0.0,0.0,0.0,4.9349,4.8706,4.9872,5.1555,5.4634,6.0317,6.4005,6.9766,8.0052,8.5635,9.2421,0.0,0.0,0.0,0.0,0.0,0.0,0.0,0.0,0.0,10.9911,10.9894,10.9894,10.9894,10.8388,10.7898,10.8693,10.7509,10.6815,10.6511,10.6511,10.5817,10.47,10.4413,10.3804,10.2892,10.2587,0.0,0.0,10.2486,10.2283,10.1978,10.1893,10.1503,10.0811,9.9897,9.9356,9.8984,9.8273,9.7225,9.6326,9.6766,9.5499,9.3861,9.4301,9.4687,9.4939,9.4939,9.4586,9.4315,9.4605,9.4586,9.4499,9.4499,9.4248,9.3958,9.3654,9.3586,9.3586,9.3586,9.3586,9.3484,9.3165,9.3131,9.2861,9.2068,9.1967,9.1798,9.1372,9.1034,9.0865,9.0865,8.9238,8.8265,8.8552,8.8589,8.8711,8.8987,8.8881,8.8605,8.8157,8.7398,8.6639,8.588,8.5846,8.5708,8.5385,8.5385,8.5385,8.5351,8.4639,8.4432,10.1403,10.5411,10.739,10.6511,9.7834,8.7516,0.0,0.0,0.0,5.1623,4.9247,4.8537,4.9593,5.098,5.29,5.5683,5.8863,6.3869,7.2304,7.7379,8.4437,0.0,0.0,0.0,0.0,0.0,0.0,0.0,0.0,0.0,0.0,11.0519,11.0502,11.0316,10.8811,10.8321,10.8794,10.7593,10.6815,10.6612,10.6409,10.5597,10.4379,10.4092,10.3483,10.2486,0.0,0.0,0.0,10.2486,10.2486,10.2418,10.1893,10.1419,10.0912,10.0116,9.9356,9.8713,9.8442,9.7495,9.6548,9.7071,9.6514,9.5721,9.6041,9.5804,9.5466,9.5466,9.5263,9.5026,9.5026,9.462,9.4263,9.4263,9.3924,9.3654,9.389,9.3755,9.3586,9.3586,9.3586,9.3586,9.3586,9.3586,9.3417,9.2846,9.2745,9.259,9.2049,9.1778,9.1643,9.1643,8.985,8.8777,8.9054,8.9097,8.9245,8.9606,8.9611,8.9376,8.895,8.7937,8.7144,8.6639,8.6432,8.6294,8.6294,8.6294,8.6294,8.6294,8.5777,8.5397,9.5954,10.1792,10.6612,10.509,9.6326,8.6264,0.0,0.0,5.7491,5.2283,5.0025,4.8977,4.9018,5.0228,5.1953,5.427,5.7712,6.326,7.2236,7.7379,8.2712,0.0,0.0,0.0,0.0,0.0,0.0,0.0,0.0,0.0,0.0,11.0993,11.1112,11.0299,10.8811,10.7999,10.7999,10.7306,10.6494,10.5817,10.509,10.4295,10.3601,10.2924,10.2486,0.0,0.0,0.0,0.0,10.2486,10.2486,10.2486,10.2502,10.1589,10.0287,10.1097,9.9931,9.8104,9.8848,9.8612,9.7987,9.8003,9.7987,9.7834,9.7105,9.5872,9.4706,9.4706,9.5229,9.577,9.577,9.577,9.577,9.577,9.4669,9.3789,9.4552,9.4112,9.3586,9.3586,9.3586,9.3586,9.3586,9.3586,9.3586,9.3586,9.3586,9.3586,9.3586,9.2895,9.2406,9.2406,9.1053,9.0302,9.0659,8.9945,8.9751,9.0347,8.9701,8.9421,8.9696,8.8213,8.7385,8.7385,8.6661,8.6294,8.6294,8.6294,8.6294,8.6294,8.6282,8.5915,8.6027,9.0797,9.3368,9.0831,8.4112,7.6736,7.1515,0.0,5.4938,5.1217,4.9695,4.9011,4.9011,5.0194,5.2427,5.6233,5.866,6.2178,0.0,0.0,0.0,9.0019,0.0,0.0,0.0,0.0,0.0,0.0,0.0,0.0,0.0,11.0502,11.0502,11.0316,10.8811,10.7999,10.7999,10.6798,10.6291,10.6494,10.5783,10.509,10.4295,10.3601,0.0,0.0,0.0,0.0,0.0,10.2486,10.2486,10.2486,10.2486,10.2181,10.1708,10.1503,10.0878,10.0217,9.9356,9.895,9.8679,9.8172,9.7987,9.7867,9.7105,9.6563,9.5973,9.4992,9.5229,9.5669,9.5195,9.506,9.5195,9.5669,9.506,9.4417,9.4639,9.4112,9.3586,9.3586,9.3586,9.3586,9.3586,9.3586,9.3789,9.4282,9.3909,9.3958,9.4973,9.4011,9.3402,9.3928,9.2609,9.1333,9.0417,8.982,8.9703,9.0099,9.0074,8.9958,8.9696,8.8743,8.8226,8.8226,8.6949,8.6557,8.704,8.657,8.6294,8.6294,8.6294,8.6191,0.0,8.2712,8.5858,8.3964,7.8044,0.0,0.0,0.0,5.3424,5.065,4.9492,4.9011,4.9011,5.0194,5.2224,5.5285,5.7755,0.0,0.0,0.0,0.0,0.0,0.0,0.0,0.0,0.0,0.0,0.0,0.0,0.0,0.0,11.0486,11.0181,10.9911,10.8693,10.7593,10.6798,10.6105,10.5885,10.6105,10.531,10.4701,10.4294,10.3517,0.0,0.0,0.0,0.0,0.0,10.2486,10.2486,10.2486,10.2486,10.2283,10.2112,10.1909,10.13,10.0405,9.9762,9.9153,9.8612,9.8172,9.78,9.7495,9.7037,9.6496,9.5954,9.5296,9.5466,9.577,9.5567,9.5533,9.5567,9.577,9.5229,9.4774,9.506,9.4552,9.4093,9.4398,9.4432,9.4432,9.4432,9.4432,9.4601,9.506,9.4485,9.4466,9.5635,9.477,9.4282,9.506,9.3759,9.2489,9.1575,9.0412,8.9843,8.9997,9.0153,9.0229,9.0131,8.9398,8.9019,8.9019,8.7812,8.7398,8.7833,8.7087,8.6557,8.6294,8.6294,8.6294,0.0,0.0,0.0,0.0,0.0,0.0,0.0,0.0,0.0,5.0549,4.9492,4.9044,4.9221,5.0296,5.1547,0.0,0.0,0.0,0.0,7.3477,0.0,0.0,0.0,0.0,0.0,0.0,0.0,0.0,0.0,0.0,0.0,11.0587,10.9894,10.9099,10.8287,10.69,10.4903,10.5411,10.5411,10.4802,10.4007,10.3585,10.3601,10.279,0.0,0.0,0.0,0.0,0.0,10.2486,10.2486,10.2486,10.2486,10.2096,10.1621,10.2198,10.1081,9.9356,9.9915,9.9205,9.8055,9.8021,9.7495,9.6868,9.6834,9.5905,9.4977,9.5601,9.5838,9.6056,9.6732,9.6902,9.6732,9.6056,9.5364,9.5026,9.5669,9.5229,9.4909,9.5669,9.5702,9.5669,9.5702,9.5702,9.5736,9.5804,9.5229,9.506,9.5838,9.533,9.5127,9.5804,9.4669,9.3755,9.362,9.1575,9.0225,9.0058,9.0079,9.0302,9.0746,9.0075,8.9709,8.9778,8.9053,8.8605,8.8501,8.7764,8.7006,8.6294,8.6294,8.6294,0.0,0.0,0.0,0.0,0.0,0.0,0.0,0.0,0.0,0.0,0.0,4.9518,5.1217,5.1344,5.2554,0.0,0.0,0.0,0.0,0.0,0.0,0.0,0.0,0.0,0.0,0.0,0.0,0.0,0.0,0.0,0.0,10.9589,10.8794,10.7492,10.6697,10.6308,10.6409,10.5377,10.5191,10.5496,10.4193,10.3585,10.3601,10.279,0.0,0.0,0.0,0.0,10.2486,10.2486,10.2486,10.2486,10.2486,10.2401,10.2198,10.1792,10.1284,10.0691,9.9694,9.9119,9.8747,9.8172,9.7495,9.68,9.6225,9.6225,9.6293,9.5905,9.6225,9.6665,9.6868,9.6902,9.6868,9.6665,9.6496,9.6293,9.5872,9.5229,9.4909,9.5669,9.4905,9.4296,9.4857,9.4958,9.5161,9.5702,9.5635,9.6007,9.7326,9.6819,9.6462,9.6631,9.6326,9.5447,9.3721,9.2029,9.09,9.0553,9.072,9.0735,9.0502,8.997,8.9985,9.0536,8.9812,8.8881,8.7661,8.7489,8.7006,8.6294,8.6294,8.6294,5.0668,5.4025,5.7273,0.0,0.0,0.0,0.0,0.0,0.0,0.0,0.0,4.9552,5.1446,0.0,0.0,0.0,0.0,0.0,0.0,0.0,0.0,0.0,0.0,0.0,0.0,0.0,0.0,0.0,0.0,0.0,0.0,10.8997,10.8287,10.739,10.6392,10.5682,10.5394,10.4616,10.4193,10.4295,10.3483,10.3111,10.3111,10.2705,10.2486,0.0,0.0,0.0,10.2486,10.2486,10.2486,10.2486,10.2486,10.2486,10.2384,10.1706,10.1199,10.0709,9.9491,9.8882,9.8544,9.8138,9.7732,9.7274,9.6529,9.6834,9.7157,9.6108,9.609,9.6563,9.7225,9.7394,9.7341,9.6969,9.6902,9.68,9.6394,9.5988,9.5939,9.6683,9.6176,9.5736,9.6127,9.6195,9.633,9.6751,9.6514,9.6732,9.7867,9.7375,9.7037,9.736,9.7105,9.6428,9.521,9.3706,9.2247,9.0795,9.1259,9.1241,9.0429,9.0633,9.0778,9.0799,9.042,8.964,8.8454,8.8109,8.757,8.6799,8.6454,8.6294,4.956,5.3247,5.7036,5.7399,0.0,0.0,0.0,0.0,0.0,0.0,0.0,0.0,0.0,0.0,0.0,0.0,0.0,0.0,0.0,0.0,0.0,0.0,0.0,0.0,0.0,0.0,0.0,0.0,0.0,11.0384,0.0,10.8794,10.7898,10.7695,10.6308,10.5005,10.3585,10.3585,10.328,10.2705,10.2603,10.2486,10.2486,10.2486,10.2486,0.0,0.0,0.0,10.2486,10.2486,10.2486,10.2486,10.2486,10.2384,10.2215,10.1503,10.0709,9.9915,9.9187,9.851,9.7987,9.7987,9.7987,9.7867,9.7105,9.7341,9.7563,9.6311,9.6041,9.6413,9.7698,9.7935,9.7664,9.7037,9.6902,9.6902,9.6902,9.6902,9.7105,9.7867,9.7834,9.7698,9.78,9.7834,9.7867,9.7987,9.7563,9.7511,9.8224,9.7917,9.7747,9.8138,9.7698,9.7206,9.6766,9.5601,9.3757,9.1203,9.177,9.1679,9.0496,9.1438,9.1606,9.0799,9.0799,9.0433,8.9709,8.9053,8.8364,8.7558,8.6799,8.6536,5.2131,5.5218,5.6571,5.1758,0.0,0.0,0.0,0.0,0.0,0.0,0.0,0.0,0.0,0.0,0.0,0.0,0.0,0.0,0.0,0.0,0.0,0.0,0.0,0.0,0.0,0.0,0.0,0.0,0.0,0.0,10.9403,10.8524,10.739,10.6189,10.531,10.4481,10.3585,10.3585,10.3517,10.3415,10.2806,10.2486,10.2486,10.2486,10.2486,0.0,0.0,10.2486,10.2486,10.2486,10.2486,10.2486,10.2486,10.2096,10.1503,10.0709,9.9931,9.9153,9.8442,9.8104,9.7987,9.7987,9.7987,9.7867,9.7105,9.6969,9.7037,9.68,9.7157,9.7732,9.792,9.7529,9.7037,9.6935,9.6902,9.6902,9.6902,9.6902,9.7105,9.7867,9.6988,9.6345,9.6969,9.7071,9.7274,9.7901,9.8442,9.9018,9.978,10.0387,10.0301,9.9051,9.939,9.8664,9.6176,9.577,9.4754,9.2679,9.2336,9.1748,9.0789,9.1545,9.1606,9.0799,9.0799,9.0433,8.9709,8.9605,8.9157,8.8398,8.7592,8.7605,5.0093,5.2325,5.4126,5.3382,0.0,0.0,0.0,0.0,0.0,0.0,0.0,0.0,0.0,0.0,0.0,0.0,0.0,0.0,0.0,0.0,0.0,0.0,0.0,0.0,0.0,0.0,0.0,0.0,0.0,0.0,10.8591,10.7796,10.7103,10.6392,10.5293,10.4514,10.421,10.3382,10.3009,10.3009,10.2705,10.2486,10.2486,10.2486,10.2486,10.2486,0.0,10.2486,10.2486,10.2486,10.2486,10.2486,10.2486,10.1978,10.1316,9.9983,9.9153,9.8476,9.8138,9.7987,9.7987,9.7987,9.7987,9.7867,9.7105,9.7172,9.7394,9.7003,9.7138,9.7495,9.7901,9.7766,9.7495,9.7495,9.7495,9.7495,9.7495,9.7495,9.7597,9.792,9.7766,9.7563,9.7495,9.8172,9.8679,9.8612,9.9221,9.9814,10.0186,10.049,10.0287,9.9221,9.939,9.8747,9.6597,9.6022,9.5201,9.3861,9.2964,9.2537,9.2696,9.224,9.1826,9.1468,9.1019,9.0627,9.0295,8.9881,8.9536,8.9191,8.8398,8.826,4.88,5.0423,5.2799,0.0,0.0,0.0,0.0,0.0,0.0,0.0,0.0,0.0,0.0,0.0,0.0,0.0,0.0,0.0,0.0,0.0,0.0,0.0,0.0,0.0,0.0,0.0,0.0,0.0,0.0,0.0,10.7982,10.7306,10.6697,10.6409,10.5293,10.4514,10.421,10.3077,10.2486,10.2486,10.2486,10.2486,10.2486,10.2486,10.2486,10.2486,10.2486,10.2384,10.2315,10.2384,10.2299,10.1995,10.2198,10.1706,10.0691,9.9322,9.8476,9.7987,9.7987,9.7987,9.7987,9.7987,9.7987,9.7901,9.7341,9.7529,9.7886,9.7341,9.7172,9.7308,9.7867,9.7867,9.78,9.7969,9.7867,9.7834,9.8172,9.8273,9.8307,9.8461,9.8984,9.9187,9.8596,9.9442,10.01,9.971,10.01,10.0508,10.0693,10.0711,10.0389,9.9457,9.9356,9.8612,9.68,9.609,9.5374,9.4559,9.3757,9.3526,9.3985,9.3068,9.2447,9.2261,9.1468,9.1088,9.1088,9.0316,8.995,8.995,8.9191,8.895,5.142,5.3145,5.4913,5.7248,0.0,0.0,6.3676,0.0,0.0,0.0,0.0,0.0,0.0,0.0,0.0,0.0,0.0,0.0,0.0,0.0,0.0,0.0,0.0,0.0,0.0,0.0,0.0,0.0,0.0,0.0,10.7999,10.7306,10.6308,10.4887,10.4802,10.399,10.2705,10.2603,10.2486,10.2486,10.2486,10.2486,10.2486,10.2486,10.2486,10.2486,10.2486,10.2096,10.1503,10.2198,10.169,10.0407,10.1199,10.059,9.9153,9.8375,9.807,9.7987,9.7987,9.7987,9.7987,9.7987,9.7987,9.8003,9.7935,9.7969,9.8003,9.7935,9.7935,9.792,9.8003,9.7495,9.7138,9.7834,9.7461,9.7341,9.8729,9.9018,9.9221,9.9915,10.0084,10.0118,10.01,10.0102,10.0423,10.1081,10.13,10.1605,10.2215,10.2317,10.1792,10.0287,10.0102,9.8968,9.6108,9.5711,9.5296,9.4554,9.4948,9.4593,9.3227,9.3792,9.3792,9.302,9.2295,9.1916,9.1916,9.1123,9.073,9.0696,8.995,8.9985,5.0025,5.2697,5.5919,5.8592,0.0,0.0,0.0,0.0,0.0,0.0,0.0,0.0,0.0,0.0,0.0,0.0,0.0,0.0,0.0,0.0,0.0,0.0,0.0,0.0,0.0,0.0,0.0,0.0,0.0,0.0,0.0,10.6595,10.5986,10.5411,10.4514,10.372,10.3212,10.2689,10.2486,10.2486,10.2486,10.2486,10.2486,10.2486,10.2486,10.2486,10.2486,10.2096,10.1402,10.1706,10.1183,10.0186,9.9999,9.9608,9.9018,9.8273,9.7987,9.7987,9.7987,9.7987,9.7987,9.7987,9.7987,9.7987,9.7987,9.7987,9.7987,9.7987,9.7987,9.7987,9.7987,9.78,9.7664,9.792,9.8138,9.8424,9.8984,9.9457,9.9881,10.0102,10.0592,10.0811,10.0287,10.0998,10.1589,10.1402,10.1808,10.1995,10.1792,10.1792,10.1216,9.9694,9.8258,9.7191,9.6529,9.5325,9.4776,9.5169,9.5306,9.5137,9.4537,9.4378,9.4172,9.3861,9.2619,9.1998,9.1998,9.1192,9.0799,9.0799,9.0502,9.0536,4.8443,5.0905,5.4346,0.0,0.0,0.0,0.0,0.0,0.0,0.0,0.0,0.0,0.0,0.0,0.0,0.0,0.0,0.0,0.0,0.0,0.0,0.0,0.0,0.0,0.0,0.0,0.0,0.0,0.0,0.0,0.0,10.5716,10.5293,10.5107,10.4092,10.3483,10.3296,10.2806,10.2486,10.2486,10.2486,10.2486,10.2486,10.2486,10.2486,10.2486,10.2486,10.1911,10.1014,10.13,10.0777,9.978,9.9051,9.8747,9.8679,9.8206,9.7987,9.7987,9.7987,9.7987,9.7987,9.7987,9.7987,9.7987,9.7987,9.7987,9.7987,9.7987,9.7987,9.7987,9.7987,9.7987,9.7987,9.7987,9.8578,9.9153,9.939,9.9983,10.0592,10.0896,10.1386,10.1605,10.0998,10.1809,10.2283,10.1792,10.2198,10.2299,10.1792,10.169,10.1199,9.9627,9.7664,9.6582,9.6868,9.5799,9.5225,9.5579,9.5599,9.5544,9.5413,9.493,9.4654,9.4654,9.3137,9.233,9.233,9.133,9.0799,9.0799,9.0799,9.0799,4.7233,4.7936,0.0,0.0,0.0,0.0,0.0,0.0,0.0,0.0,0.0,0.0,0.0,0.0,0.0,0.0,0.0,0.0,0.0,0.0,0.0,0.0,0.0,0.0,0.0,0.0,0.0,0.0,0.0,0.0,0.0,10.4684,10.4395,10.3585,10.3585,10.3212,10.2486,10.2486,10.2502,10.2502,10.2502,10.2502,10.2486,10.2486,10.2486,10.2486,10.2486,10.1606,10.0287,10.1014,10.0488,9.9033,9.8307,9.7987,9.7987,9.7987,9.7987,9.7987,9.7987,9.7987,9.7987,9.7987,9.7987,9.7987,9.7987,9.7987,9.7987,9.7987,9.7987,9.7987,9.7987,9.7987,9.7987,9.7987,9.8578,9.9288,10.0001,10.0811,10.1605,10.2283,10.2502,10.2502,10.2502,10.2502,10.2502,10.2502,10.2486,10.2486,10.2502,10.2502,10.1893,10.0305,9.8867,9.7698,9.6969,9.719,9.6893,9.5667,9.5852,9.5822,9.5434,9.5413,9.5413,9.5413,9.3882,9.3123,9.3123,9.1558,9.0799,9.0799,9.0799,9.0799,4.8883,0.0,0.0,0.0,0.0,0.0,0.0,0.0,0.0,0.0,0.0,0.0,0.0,0.0,0.0,0.0,0.0,0.0,0.0,0.0,0.0,0.0,0.0,0.0,0.0,0.0,0.0,0.0,0.0,0.0,0.0,10.421,10.3787,10.3585,10.3111,10.2689,10.2486,10.2011,10.169,10.169,10.1183,10.1487,10.2486,10.2486,10.2486,10.2502,10.2011,10.1099,10.0102,9.9356,9.8747,9.8307,9.8104,9.7987,9.7987,9.7987,9.7987,9.7987,9.7987,9.7987,9.7987,9.7987,9.7987,9.7987,9.7987,9.7987,9.7987,9.7987,9.7987,9.7987,9.7987,9.7987,9.7987,9.7987,9.8578,9.9288,10.0001,10.0389,10.0811,10.1605,10.1284,10.0896,10.0896,10.1402,10.169,10.169,10.2198,10.2114,10.0998,9.9983,9.9137,9.8698,9.78,9.7341,9.7664,9.6808,9.621,9.6032,9.5808,9.5609,9.542,9.5413,9.5413,9.5413,9.4447,9.393,9.393,9.2412,9.164,9.164,9.1054,9.0799,5.0777,0.0,0.0,6.3002,0.0,0.0,0.0,0.0,0.0,0.0,0.0,0.0,0.0,0.0,0.0,0.0,0.0,0.0,0.0,0.0,0.0,0.0,0.0,0.0,0.0,0.0,0.0,0.0,0.0,0.0,0.0,10.3382,10.3195,10.3195,10.2384,10.2112,10.2112,10.1284,10.0912,10.0912,10.0423,10.0693,10.1606,10.1606,10.1792,10.1995,10.0912,10.0202,9.9678,9.851,9.7987,9.7987,9.7987,9.7834,9.7563,9.7563,9.7563,9.7563,9.7563,9.7766,9.7987,9.7987,9.7987,9.7987,9.7987,9.7987,9.7987,9.7987,9.7987,9.7987,9.7987,9.7987,9.7987,9.7987,9.8578,9.9221,9.966,9.9983,10.0305,10.0811,10.049,10.022,10.022,10.0592,10.1014,10.1418,10.1995,10.1895,10.0389,9.9408,9.8765,9.8476,9.7766,9.7529,9.7953,9.7191,9.6685,9.6695,9.6257,9.5932,9.5639,9.5482,9.5413,9.5413,9.4689,9.4309,9.4309,9.3068,9.2295,9.1998,9.1502,9.1123,5.2664,0.0,0.0,6.7191,7.331,0.0,0.0,0.0,0.0,0.0,0.0,0.0,0.0,0.0,0.0,0.0,0.0,0.0,0.0,0.0,0.0,0.0,0.0,0.0,0.0,0.0,0.0,0.0,0.0,0.0,0.0,10.2092,10.2206,10.2206,10.1592,10.13,10.13,10.0506,10.0118,10.0118,9.9949,9.9949,10.0017,10.0102,10.049,10.0996,9.9608,9.8916,9.8747,9.8138,9.7867,9.78,9.78,9.7428,9.6902,9.6834,9.68,9.68,9.68,9.724,9.7818,9.7867,9.7953,9.8003,9.7935,9.7953,9.8003,9.7935,9.7953,9.7987,9.7987,9.7987,9.7987,9.7987,9.851,9.9018,9.9101,9.9577,10.0001,10.0186,10.0118,10.0001,10.0084,10.0118,10.0389,10.1316,10.1893,10.1809,10.049,10.0186,9.9848,9.9153,9.8442,9.7987,9.7987,9.7987,9.7821,9.7379,9.7012,9.6534,9.6001,9.5598,9.5413,9.5413,9.4723,9.4378,9.4378,9.362,9.2847,9.2205,9.2067,9.1606,0.0,5.8973,0.0,0.0,8.3235,9.0248,0.0,0.0,0.0,0.0,0.0,0.0,0.0,0.0,0.0,0.0,0.0,0.0,0.0,0.0,0.0,0.0,0.0,0.0,0.0,0.0,0.0,0.0,0.0,0.0,9.8927,9.9459,9.9768,9.9768,10.0201,10.0506,10.0506,9.9728,9.9322,0.0,9.8138,9.7901,9.8495,9.9678,9.9645,9.8713,9.8375,9.7597,9.6548,9.6969,9.68,9.6277,9.6277,9.6529,9.6834,9.6259,9.6056,9.6056,9.6056,9.6142,9.6379,9.6969,9.7529,9.7901,9.7308,9.7529,9.7867,9.7308,9.7563,9.7987,9.7987,9.7987,9.7987,9.7987,9.8123,9.8409,9.895,9.8781,9.8799,9.9983,9.9273,9.8664,9.9254,9.9322,9.9796,10.1199,10.1014,10.0795,10.1097,10.0116,9.9288,9.9119,9.8442,9.7987,9.7987,9.7987,9.7729,9.7042,9.735,9.6994,9.5748,9.55,9.5413,9.5413,9.5241,9.5172,9.5172,9.4413,9.3965,9.3792,9.255,9.1929,0.0,0.0,0.0,7.9613,0.0,9.2135,9.3138,0.0,0.0,0.0,0.0,0.0,0.0,0.0,0.0,0.0,0.0,0.0,0.0,0.0,0.0,0.0,0.0,0.0,0.0,0.0,0.0,0.0,0.0,9.8128,9.7415,9.8412,9.8668,9.8022,9.8729,9.8968,9.8612,9.7901,9.7326,9.6988,9.621,9.5872,9.5939,9.78,9.8003,9.692,9.6582,9.5973,9.5296,9.5702,9.5601,9.5263,9.5263,9.5296,9.5278,9.4905,9.477,9.4804,9.5161,9.5499,9.5838,9.6259,9.6616,9.6954,9.6902,9.7172,9.7461,9.7428,9.7698,9.7987,9.7987,9.7987,9.7987,9.7987,9.7987,9.8104,9.8476,9.8273,9.824,9.9002,9.8528,9.8123,9.851,9.8848,9.9372,10.0184,10.0186,10.0084,9.9796,9.9356,9.895,9.8612,9.824,9.7987,9.7987,9.7987,9.7834,9.7428,9.7545,9.7158,9.6179,9.5852,9.5591,9.54,9.5413,9.5413,9.5413,9.4999,9.4654,9.4275,9.3482,9.2723,0.0,6.4368,7.1752,8.3151,8.8518,0.0,9.2015,9.2714,0.0,0.0,0.0,0.0,0.0,0.0,0.0,0.0,0.0,0.0,0.0,0.0,0.0,0.0,0.0,0.0,0.0,0.0,0.0,0.0,0.0,9.6601,9.6227,9.7151,9.7219,9.6201,9.6868,9.6902,9.619,9.5815,9.5296,9.4706,9.4436,9.3909,9.3248,9.4973,9.5548,9.5195,9.4571,9.4233,9.4098,9.4233,9.4233,9.4112,9.4112,9.3808,9.3383,9.3383,9.3383,9.3518,9.4248,9.4924,9.5432,9.5567,9.5702,9.5872,9.636,9.6699,9.7003,9.7495,9.78,9.7987,9.7987,9.7987,9.7987,9.7987,9.7987,9.7987,9.7987,9.7987,9.8037,9.8172,9.8206,9.8206,9.8206,9.8578,9.8984,9.9254,9.9678,9.9611,9.8528,9.8815,9.8848,9.8273,9.807,9.7987,9.7987,9.7987,9.7987,9.7987,9.7733,9.7306,9.6657,9.6337,9.5911,9.533,9.5386,9.5413,9.5413,9.5413,9.5103,9.4482,9.4344,9.362,5.3543,0.0,7.8972,0.0,9.0451,9.3624,0.0,0.0,9.3442,0.0,0.0,0.0,0.0,0.0,0.0,0.0,0.0,0.0,0.0,0.0,0.0,0.0,0.0,0.0,0.0,0.0,0.0,0.0,9.2421,9.263,9.3809,9.2946,9.2644,9.3169,9.3891,9.3932,9.3263,9.433,9.4823,9.4673,9.3353,9.2305,9.1609,9.1237,9.173,9.2846,9.273,9.2339,9.1812,9.244,9.2339,9.1744,9.1744,9.2068,9.2575,9.2575,9.2575,9.2677,9.347,9.3823,9.3992,9.4654,9.5296,9.5702,9.5161,9.5872,9.68,9.6259,9.7022,9.7987,9.7987,9.7987,9.7987,9.7987,9.7987,9.7987,9.7987,9.7987,9.8206,9.8815,9.895,9.895,9.895,9.851,9.8562,9.9848,9.9593,9.9424,9.9848,9.9424,9.9051,9.895,9.8375,9.7987,9.7987,9.7987,9.7987,9.7987,9.8208,9.7726,9.6313,9.6749,9.6375,9.4989,9.524,9.5413,9.5413,9.5413,9.5344,9.5241,9.4585,9.4172,5.84,6.8152,7.7706,0.0,8.8764,9.1198,9.1989,0.0,9.3411,9.417,9.454,0.0,0.0,0.0,0.0,0.0,0.0,0.0,0.0,0.0,0.0,0.0,0.0,0.0,0.0,0.0,0.0,0.0,9.1371,9.1157,9.1043,9.1248,9.1185,9.0706,9.1872,9.2299,9.1942,9.2495,9.259,9.217,9.0648,8.9768,8.941,8.87,8.9599,9.1744,9.0899,9.0594,9.0729,9.102,9.0986,9.0696,9.0696,9.0884,9.1155,9.1155,9.1425,9.1899,9.2658,9.3199,9.3654,9.3992,9.4282,9.4586,9.4687,9.5432,9.6293,9.6394,9.7191,9.7987,9.7987,9.7987,9.7987,9.7987,9.7987,9.7987,9.7987,9.7987,9.8104,9.8409,9.8815,9.9085,9.9085,9.8815,9.8848,9.9491,9.895,9.8612,9.8934,9.8679,9.8476,9.8476,9.819,9.7987,9.7987,9.7987,9.7987,9.7987,9.8141,9.782,9.6914,9.7311,9.6914,9.5557,9.5454,9.5413,9.5413,9.5413,9.5413,9.5379,9.5068,9.4689,6.0037,6.6528,7.2329,8.0647,8.4857,8.768,0.0,0.0,9.293,0.0,9.4027,9.415,0.0,0.0,0.0,0.0,0.0,0.0,0.0,0.0,0.0,0.0,0.0,0.0,0.0,0.0,0.0,0.0,9.0202,8.9715,8.9264,8.9418,8.9224,8.8494,8.9398,8.9946,9.0002,9.0495,9.029,8.9362,8.826,8.7719,8.7685,8.6974,8.7922,9.0121,8.9221,8.914,8.9633,8.9633,8.9748,8.9918,8.9715,8.9748,8.9951,9.014,9.056,9.1135,9.1865,9.2522,9.3011,9.3011,9.3146,9.3402,9.3928,9.4789,9.5669,9.6394,9.7172,9.7766,9.7953,9.7987,9.7987,9.7987,9.7987,9.7987,9.7987,9.7987,9.7987,9.7987,9.8612,9.9153,9.9356,9.9221,9.9153,9.9356,9.8578,9.7987,9.7987,9.7987,9.7987,9.7987,9.7987,9.7987,9.7987,9.7987,9.7987,9.7987,9.7987,9.7772,9.7284,9.7536,9.7233,9.6218,9.5775,9.5503,9.5413,9.5413,9.5413,9.5413,9.5413,9.5103,5.2253,5.7579,6.3312,7.1468,7.8505,8.432,0.0,0.0,9.1679,9.2991,9.3257,9.3288,9.3299,0.0,0.0,0.0,0.0,0.0,0.0,0.0,0.0,0.0,0.0,0.0,0.0,0.0,0.0,0.0,8.7463,8.7249,8.9278,8.6277,8.509,8.6398,8.5849,8.5848,8.6475,8.8296,8.8511,8.7062,8.6995,8.6961,8.6927,8.6196,8.6332,8.7164,8.7786,8.8091,8.8125,8.8125,8.8545,8.9086,8.8395,8.8545,8.9255,8.9951,9.0208,9.0343,9.1102,9.1372,9.1406,9.1406,9.1899,9.2459,9.2508,9.3556,9.4909,9.5635,9.6394,9.7105,9.7834,9.7987,9.7987,9.7987,9.7987,9.7987,9.7987,9.7987,9.7987,9.7987,9.8612,9.9322,10.0001,9.9559,9.9322,10.0001,9.8901,9.7987,9.7987,9.7987,9.7987,9.7987,9.7987,9.7987,9.7987,9.7987,9.7987,9.7987,9.7987,9.7664,9.6966,9.7235,9.7176,9.6667,9.6203,9.5781,9.5413,9.5413,9.5413,9.5413,9.5413,9.5379,5.115,5.4515,5.861,6.7358,7.3377,7.8441,8.3248,8.6895,8.979,9.1556,9.2264,9.2694,9.3114,9.3411,0.0,0.0,0.0,0.0,0.0,0.0,0.0,0.0,0.0,0.0,0.0,0.0,0.0,0.0,0.0,8.5611,8.5987,8.4788,8.4324,8.485,8.4205,8.3975,8.4211,8.5714,8.6207,8.5658,8.6024,8.6196,8.6163,8.5384,8.5168,8.5473,8.623,8.6873,8.7279,8.7279,8.7448,8.7719,8.7922,8.8158,8.8463,8.9221,8.9782,9.0242,9.0493,9.0899,9.1305,9.1305,9.1474,9.1764,9.2271,9.3151,9.4248,9.5466,9.6326,9.7071,9.78,9.7987,9.7987,9.7987,9.7987,9.7987,9.7987,9.7987,9.7987,9.7987,9.8612,9.9018,9.8799,9.895,9.9018,9.8799,9.8326,9.7987,9.7987,9.7987,9.7987,9.7987,9.7987,9.7987,9.7987,9.7987,9.7987,9.7987,9.7987,9.7867,9.7631,9.7918,9.7567,9.6397,9.6433,9.6338,9.6103,9.562,9.5413,9.5413,9.5413,9.5413,4.918,0.0,0.0,6.2847,6.7243,7.1549,7.9368,8.3048,8.5819,8.9432,9.0725,9.1463,9.2376,9.2529,9.2591,9.2837,0.0,0.0,0.0,0.0,0.0,0.0,0.0,0.0,0.0,0.0,0.0,0.0,0.0,0.0,8.3757,8.3344,8.2981,8.2757,8.2551,8.2493,8.2658,8.356,8.4079,8.4218,8.4576,8.4747,8.4761,8.4656,8.4614,8.4614,8.5182,8.5824,8.6535,8.6535,8.667,8.6927,8.7177,8.755,8.8057,8.8545,8.9221,8.9816,8.9816,9.0154,9.0575,9.0575,9.0913,9.1372,9.1865,9.2759,9.3924,9.5379,9.6157,9.6766,9.7732,9.7987,9.7987,9.7987,9.7987,9.7987,9.7987,9.7987,9.7987,9.7987,9.8612,9.895,9.8442,9.8781,9.8916,9.8442,9.8172,9.7987,9.7987,9.7987,9.7987,9.7987,9.7987,9.7987,9.7987,9.7987,9.7987,9.7987,9.7987,9.7987,9.7987,9.8218,9.7896,9.6982,9.668,9.6534,9.6586,9.5653,9.5282,9.5413,9.5413,9.5275,0.0,0.0,0.0,0.0,0.0,0.0,7.5839,0.0,7.9553,8.6527,8.8466,8.9371,9.0909,9.1186,9.1371,9.1998,9.1587,0.0,0.0,0.0,0.0,0.0,0.0,0.0,0.0,0.0,0.0,0.0,8.282,8.2328,8.2943,8.1743,8.0727,8.0046,8.0675,8.1204,8.1654,8.1839,8.2139,8.2605,8.2675,8.2704,8.2746,8.4021,8.4614,8.4614,8.4614,8.5033,8.577,8.577,8.6196,8.6758,8.6034,8.6656,8.7955,8.7948,8.8449,8.9086,8.9086,8.9086,8.9086,8.9086,9.0067,9.1237,9.1271,9.2368,9.3857,9.5345,9.577,9.6142,9.7631,9.7987,9.7987,9.7987,9.7987,9.7987,9.7987,9.7987,9.7987,9.7987,9.8578,9.9067,9.9067,9.9067,9.9067,9.9067,9.8476,9.7987,9.7987,9.7987,9.7987,9.7987,9.7987,9.7987,9.7987,9.7987,9.7987,9.7987,9.7987,9.7987,9.7987,9.7987,9.8157,9.8444,9.6967,9.6333,9.6637,9.5484,9.5073,9.54,9.54,9.4999,4.5805,0.0,0.0,0.0,0.0,0.0,0.0,0.0,7.0582,8.034,8.2495,8.4231,8.9494,9.0479,9.0386,9.0079,8.9863,8.9759,0.0,0.0,0.0,0.0,0.0,0.0,0.0,0.0,0.0,0.0,8.1606,8.1034,8.0248,7.9847,7.9324,7.8599,7.8767,7.8697,7.8321,7.9289,7.9815,7.9959,8.1828,8.2704,8.2746,8.4021,8.4614,8.4614,8.4614,8.4728,8.4931,8.4931,8.5067,8.5189,8.4651,8.5569,8.7169,8.6779,8.7691,8.9086,8.9086,8.9086,8.9086,8.9086,8.939,8.9898,9.0981,9.1609,9.2368,9.4451,9.5398,9.6142,9.7631,9.7987,9.7987,9.7987,9.7987,9.7987,9.7987,9.7987,9.7987,9.7987,9.8172,9.8307,9.8307,9.8307,9.8307,9.8307,9.8138,9.7987,9.7987,9.7987,9.7987,9.7987,9.7987,9.7987,9.7987,9.7987,9.7987,9.7987,9.7987,9.7987,9.7987,9.7987,9.7778,9.7343,9.6414,9.5784,9.5531,9.4915,9.475,9.5025,9.5282,9.4999,0.0,0.0,0.0,0.0,0.0,0.0,6.0639,6.2601,6.5534,7.5846,7.863,8.0692,8.5511,8.7,8.7411,8.7269,8.7042,8.7098,8.7832,8.6989,0.0,0.0,0.0,0.0,0.0,8.1896,8.1004,8.0326,8.0265,7.9926,7.9139,7.8832,7.8446,7.7998,7.7738,7.7632,7.7783,7.7992,7.8375,7.8927,8.0412,8.1127,8.1171,8.2449,8.331,8.3797,8.3797,8.3797,8.3797,8.3797,8.4116,8.4507,8.3693,8.4498,8.597,8.5123,8.6255,8.8267,8.8267,8.8629,8.9086,8.9086,8.9526,9.0169,9.1034,9.1759,9.259,9.4248,9.5229,9.6074,9.7225,9.7529,9.7631,9.7935,9.7987,9.7987,9.7987,9.7987,9.7987,9.7987,9.7987,9.7987,9.7987,9.7987,9.7987,9.7987,9.7987,9.7987,9.7987,9.7987,9.7987,9.7987,9.7987,9.7987,9.7987,9.7987,9.7987,9.7987,9.7987,9.7987,9.7987,9.7987,9.78,9.736,9.6631,9.5827,9.4936,9.4189,9.3893,9.4006,9.4496,9.4221,0.0,0.0,0.0,0.0,0.0,0.0,6.0455,6.1255,6.2394,7.1536,7.4906,7.6999,7.9618,8.1481,8.2722,8.2949,8.3022,8.3694,8.5648,8.5321,8.4619,8.3941,0.0,0.0,8.1034,8.0371,7.9724,7.9047,7.8924,7.8893,7.8986,7.8292,7.7875,7.7875,7.7307,7.7493,7.8581,7.7447,7.7464,7.8597,7.8659,7.8753,7.8958,8.015,8.1352,8.2472,8.2472,8.2472,8.2472,8.2472,8.3171,8.4062,8.2774,8.3217,8.4427,8.3227,8.4485,8.6765,8.6864,8.7668,8.8657,8.8657,8.9653,9.0866,9.105,9.215,9.3518,9.4451,9.5161,9.5872,9.6699,9.6902,9.7105,9.7834,9.7987,9.7987,9.7987,9.7987,9.7987,9.7987,9.7987,9.7987,9.7987,9.7987,9.7987,9.7987,9.7987,9.7987,9.7987,9.7987,9.7987,9.7987,9.7987,9.7987,9.7987,9.7987,9.7987,9.7987,9.7987,9.7987,9.7987,9.7987,9.7987,9.7987,9.7206,9.6022,9.4436,9.3486,9.2978,9.2879,9.3498,9.3216,0.0,0.0,0.0,0.0,0.0,0.0,5.0236,5.1898,5.5407,6.2179,6.4289,6.6765,7.2706,7.5367,7.5978,7.3888,7.6884,8.0759,8.4301,8.4051,8.3251,8.2574,8.1773,8.1034,8.0371,7.9694,7.8986,7.8292,7.7707,7.7645,7.8199,7.7584,7.7215,7.7215,7.7061,7.6853,7.6572,7.6314,7.6314,7.6558,7.7041,7.7868,7.8926,7.9651,8.041,8.1168,8.1168,8.1168,8.1168,8.1168,8.1315,8.1403,8.0141,8.0807,8.24,8.1741,8.2821,8.476,8.5315,8.5665,8.588,8.588,8.6807,8.8139,8.9319,9.0634,9.215,9.4131,9.4808,9.5229,9.6563,9.6902,9.7105,9.7834,9.7987,9.7987,9.7987,9.7987,9.7987,9.7987,9.7987,9.7987,9.7987,9.7987,9.7987,9.7987,9.7987,9.7987,9.7987,9.7987,9.7987,9.7987,9.7987,9.7987,9.7987,9.7987,9.7987,9.7987,9.7987,9.7987,9.7987,9.7987,9.7987,9.7987,9.6683,9.4958,9.2846,9.3472,9.3757,9.375,9.3768,9.3656,0.0,0.0,0.0,5.0021,0.0,0.0,0.0,5.1447,5.2914,5.9039,6.0037,6.1268,6.6041,6.7882,6.8763,6.9054,7.2133,7.5401,7.8091,8.0098,8.1064,8.0389,8.0193,7.9834,7.9123,7.8753,7.8261,7.7537,7.7184,7.7153,7.7475,7.7184,7.6999,7.6999,7.6691,7.6322,7.5984,7.5661,7.5507,7.5507,7.5806,7.6307,7.6978,7.7274,7.7949,7.8873,7.921,7.9355,7.9387,7.9692,7.9469,7.8895,7.8911,7.9712,8.0832,8.026,8.1341,8.3211,8.3867,8.4538,8.5106,8.5106,8.628,8.7867,8.8943,9.0776,9.259,9.3353,9.3827,9.4315,9.5075,9.5785,9.6529,9.7258,9.7732,9.7987,9.7987,9.7987,9.7987,9.7987,9.7987,9.7987,9.7987,9.7987,9.7987,9.7987,9.7987,9.7987,9.7987,9.7987,9.7987,9.7987,9.7987,9.7987,9.7987,9.7987,9.7987,9.7987,9.7987,9.7987,9.7987,9.7987,9.7834,9.7461,9.6345,9.506,9.3556,9.3733,9.3486,9.2897,9.3211,9.3316,0.0,0.0,0.0,0.0,0.0,5.1498,0.0,0.0,0.0,5.6958,5.7217,0.0,0.0,0.0,0.0,0.0,0.0,0.0,0.0,7.3674,0.0,7.7216,7.765,7.7754,7.7276,7.6876,7.663,7.663,7.6137,7.6076,7.6599,7.6753,7.6814,7.6814,7.6291,7.5922,7.5799,7.5138,7.4799,7.4799,7.4676,7.4738,7.5015,7.4861,7.5432,7.6568,7.7118,7.7417,7.7575,7.8125,7.7819,7.7114,7.812,7.8879,7.9317,7.9093,8.0077,8.1632,8.2434,8.341,8.4331,8.4331,8.5749,8.7599,8.86,9.0817,9.2893,9.2358,9.2974,9.3857,9.3992,9.5007,9.6191,9.6935,9.7563,9.7987,9.7987,9.7987,9.7987,9.7987,9.7987,9.7987,9.7987,9.7987,9.7987,9.7987,9.7987,9.7987,9.7987,9.7987,9.7987,9.7987,9.7987,9.7987,9.7987,9.7987,9.7987,9.7987,9.7987,9.7987,9.7987,9.7987,9.7529,9.6496,9.6041,9.5364,9.4485,9.389,9.3108,9.2166,9.2665,9.2876,0.0,0.0,0.0,0.0,5.5701,0.0,0.0,0.0,5.2872,5.1201,0.0,0.0,0.0,0.0,0.0,0.0,0.0,0.0,5.9239,6.3551,6.8354,7.226,7.3291,7.3892,7.4399,7.2798,7.2706,7.5046,7.2983,7.2675,7.5107,7.5784,7.6107,7.6107,7.6045,7.5707,7.5138,7.4461,7.4091,7.4091,7.3522,7.3861,7.4984,7.4368,7.4525,7.5223,7.5316,7.567,7.6226,7.6288,7.6592,7.7016,7.7163,7.7259,7.7459,7.8666,7.9241,7.9608,8.0891,8.1426,8.1532,8.1532,8.2954,8.4997,8.6872,8.9,9.0894,9.1428,9.304,9.4721,9.5364,9.6157,9.6969,9.7698,9.7935,9.7987,9.7987,9.7987,9.7987,9.7987,9.7987,9.7987,9.7987,9.7987,9.7987,9.7987,9.7987,9.7987,9.7987,9.7987,9.7987,9.7987,9.7987,9.7987,9.7987,9.7987,9.7987,9.7987,9.7987,9.7987,9.7987,9.7987,9.7056,9.4977,9.5499,9.5142,9.3721,9.3654,9.3533,9.3374,9.3059,9.302,0.0,0.0,0.0,0.0,0.0,0.0,0.0,0.0,5.1374,0.0,0.0,0.0,0.0,0.0,0.0,0.0,5.492,0.0,0.0,0.0,6.3302,0.0,0.0,0.0,6.9751,7.0181,7.0999,7.2522,7.1946,7.2223,7.3753,7.483,7.5415,7.5415,7.5046,7.4707,7.443,7.3768,7.343,7.343,7.3122,7.3307,7.383,7.3553,7.3799,7.443,7.483,7.5384,7.6014,7.6414,7.6753,7.6999,7.6999,7.6999,7.7184,7.8585,7.9109,7.9293,8.0634,8.1113,8.122,8.2025,8.3138,8.4505,8.6131,8.7559,8.867,8.8932,9.0562,9.2274,9.2544,9.4097,9.5702,9.5992,9.6398,9.6853,9.7274,9.7375,9.7495,9.7935,9.7987,9.7987,9.7987,9.7987,9.7987,9.7987,9.7987,9.7987,9.7987,9.7987,9.7987,9.7987,9.7987,9.7987,9.7987,9.7987,9.7987,9.7987,9.7597,9.7375,9.7375,9.6954,9.6074,9.474,9.5011,9.4417,9.2895,9.3383,9.3349,9.2928,9.3195,9.3462,5.8022,0.0,0.0,0.0,0.0,0.0,0.0,0.0,0.0,0.0,0.0,0.0,0.0,0.0,0.0,0.0,0.0,5.478,0.0,0.0,0.0,0.0,0.0,0.0,0.0,6.6928,6.8119,6.9704,6.9267,6.9799,7.1782,7.2952,7.3876,7.443,7.4153,7.3999,7.3999,7.3337,7.2999,7.2999,7.2999,7.2999,7.2999,7.2999,7.3276,7.3768,7.443,7.5107,7.5784,7.6445,7.6845,7.6999,7.6999,7.6999,7.7184,7.8585,7.9109,7.9293,8.0634,8.1113,8.1255,8.223,8.2912,8.3587,8.474,8.5711,8.6533,8.6822,8.847,9.0247,9.0807,9.2674,9.4522,9.4902,9.5398,9.6007,9.6732,9.6902,9.7105,9.7867,9.7987,9.7987,9.7987,9.7987,9.7987,9.7987,9.7987,9.7987,9.7987,9.7987,9.7987,9.7987,9.7987,9.7987,9.7987,9.7987,9.792,9.7698,9.7003,9.6496,9.6326,9.5973,9.5364,9.4417,9.462,9.4064,9.2745,9.3315,9.33,9.2745,9.3349,9.3747,0.0,0.0,0.0,5.8404,0.0,0.0,0.0,0.0,5.4356,0.0,0.0,0.0,0.0,0.0,0.0,0.0,0.0,0.0,0.0,0.0,0.0,0.0,0.0,0.0,0.0,6.2242,6.2761,6.6819,6.3419,6.3456,6.8763,6.9704,7.0997,7.2999,7.3676,7.3999,7.3999,7.3337,7.2999,7.2999,7.2999,7.2999,7.2999,7.2999,7.2999,7.306,7.3738,7.4399,7.5076,7.5754,7.6414,7.6999,7.6999,7.6999,7.7184,7.8585,7.9109,7.9293,8.0634,8.1113,8.1113,8.1165,8.1182,8.1354,8.2036,8.3193,8.4591,8.587,8.7758,8.9903,9.1991,9.3132,9.4076,9.5449,9.577,9.6007,9.6732,9.6902,9.7105,9.7867,9.7987,9.7987,9.7987,9.7987,9.7987,9.7987,9.7987,9.7987,9.7987,9.7987,9.7987,9.7987,9.7987,9.7987,9.7987,9.7987,9.7698,9.6969,9.6259,9.5499,9.4823,9.5432,9.5142,9.3654,9.4349,9.4315,9.3552,9.3586,9.3586,9.3552,9.3586,9.3747,0.0,0.0,6.8844,6.2363,0.0,0.0,0.0,0.0,0.0,0.0,0.0,0.0,0.0,0.0,0.0,0.0,0.0,0.0,0.0,0.0,0.0,0.0,0.0,0.0,0.0,0.0,0.0,6.1469,6.0715,6.2168,6.6685,6.7951,6.9505,7.1536,7.2291,7.2876,7.3337,7.3122,7.2999,7.2999,7.2999,7.2999,7.2999,7.2999,7.3245,7.3707,7.4368,7.5046,7.5707,7.6384,7.6814,7.6999,7.6999,7.6999,7.7184,7.8585,7.9109,7.9293,8.0634,8.1113,8.1113,8.1113,8.1113,8.1144,8.1373,8.1784,8.2426,8.3777,8.5333,8.7213,8.9773,9.1345,9.27,9.4624,9.4687,9.4804,9.6529,9.6529,9.6514,9.7751,9.7987,9.7987,9.7987,9.7987,9.7987,9.7987,9.7987,9.7987,9.7987,9.7987,9.7987,9.7987,9.7987,9.7987,9.7987,9.7563,9.7172,9.6902,9.5736,9.4958,9.4706,9.4451,9.4093,9.362,9.3857,9.3571,9.2827,9.3349,9.3349,9.2827,9.2827,9.2837,6.8805,7.0327,0.0,6.5438,6.4459,0.0,5.8228,0.0,0.0,0.0,0.0,0.0,0.0,0.0,0.0,0.0,0.0,0.0,0.0,4.8074,0.0,0.0,0.0,0.0,0.0,0.0,5.6601,5.7269,5.7112,5.8715,0.0,6.4923,6.712,6.9413,7.1121,7.2198,7.2629,7.2876,7.2999,7.2999,7.2999,7.2999,7.2999,7.2999,7.3245,7.366,7.4338,7.5015,7.5707,7.6353,7.6784,7.6999,7.6999,7.6999,7.7184,7.8585,7.9386,7.9926,8.0788,8.1113,8.1113,8.1113,8.1113,8.1113,8.1113,8.1113,8.1421,8.3005,8.3924,8.5138,8.8166,8.946,9.0581,9.2994,9.3405,9.3843,9.6033,9.636,9.6548,9.7751,9.7987,9.7987,9.7987,9.7987,9.7987,9.7987,9.7987,9.7987,9.7987,9.7766,9.7597,9.7597,9.7597,9.7698,9.7987,9.7089,9.6496,9.6496,9.5127,9.4315,9.4315,9.3857,9.3857,9.4364,9.3857,9.362,9.3624,9.362,9.3334,9.2827,9.2827,9.2677]},{"header":{"parameterUnit":"m.s-1","parameterCategory":1,"la1":30.6,"la2":29.2853,"lo1":-89.7004,"lo2":-87.6739,"dy":0.0162,"dx":0.0183,"nx":112,"ny":82,"refTime":"2023-03-12T06:00:00:Z","depth":0,"parameterNumber":3,"parameterNumberName":"V-component_of_WINDS"},"data":[0.0,0.0,0.0,0.0,0.0,0.0,0.0,0.0,0.0,0.0,0.0,0.0,0.0,0.0,0.0,0.0,0.0,0.0,0.0,0.0,0.0,0.0,0.0,0.0,0.0,0.0,0.0,0.0,0.0,0.0,0.0,0.0,0.0,0.0,0.0,0.0,0.0,0.0,0.0,0.0,0.0,0.0,0.0,0.0,0.0,0.0,0.0,0.0,0.0,0.0,0.0,0.0,0.0,0.0,0.0,0.0,0.0,0.0,0.0,0.0,0.0,0.0,0.0,0.0,0.0,0.0,0.0,0.0,0.0,0.0,0.0,0.0,0.0,0.0,0.0,0.0,0.0,0.0,0.0,0.0,0.0,0.0,0.0,0.0,0.0,0.0,0.0,0.0,0.0,0.0,0.0,2.0743,2.4134,2.6266,2.6306,2.5132,2.3184,2.0236,0.0,0.0,0.0,0.0,0.0,0.0,0.0,0.0,0.0,0.0,0.0,0.0,0.0,0.0,0.0,0.0,0.0,0.0,0.0,0.0,0.0,0.0,0.0,0.0,0.0,0.0,0.0,0.0,0.0,0.0,0.0,0.0,0.0,0.0,0.0,0.0,0.0,0.0,0.0,0.0,0.0,0.0,0.0,0.0,0.0,0.0,0.0,0.0,0.0,0.0,0.0,0.0,0.0,0.0,0.0,0.0,0.0,0.0,0.0,0.0,0.0,0.0,0.0,0.0,0.0,0.0,0.0,0.0,0.0,0.0,0.0,0.0,0.0,0.0,0.0,0.0,0.0,0.0,0.0,0.0,0.0,0.0,0.0,0.0,0.0,0.0,0.0,0.0,0.0,0.0,0.0,0.0,0.0,0.0,0.0,0.0,0.0,0.0,0.0,0.0,0.0,0.0,0.0,0.0,1.97,2.3531,2.5509,2.6617,2.677,2.4823,2.2759,2.0868,0.0,0.0,0.0,0.0,0.0,0.0,0.0,0.0,0.0,0.0,0.0,0.0,0.0,0.0,0.0,0.0,0.0,0.0,0.0,0.0,0.0,0.0,0.0,0.0,0.0,0.0,0.0,0.0,0.0,0.0,0.0,0.0,0.0,0.0,0.0,0.0,0.0,0.0,0.0,0.0,0.0,0.0,0.0,0.0,0.0,0.0,0.0,0.0,0.0,0.0,0.0,0.0,0.0,0.0,0.0,0.0,0.0,0.0,0.0,0.0,0.0,0.0,0.0,0.0,0.0,0.0,0.0,0.0,0.0,0.0,0.0,0.0,0.0,0.0,0.0,0.0,0.0,0.0,0.0,0.0,0.0,0.0,0.0,0.0,0.0,0.0,0.0,0.0,0.0,0.0,0.0,0.0,0.0,0.0,0.0,0.0,0.0,0.0,0.0,0.0,0.0,0.0,0.0,1.9261,2.16,2.5683,2.6898,2.7417,2.7392,2.5662,2.3506,2.0946,1.9408,0.0,0.0,0.0,0.0,0.0,0.0,0.0,0.0,0.0,0.0,0.0,0.0,0.0,0.0,0.0,0.0,0.0,0.0,0.0,0.0,0.0,0.0,0.0,0.0,0.0,0.0,0.0,0.0,0.0,0.0,0.0,0.0,0.0,0.0,0.0,0.0,0.0,0.0,0.0,0.0,0.0,0.0,0.0,0.0,0.0,0.0,0.0,0.0,0.0,0.0,0.0,0.0,0.0,0.0,0.0,0.0,0.0,0.0,0.0,0.0,0.0,0.0,0.0,0.0,0.0,0.0,0.0,0.0,0.0,0.0,0.0,0.0,0.0,0.0,0.0,0.0,0.0,0.0,0.0,0.0,0.0,0.0,0.0,0.0,0.0,0.0,0.0,0.0,0.0,0.0,0.0,0.0,0.0,0.0,0.0,0.0,0.0,0.0,0.0,0.0,0.0,0.0,2.1689,2.3657,2.7259,2.8045,2.8217,2.8061,2.6284,2.4016,2.1269,1.9253,0.0,0.0,0.0,0.0,0.0,0.0,0.0,0.0,0.0,0.0,0.0,0.0,0.0,0.0,0.0,0.0,0.0,0.0,0.0,0.0,0.0,0.0,0.0,0.0,0.0,0.0,0.0,0.0,0.0,0.0,0.0,0.0,0.0,0.0,0.0,0.0,0.0,0.0,0.0,0.0,0.0,0.0,0.0,0.0,0.0,0.0,0.0,0.0,0.0,0.0,0.0,0.0,0.0,0.0,0.0,0.0,0.0,0.0,0.0,0.0,0.0,0.0,0.0,0.0,0.0,0.0,0.0,0.0,0.0,0.0,0.0,0.0,0.0,0.0,0.0,0.0,0.0,0.0,0.0,0.0,0.0,0.0,0.0,0.0,0.0,0.0,0.0,0.0,0.0,0.0,0.0,0.0,0.0,0.0,0.0,0.0,0.0,0.0,0.0,0.0,0.0,0.0,2.3233,2.5549,2.8147,2.8693,2.8801,2.8754,2.5772,2.346,2.2345,1.9084,0.0,0.0,0.0,0.0,0.0,0.0,0.0,0.0,0.0,0.0,0.0,0.0,0.0,0.0,0.0,0.0,0.0,0.0,0.0,0.0,0.0,0.0,0.0,0.0,0.0,0.0,0.0,0.0,0.0,0.0,0.0,0.0,0.0,0.0,0.0,0.0,0.0,0.0,0.0,0.0,0.0,0.0,0.0,0.0,0.0,0.0,0.0,0.0,0.0,0.0,0.0,0.0,0.0,0.0,0.0,0.0,0.0,0.0,0.0,0.0,0.0,0.0,0.0,0.0,0.0,0.0,0.0,0.0,0.0,0.0,0.0,0.0,0.0,0.0,0.0,0.0,0.0,0.0,0.0,0.0,0.0,0.0,0.0,0.0,0.0,0.0,0.0,0.0,0.0,0.0,0.0,0.0,0.0,0.0,0.0,0.0,0.0,0.0,0.0,0.0,0.0,0.0,2.3529,2.6136,0.0,2.9442,2.9446,2.9078,2.6977,2.4624,2.2177,0.0,0.0,0.0,0.0,0.0,0.0,0.0,0.0,0.0,0.0,0.0,0.0,0.0,0.0,0.0,0.0,0.0,0.0,0.0,0.0,0.0,0.0,0.0,0.0,0.0,0.0,0.0,0.0,0.0,0.0,0.0,0.0,0.0,0.0,0.0,0.0,0.0,0.0,0.0,0.0,0.0,0.0,0.0,0.0,0.0,0.0,0.0,0.0,0.0,0.0,0.0,0.0,0.0,0.0,0.0,0.0,0.0,0.0,0.0,0.0,0.0,0.0,0.0,0.0,0.0,0.0,0.0,0.0,0.0,0.0,0.0,0.0,0.0,0.0,0.0,0.0,0.0,0.0,0.0,0.0,0.0,0.0,0.0,0.0,0.0,0.0,0.0,0.0,0.0,0.0,0.0,0.0,0.0,0.0,0.0,0.0,0.0,0.0,0.0,0.0,0.0,0.0,2.173,2.4585,2.734,0.0,3.0248,3.0093,2.9363,2.7329,2.4931,2.2168,0.0,0.0,0.0,0.0,0.0,0.0,0.0,0.0,0.0,0.0,0.0,0.0,0.0,0.0,0.0,0.0,0.0,0.0,0.0,0.0,0.0,0.0,0.0,0.0,0.0,0.0,0.0,0.0,0.0,0.0,0.0,0.0,0.0,0.0,0.0,0.0,0.0,0.0,0.0,0.0,0.0,0.0,0.0,0.0,0.0,0.0,0.0,0.0,0.0,0.0,0.0,0.0,0.0,0.0,0.0,0.0,0.0,0.0,0.0,0.0,0.0,0.0,0.0,0.0,0.0,0.0,0.0,0.0,0.0,0.0,0.0,0.0,0.0,0.0,0.0,0.0,0.0,0.0,0.0,0.0,0.0,0.0,0.0,0.0,0.0,0.0,0.0,0.0,0.0,0.0,0.0,0.0,0.0,0.0,0.0,0.0,0.0,0.0,0.0,0.0,0.0,0.0,2.3073,2.6639,2.9464,3.0662,3.1049,3.0719,2.9601,2.65,2.3972,0.0,0.0,0.0,0.0,0.0,0.0,0.0,0.0,0.0,0.0,0.0,0.0,0.0,0.0,0.0,0.0,0.0,0.0,0.0,0.0,0.0,0.0,0.0,0.0,0.0,0.0,0.0,0.0,0.0,0.0,0.0,0.0,0.0,0.0,0.0,0.0,0.0,0.0,0.0,0.0,0.0,0.0,0.0,0.0,0.0,0.0,0.0,0.0,0.0,0.0,0.0,0.0,0.0,0.0,0.0,0.0,0.0,0.0,0.0,0.0,0.0,0.0,0.0,0.0,0.0,0.0,0.0,0.0,0.0,0.0,0.0,0.0,0.0,0.0,0.0,0.0,0.0,0.0,0.0,0.0,0.0,0.0,0.0,0.0,0.0,0.0,0.0,0.0,0.0,0.0,0.0,0.0,0.0,0.0,0.0,0.0,0.0,0.0,0.0,0.0,0.0,0.0,0.0,0.0,2.6639,2.9397,3.0404,3.0765,3.0448,2.925,2.6961,2.4681,2.2535,0.0,0.0,0.0,0.0,0.0,0.0,0.0,0.0,0.0,0.0,0.0,0.0,0.0,0.0,0.0,0.0,0.0,0.0,0.0,0.0,0.0,0.0,0.0,0.0,0.0,0.0,0.0,0.0,0.0,0.0,0.0,0.0,0.0,0.0,0.0,0.0,0.0,0.0,0.0,0.0,0.0,0.0,0.0,0.0,0.0,0.0,0.0,0.0,0.0,0.0,0.0,0.0,0.0,0.0,0.0,0.0,0.0,0.0,0.0,0.0,0.0,0.0,0.0,0.0,0.0,0.0,0.0,0.0,0.0,0.0,0.0,0.0,0.0,0.0,0.0,0.0,0.0,0.0,0.0,0.0,0.0,0.0,0.0,0.0,0.0,0.0,0.0,0.0,0.0,0.0,0.0,0.0,0.0,0.0,0.0,0.0,0.0,0.0,0.0,0.0,0.0,0.0,2.3404,2.7059,2.9766,3.0346,3.0751,3.0425,2.9108,2.7168,2.5034,2.2739,0.0,0.0,0.0,0.0,0.0,0.0,0.0,0.0,0.0,0.0,0.0,0.0,0.0,0.0,0.0,0.0,0.0,0.0,0.0,0.0,0.0,0.0,0.0,0.0,0.0,0.0,0.0,0.0,0.0,0.0,0.0,0.0,0.0,0.0,0.0,0.0,0.0,0.0,0.0,0.0,0.0,0.0,0.0,0.0,0.0,0.0,0.0,0.0,0.0,0.0,0.0,0.0,0.0,0.0,0.0,0.0,0.0,0.0,0.0,0.0,0.0,0.0,0.0,0.0,0.0,0.0,0.0,0.0,0.0,0.0,0.0,0.0,0.0,0.0,0.0,0.0,0.0,0.0,0.0,0.0,0.0,0.0,0.0,0.0,0.0,0.0,0.0,0.0,0.0,0.0,0.0,0.0,0.0,0.0,0.0,0.0,0.0,0.0,0.0,0.0,0.0,0.0,2.3763,2.7643,3.0333,3.0337,3.0808,3.0545,2.9103,2.7195,2.5206,2.3182,0.0,0.0,0.0,0.0,0.0,0.0,0.0,0.0,0.0,0.0,0.0,0.0,0.0,0.0,0.0,0.0,0.0,0.0,0.0,0.0,0.0,0.0,0.0,0.0,0.0,0.0,0.0,0.0,0.0,0.0,0.0,0.0,0.0,0.0,0.0,0.0,0.0,0.0,0.0,0.0,0.0,0.0,0.0,0.0,0.0,0.0,0.0,0.0,0.0,0.0,0.0,0.0,0.0,0.0,0.0,0.0,0.0,0.0,0.0,0.0,1.9149,0.0,0.0,0.0,0.0,0.0,0.0,0.0,0.0,0.0,0.0,0.0,0.0,0.0,0.0,0.0,0.0,0.0,0.0,0.0,0.0,0.0,0.0,0.0,0.0,0.0,0.0,0.0,0.0,0.0,0.0,0.0,0.0,0.0,0.0,0.0,0.0,0.0,0.0,0.0,0.0,0.0,2.4008,2.7382,2.9775,2.998,3.035,3.0069,2.8783,2.7408,2.5965,2.4417,0.0,0.0,0.0,0.0,0.0,0.0,0.0,0.0,0.0,0.0,0.0,0.0,0.0,0.0,0.0,0.0,0.0,0.0,0.0,0.0,0.0,0.0,0.0,0.0,0.0,0.0,0.0,0.0,0.0,0.0,0.0,0.0,0.0,0.0,0.0,0.0,0.0,0.0,0.0,0.0,0.0,0.0,0.0,0.0,0.0,0.0,0.0,0.0,0.0,0.0,0.0,0.0,0.0,0.0,0.0,0.0,0.0,0.0,0.0,0.0,0.0,2.1333,0.0,0.0,0.0,0.0,0.0,0.0,0.0,0.0,0.0,0.0,0.0,0.0,0.0,0.0,0.0,0.0,0.0,0.0,0.0,0.0,0.0,0.0,0.0,0.0,0.0,0.0,0.0,0.0,0.0,0.0,0.0,0.0,0.0,0.0,0.0,0.0,0.0,0.0,0.0,0.0,2.4088,2.7295,2.9593,2.9864,3.1126,3.1085,2.8976,2.9267,2.8443,2.5865,2.4832,0.0,0.0,0.0,0.0,0.0,0.0,0.0,0.0,0.0,0.0,0.0,0.0,0.0,0.0,0.0,0.0,0.0,0.0,0.0,0.0,0.0,0.0,0.0,0.0,0.0,0.0,0.0,0.0,0.0,0.0,0.0,0.0,0.0,0.0,0.0,0.0,0.0,0.0,0.0,0.0,0.0,0.0,0.0,0.0,0.0,0.0,0.0,0.0,0.0,0.0,0.0,0.0,0.0,2.8469,2.9143,2.9817,3.0424,3.1303,3.2157,2.9132,2.7032,2.5603,0.0,0.0,0.0,0.0,0.0,0.0,0.0,0.0,0.0,0.0,0.0,0.0,0.0,0.0,0.0,0.0,0.0,0.0,0.0,0.0,0.0,0.0,0.0,0.0,0.0,2.1465,2.1173,0.0,0.0,0.0,0.0,0.0,0.0,0.0,0.0,0.0,0.0,0.0,0.0,2.4155,2.7281,2.9539,2.9887,3.2068,3.2429,2.9713,3.1441,3.1245,2.7972,2.6997,2.5915,0.0,0.0,0.0,0.0,0.0,0.0,0.0,0.0,0.0,0.0,0.0,0.0,0.0,0.0,0.0,0.0,0.0,0.0,0.0,0.0,0.0,0.0,0.0,0.0,0.0,0.0,0.0,0.0,0.0,0.0,0.0,0.0,2.4144,2.2701,0.0,0.0,0.0,0.0,0.0,0.0,0.0,0.0,0.0,0.0,0.0,0.0,0.0,0.0,3.0559,3.2224,3.2782,3.2281,3.4485,3.5048,3.4215,3.5664,3.681,3.7617,3.779,0.0,2.8976,2.6596,0.0,0.0,0.0,0.0,0.0,0.0,0.0,0.0,0.0,0.0,0.0,0.0,0.0,0.0,0.0,0.0,0.0,0.0,0.0,0.0,0.0,0.0,2.2182,2.5919,2.4669,2.3378,0.0,2.3166,1.9998,1.9693,0.0,0.0,0.0,0.0,0.0,0.0,0.0,0.0,2.4417,2.7187,2.929,2.9838,3.1856,3.2681,3.1454,3.2533,3.2819,3.1743,3.032,2.8885,2.7408,2.5642,0.0,0.0,0.0,0.0,0.0,0.0,0.0,0.0,0.0,0.0,0.0,0.0,0.0,0.0,0.0,0.0,0.0,0.0,0.0,0.0,0.0,0.0,0.0,0.0,0.0,0.0,0.0,0.0,0.0,2.4616,2.5477,2.3836,2.5635,2.6372,0.0,0.0,0.0,0.0,0.0,0.0,0.0,0.0,0.0,3.1929,3.3171,3.4177,3.4901,3.6372,3.7364,3.7957,3.9483,4.018,4.0143,4.1079,4.1831,4.2359,4.2271,4.0425,3.7167,3.2703,2.9387,2.6864,0.0,0.0,0.0,0.0,2.3937,2.4462,2.5177,2.5423,0.0,0.0,0.0,0.0,0.0,0.0,0.0,0.0,0.0,0.0,0.0,0.0,0.0,2.8654,2.8453,2.8155,2.9429,2.7512,2.516,0.0,2.2555,2.1484,2.0955,0.0,0.0,0.0,0.0,0.0,2.8279,3.059,3.2481,3.3613,3.5238,3.5522,3.3699,3.5469,3.5728,3.3551,3.2647,3.1685,3.0579,2.7742,2.5124,0.0,0.0,0.0,0.0,0.0,0.0,0.0,0.0,0.0,0.0,0.0,0.0,0.0,0.0,0.0,0.0,0.0,0.0,0.0,0.0,0.0,0.0,0.0,0.0,0.0,0.0,0.0,0.0,2.5679,2.6678,2.4882,2.6967,2.7848,0.0,0.0,0.0,0.0,0.0,0.0,3.1396,3.3616,3.521,3.5944,3.7136,3.8346,3.9555,4.0563,4.1757,4.3078,4.3797,4.4384,4.4875,4.5283,4.5553,4.5737,4.5223,4.4696,4.3652,3.7982,3.3962,3.1224,2.8952,2.7993,2.7908,2.8026,2.8369,2.8909,2.9611,2.9762,2.9575,2.9216,0.0,2.6957,2.5279,0.0,0.0,0.0,0.0,2.4872,2.6278,2.829,3.0353,3.198,3.2239,3.2301,3.2944,3.179,2.9957,0.0,2.5793,2.433,2.3733,0.0,0.0,0.0,0.0,2.9287,3.1478,3.3472,3.5134,3.6272,3.7887,3.7953,3.5738,3.7795,3.7991,3.5192,3.454,3.3891,3.3083,2.9746,2.7052,0.0,0.0,0.0,0.0,0.0,0.0,0.0,0.0,0.0,0.0,0.0,0.0,0.0,0.0,0.0,0.0,0.0,0.0,0.0,0.0,0.0,0.0,0.0,0.0,0.0,0.0,0.0,0.0,0.0,0.0,2.6191,2.8715,0.0,0.0,0.0,0.0,3.1043,3.2643,3.3909,3.4734,3.6677,3.853,4.0127,4.1357,4.3118,4.5443,4.5925,4.6384,4.6837,4.7259,4.7277,4.6965,4.7369,4.7351,4.7039,4.7369,4.6855,4.5388,4.0445,3.7625,3.6125,3.2965,3.1486,3.1222,3.1591,3.1997,3.2455,3.3255,3.3295,3.3077,3.3824,3.2552,3.0301,2.787,2.6895,0.0,0.0,2.7389,2.881,3.1721,3.2085,3.2774,3.7143,3.5834,3.446,3.7564,3.5546,3.2336,0.0,2.83,2.744,2.7036,0.0,2.7555,2.7555,2.9316,3.1001,3.2036,3.415,3.5533,3.5548,3.7804,3.866,3.7108,3.835,3.8653,3.7312,3.6145,3.5137,3.4348,3.2263,3.0063,2.767,2.6067,0.0,0.0,0.0,0.0,0.0,0.0,0.0,0.0,0.0,0.0,0.0,0.0,0.0,0.0,0.0,0.0,0.0,0.0,0.0,0.0,0.0,0.0,0.0,0.0,0.0,0.0,0.0,0.0,3.0699,3.3468,0.0,0.0,3.2883,3.3468,3.4422,3.6219,3.7868,3.9245,4.1464,4.3623,4.5635,4.6003,4.7121,4.917,4.8938,4.9038,4.9416,4.9544,4.9569,4.9416,4.9588,4.9397,4.9013,4.8909,4.8304,4.7283,4.5003,4.2601,4.0159,3.8215,3.737,3.7261,3.7426,3.7715,3.8155,3.8687,3.8438,3.7723,3.6659,3.5085,3.3211,3.1284,3.0614,3.0377,2.9834,3.1077,3.2868,3.4159,3.5526,3.6971,3.8602,3.8323,3.8014,3.9187,3.8197,3.6814,3.5862,3.3117,3.0797,3.0378,3.0612,3.0987,3.1232,3.2989,3.5077,3.7261,3.8474,3.9423,4.0198,4.0615,4.0407,3.9375,3.9225,3.8803,3.785,3.6402,3.5357,3.4807,3.2623,3.0268,2.7848,2.6284,2.3872,0.0,0.0,0.0,0.0,0.0,0.0,0.0,0.0,0.0,0.0,0.0,0.0,0.0,0.0,0.0,0.0,0.0,0.0,0.0,0.0,0.0,0.0,0.0,0.0,0.0,0.0,3.4056,3.4202,3.7081,3.848,3.7014,3.7162,3.7716,3.8658,4.0911,4.2768,4.3959,4.6224,4.8238,4.9865,5.0071,5.0664,5.1812,5.1544,5.1564,5.1822,5.1822,5.1928,5.212,5.199,5.1507,5.0789,5.0365,4.9644,4.8634,4.7992,4.636,4.4164,4.2549,4.1907,4.1889,4.176,4.1962,4.2292,4.2311,4.1779,4.0806,3.9025,3.7631,3.64,3.5045,3.47,3.4659,3.4192,3.5479,3.712,3.7618,3.9089,4.0471,4.0618,4.0788,4.0864,4.0735,4.0366,3.9958,3.9683,3.6961,3.4552,3.4101,3.436,3.4703,3.4977,3.6512,3.8403,4.0442,4.1304,4.1965,4.2644,4.2219,4.1522,4.0568,3.9683,3.8693,3.7465,3.6145,3.5027,3.4221,3.2514,3.0588,2.8449,2.6612,2.4355,2.1663,0.0,0.0,0.0,0.0,0.0,0.0,0.0,0.0,0.0,0.0,0.0,0.0,0.0,0.0,0.0,0.0,0.0,0.0,0.0,0.0,0.0,0.0,0.0,3.0479,3.4202,3.6842,3.6512,3.9338,4.0868,3.9781,4.1169,4.2627,4.384,4.6661,4.8452,4.8744,5.0767,5.2125,5.2613,5.3358,5.3692,5.3518,5.3865,5.407,5.407,5.407,5.4368,5.4917,5.4519,5.3583,5.2249,5.185,5.0888,4.9558,4.9129,4.8726,4.8127,4.5723,4.4788,4.4733,4.4347,4.4421,4.4623,4.3834,4.3026,4.2164,4.0953,4.0295,3.9817,3.8986,3.8985,3.9371,3.9854,4.0572,4.1341,4.2091,4.2604,4.3008,4.3393,4.3173,4.2788,4.2384,4.1999,4.1485,4.0696,3.9557,3.8563,3.8125,3.84,3.8655,3.8673,3.974,0.0,4.1121,4.2186,4.2751,4.2366,4.2311,4.1815,4.0607,3.9685,3.8327,3.6311,3.5412,3.4239,3.2625,3.2166,3.1194,2.9592,2.7223,2.5225,2.3671,0.0,0.0,0.0,0.0,0.0,0.0,0.0,0.0,0.0,0.0,0.0,0.0,0.0,0.0,0.0,0.0,0.0,0.0,0.0,0.0,0.0,0.0,3.605,3.5485,3.8274,4.0971,4.2601,4.4618,4.5881,4.5856,4.6661,4.77,4.8908,5.0446,5.1739,5.2669,5.3291,5.4143,5.5287,5.5133,5.5329,5.6,5.5669,5.5533,5.5533,5.5533,5.5607,5.5772,5.5658,5.5074,5.4138,5.3578,5.2621,5.1404,5.0531,4.9966,4.9416,4.7589,4.669,4.6434,4.6324,4.5975,4.5467,4.4659,4.4035,4.3448,4.2531,4.1984,4.165,4.1705,4.1372,4.1152,4.1852,4.2241,4.2406,4.2311,4.2824,4.3228,4.2751,4.2769,4.2788,4.2384,4.2219,4.2072,4.1852,4.128,4.0529,3.956,3.9705,4.0091,4.0366,4.0971,0.0,4.2692,4.2879,4.2865,4.2755,4.2755,4.202,4.0203,3.9263,3.7904,0.0,3.4459,3.3103,3.1783,3.105,3.0075,2.8751,2.6929,2.5779,0.0,0.0,0.0,0.0,0.0,0.0,0.0,0.0,0.0,0.0,0.0,0.0,0.0,0.0,0.0,0.0,0.0,0.0,0.0,0.0,0.0,0.0,3.8311,4.1193,4.2017,4.36,4.5334,4.7053,4.8686,4.9841,5.0309,5.1,5.1782,5.2664,5.382,5.4681,5.5142,5.5567,5.6267,5.7262,5.6933,5.6999,5.7533,5.7219,5.7024,5.7024,5.7024,5.7144,5.7383,5.7183,5.6651,0.0,5.5069,5.4138,5.3014,5.2066,5.1289,0.0,0.0,0.0,0.0,0.0,4.6947,4.6305,4.5668,4.5191,4.4696,4.3724,4.3136,4.2824,4.2879,4.2696,4.2604,4.3228,4.365,4.3852,4.3632,4.3903,4.4141,4.3687,4.3485,4.3283,4.2898,4.2678,4.2494,4.2329,0.0,0.0,4.1249,4.1084,4.1136,4.1522,4.2091,4.2692,4.3408,4.3448,4.3393,4.3393,4.2953,4.2112,4.0772,3.9557,0.0,0.0,0.0,3.2681,3.0958,3.013,0.0,0.0,0.0,2.7058,2.6682,0.0,0.0,0.0,2.1106,2.0615,0.0,0.0,0.0,0.0,0.0,0.0,0.0,0.0,0.0,0.0,0.0,0.0,0.0,0.0,0.0,0.0,4.2385,4.6145,4.8991,4.9591,4.991,5.0371,5.1758,5.288,5.3403,5.4224,5.4885,5.5359,5.661,5.7185,5.6792,0.0,0.0,0.0,0.0,5.8628,5.8472,5.8472,5.8462,5.8404,5.8404,5.8676,5.918,5.8769,5.8122,5.7225,5.6306,5.5387,5.4474,5.3533,5.2595,5.1558,4.9658,4.8891,4.8763,4.8029,4.7479,4.7039,4.6641,0.0,0.0,4.4549,4.3962,4.3628,4.3283,4.3393,4.3701,4.4127,4.4746,4.5297,4.5242,4.526,4.5278,4.5187,4.4618,4.3999,4.3573,4.3228,4.2861,4.2513,4.2439,4.2568,4.2975,4.2402,4.2014,4.2384,4.3136,4.3628,4.3628,4.3962,4.4146,4.4109,0.0,0.0,4.1687,4.0198,3.8418,3.6402,3.4733,3.2791,3.0571,2.9797,2.9522,2.9794,2.9449,2.8853,2.8037,2.8037,2.7447,2.6273,2.381,2.2571,0.0,0.0,0.0,0.0,0.0,0.0,0.0,0.0,0.0,0.0,0.0,0.0,0.0,0.0,0.0,4.218,4.6347,5.0122,5.3115,5.472,5.4949,5.317,5.3844,5.4565,5.5006,5.5655,5.6356,5.7134,5.7845,5.8519,5.9129,5.9338,0.0,6.0011,6.0021,5.9876,5.949,5.949,5.9362,5.9012,0.0,0.0,5.9207,5.9121,5.8753,5.8166,5.7194,5.6486,5.5889,5.4573,5.353,5.247,4.9895,4.8708,4.8396,4.8231,4.7717,4.7039,4.6641,4.6237,4.5737,4.4861,4.4751,4.493,4.4856,4.4655,0.0,4.4948,4.5187,4.5223,4.4898,4.5063,4.5132,4.4494,4.4196,4.3999,4.3573,4.3426,4.3353,4.3279,4.3261,4.3412,4.3797,4.3463,4.3169,4.3265,4.3962,4.4457,4.4457,4.4531,4.4457,4.4146,4.3907,4.3063,4.1378,4.0331,3.888,3.6805,3.4881,3.3286,3.2184,3.1999,3.1632,3.1045,3.0987,3.086,3.066,3.066,3.0533,3.0227,2.6994,2.4839,0.0,0.0,0.0,0.0,0.0,0.0,0.0,0.0,0.0,0.0,0.0,3.3868,0.0,0.0,4.3115,4.6507,5.0272,5.3424,5.539,5.6933,5.7185,5.5377,5.5894,5.6568,5.6975,5.7489,5.8159,5.9001,5.9304,5.9631,6.0069,6.008,6.0186,6.0372,6.0401,6.0303,6.008,6.008,6.0011,5.9805,5.959,5.9483,5.9501,5.9297,5.9062,5.88,5.8075,5.7538,5.7026,5.5371,5.408,5.2926,5.1291,5.0099,4.9248,4.8771,4.8212,4.7644,4.7222,4.6965,4.6635,4.5632,4.5448,4.559,4.559,4.5443,4.5393,4.5797,4.5883,4.5815,4.5412,4.5467,4.5498,4.51,4.4696,4.4402,4.4398,4.4086,4.387,4.4072,4.4109,4.4237,4.4618,4.4526,4.4325,4.4146,4.4623,4.5008,4.5008,4.5008,4.4911,4.471,4.4347,4.3613,4.2402,4.0623,3.8841,3.7189,3.5412,3.4129,3.3523,3.3303,3.2918,3.2313,3.2294,3.2294,3.2294,3.2294,3.2294,3.2261,3.0766,2.8858,0.0,0.0,0.0,0.0,0.0,0.0,0.0,0.0,3.2165,3.4829,3.6574,3.8403,4.0938,4.435,4.7678,5.0354,5.3529,5.5976,5.6836,5.8,5.8379,5.7344,5.784,5.8437,5.8811,5.921,5.9707,6.0342,6.0401,6.0431,6.0518,6.0538,6.0577,6.0635,6.0635,6.0607,6.0538,6.0538,6.0508,6.0401,6.0069,5.9922,5.9893,5.9483,5.9325,5.9297,5.8742,5.8215,5.7609,5.5965,5.4593,5.3545,5.2825,5.1806,5.0627,4.9688,4.9032,4.857,4.8238,4.7962,4.7594,4.66,4.6216,4.6122,4.6122,4.6122,4.6195,4.6531,4.6623,4.6549,4.6213,4.609,4.6035,4.6035,4.5412,4.4916,4.5223,4.4728,4.4311,4.4623,4.4769,4.4934,4.5242,4.537,4.5278,4.4879,4.515,4.5388,4.5315,4.537,4.5388,4.5315,4.471,4.4031,4.3316,4.1152,3.9225,3.785,3.6695,3.5742,3.5009,3.4752,3.4349,3.3799,3.3781,3.3781,3.3781,3.3781,3.3781,3.3799,3.4111,3.2655,2.9445,2.8539,2.8847,3.0456,3.0903,3.1799,0.0,0.0,3.6234,3.8116,4.0349,4.2312,4.3357,4.7269,5.0905,5.2664,5.5238,5.7277,5.8156,5.9074,5.9601,5.9473,5.9531,5.9746,6.0138,6.0245,6.0303,6.0372,6.0401,6.0577,6.1005,6.1015,6.1191,6.1543,6.1553,6.1367,6.1035,6.1015,6.0801,6.0401,6.0342,6.0314,6.0314,5.9922,5.9718,5.9687,5.8859,5.8039,5.718,5.6229,5.552,5.4922,5.3622,5.2795,5.2227,5.1283,5.0415,4.971,4.9673,4.8852,4.7854,4.7705,4.7332,4.6965,4.6965,4.6965,4.6984,4.702,4.7039,4.702,4.6984,4.669,4.6439,4.6439,4.5834,4.5242,4.5297,4.4953,4.4641,4.4678,4.5008,4.5242,4.5297,4.559,4.5705,4.5297,4.5572,4.57,4.5352,4.5608,4.57,4.5333,4.5223,4.4416,4.2586,4.2146,4.1115,3.9113,3.9557,3.9025,3.7153,3.7355,3.7007,3.5889,3.5852,3.5852,3.5852,3.5852,3.5852,3.587,3.5907,3.4252,3.1833,3.1305,0.0,0.0,3.4331,3.6031,3.8701,3.9875,4.1165,4.38,4.5992,4.7905,4.9488,5.1997,5.4273,0.0,5.7333,5.8566,5.918,5.957,5.9805,5.9805,5.9805,6.0069,6.0742,6.0801,6.0898,6.1133,6.1162,6.125,6.1426,6.1455,6.1543,6.1689,6.1953,6.1894,6.1455,6.1719,6.1601,6.1162,6.0918,6.0655,6.0372,5.998,5.9531,5.9015,5.8655,5.8156,5.7566,5.6933,5.6426,5.597,5.5109,5.439,5.3653,5.212,5.1163,5.0633,5.0337,4.9676,4.8859,4.8392,4.788,4.7442,4.7442,4.7442,4.7442,4.7442,4.7442,4.7406,4.7167,4.7149,4.721,4.721,4.6764,4.636,4.636,4.603,4.5742,4.5742,4.6067,4.6269,4.6054,4.6145,4.6127,4.57,4.5773,4.5828,4.5663,4.5792,4.5852,4.5663,4.5443,4.4856,4.3779,4.3045,4.2182,4.1079,4.0458,3.9872,3.9226,3.8656,3.8105,3.7612,3.7373,3.7135,3.6897,3.6897,3.6897,3.6897,3.6897,3.6192,3.3066,0.0,0.0,3.615,3.8283,4.0569,4.3072,4.4624,4.6337,4.9211,5.1069,5.2709,5.4414,5.5755,0.0,5.8102,5.8875,5.9512,5.9893,5.9776,5.9559,5.9297,5.9062,5.9266,6.0145,6.0742,6.124,6.1514,6.1631,6.1719,6.1719,6.1719,6.1719,6.1719,6.2158,6.2158,6.1719,6.2158,6.2158,6.1719,6.1397,6.1035,6.0577,6.0039,5.9414,5.8683,5.8683,5.8406,5.7867,5.7383,5.6894,5.6348,5.5801,5.5215,5.4512,5.2987,5.2068,5.1552,5.1221,5.0607,4.9883,4.9299,4.8745,4.8305,4.8305,4.8207,4.8085,4.8085,4.7987,4.7791,4.7516,4.7644,4.7889,4.7889,4.7552,4.7277,4.7277,4.6855,4.6531,4.6635,4.68,4.6874,4.6714,4.6586,4.6439,4.625,4.603,4.5883,4.5883,4.5883,4.5883,4.5883,4.5627,4.526,4.4733,4.3889,4.3081,4.2347,4.1304,4.0662,4.0515,3.9612,3.9003,3.8765,3.8382,3.8033,3.7721,3.7721,3.7721,3.7721,3.7721,3.7721,0.0,0.0,3.5684,3.996,4.2617,4.5096,4.847,5.0226,5.165,5.3451,5.4857,5.5891,5.6426,5.7551,5.8566,5.9062,5.9512,5.9922,6.0314,5.9707,5.8887,5.8055,5.7214,5.7039,0.0,5.9883,6.1122,6.1122,6.1484,6.1719,6.1719,6.1719,6.1719,6.1719,6.2158,6.2158,6.1719,6.2158,6.2158,6.1719,6.1689,6.1484,6.1064,6.0186,5.957,5.918,5.918,5.8699,5.7867,5.7383,5.6692,5.5852,5.5039,5.4733,5.4629,5.4128,5.3381,5.2665,5.2645,5.1778,5.0666,5.0646,5.028,4.9814,4.9814,4.947,4.9076,4.9076,4.8663,4.8292,4.8274,4.8274,4.8292,4.8292,4.7956,4.7681,4.7681,4.7063,4.6623,4.7002,4.6788,4.6641,4.702,4.6745,4.6641,4.702,4.6397,4.5883,4.5883,4.5883,4.5883,4.5883,4.5883,4.5577,4.4769,4.4659,4.3962,4.2402,4.2604,4.2109,4.0549,4.0458,4.0033,3.9186,3.8783,3.8582,3.8563,3.8563,3.8563,3.8563,3.8563,3.8563,0.0,0.0,4.1504,4.498,4.7676,5.0176,5.2773,5.3881,5.4642,5.5547,5.5156,5.4701,5.4863,5.5488,5.6211,5.6914,5.88,6.0245,6.0372,6.0449,5.9618,5.7312,5.7012,0.0,0.0,0.0,0.0,6.1005,6.124,6.1543,6.2129,6.2158,6.2158,6.2158,6.2578,6.2431,6.1719,6.2158,6.2158,6.1689,6.1104,6.0752,6.0625,5.9794,5.918,5.8742,5.9062,5.8699,5.7926,5.8027,5.7551,5.6731,5.6465,5.584,5.5078,5.4922,5.4141,5.313,5.2812,5.2172,5.1416,5.0863,5.0348,4.9795,4.917,4.885,4.8636,4.8269,4.8048,4.7956,4.8237,4.8311,4.8311,4.8311,4.82,4.8011,4.7754,4.7705,4.7668,4.7516,4.7589,4.7644,4.7516,4.7387,4.724,4.713,4.6635,4.6201,4.592,4.5883,4.5883,4.5883,4.5883,4.5797,4.5522,4.5242,4.4746,4.3944,4.3265,4.2531,4.1724,4.0937,4.024,3.9689,3.9225,3.8875,3.86,3.86,3.86,3.86,3.86,3.86,0.0,4.209,4.6113,4.943,5.1894,5.3906,5.5605,5.6419,5.6731,5.6426,5.498,5.3613,5.2963,5.248,5.2578,5.3861,5.5833,5.7668,5.9046,5.9004,5.8262,5.6784,5.6289,0.0,0.0,0.0,0.0,6.0263,6.084,6.1416,6.2099,6.2158,6.2285,6.2598,6.2724,6.2519,6.1953,6.2246,6.2158,6.1689,6.0811,6.0401,6.0362,5.957,5.9051,5.8769,5.9062,5.8769,5.8113,5.8242,5.7851,5.7187,5.6848,5.6152,5.5293,5.5137,5.4453,5.356,5.3086,5.2529,5.1901,5.1519,5.097,5.0353,4.9902,4.9549,4.9179,4.8688,4.8364,4.8243,4.8331,4.8337,4.8324,4.8299,4.8311,4.8237,4.7956,4.7992,4.8029,4.7944,4.8017,4.8029,4.7919,4.7901,4.7717,4.7185,4.7002,4.6764,4.6379,4.6324,4.6269,4.6145,4.6127,4.6072,4.5902,4.5535,4.5187,4.4934,4.3925,4.3155,4.2751,4.1705,4.0901,4.0352,3.9887,3.939,3.882,3.882,3.8747,3.86,3.86,3.86,4.3144,4.6582,4.9512,5.3256,5.513,5.6262,5.7102,5.7863,5.791,5.6087,5.4277,5.2486,0.0,0.0,4.8245,5.0391,5.1304,5.308,5.6875,5.6015,5.5456,0.0,0.0,0.0,0.0,0.0,0.0,5.909,0.0,6.1269,6.1728,6.1787,6.2187,6.2968,6.2637,6.2393,6.2363,6.2363,6.2129,6.166,6.0811,6.0372,6.0342,5.9542,5.9207,5.9207,5.9207,5.8945,5.8476,5.8113,5.7683,5.7141,5.6321,5.5735,5.5312,5.4902,5.4473,5.3998,5.3619,5.2896,5.2207,5.2558,5.2104,5.1519,5.187,5.1396,5.0599,5.0122,4.9615,4.9077,4.8628,4.8506,4.8477,4.8404,4.8397,4.844,4.8403,4.8109,4.7938,4.8287,4.8017,4.7846,4.8212,4.8311,4.8029,4.7277,4.7479,4.7571,4.7167,4.7112,4.6947,4.6567,4.6512,4.6347,4.5957,4.5553,4.5315,4.5297,4.4581,4.3958,4.3518,4.2769,4.1962,4.1158,4.0772,4.0107,3.9243,3.9261,3.904,3.8637,3.8637,3.8637,4.6741,5.0781,5.4408,5.6413,5.7383,5.798,5.8555,5.7851,5.6308,5.3613,5.041,4.7285,0.0,0.0,0.0,4.9469,5.3685,0.0,5.9794,5.9735,0.0,0.0,0.0,5.6921,5.6868,5.7187,0.0,0.0,6.0372,6.1191,6.2607,6.2988,6.3115,6.2997,6.29,6.2539,6.1894,6.1894,6.166,6.125,6.0683,6.0245,5.9941,5.9442,5.9207,5.9207,5.9207,5.8945,5.8507,5.8769,5.8406,5.7703,5.7488,5.6941,5.6211,5.5755,5.5325,5.4922,5.4518,5.3795,5.2974,5.2447,5.209,5.1767,5.0877,5.0451,5.0218,4.9991,4.9541,4.9224,4.9691,4.9834,4.9753,4.943,4.9916,5.0291,4.9621,4.9639,4.961,4.899,4.8509,4.8182,4.8292,4.8311,4.8237,4.8011,4.8066,4.7882,4.7204,4.7112,4.7057,4.6965,4.6696,4.6457,4.6366,4.598,4.5608,4.5315,4.5113,4.4545,4.3536,4.3298,4.2656,4.1577,4.1448,4.0843,3.9726,4.0017,3.9795,3.904,3.904,3.904,5.2531,5.5367,5.7356,5.8652,5.9034,5.8683,5.7246,5.6015,5.3853,4.9125,4.5801,0.0,0.0,0.0,0.0,0.0,0.0,0.0,5.9286,5.9705,5.959,0.0,5.8973,0.0,5.8625,5.8828,5.9473,0.0,6.0694,6.1397,6.2909,6.3232,6.3349,6.329,6.293,6.2402,6.1719,6.1719,6.1601,6.1367,6.0918,6.0479,6.0069,5.9648,5.9355,5.9207,0.0,5.9062,5.88,5.8859,5.8496,5.7879,5.7683,5.7051,5.6269,5.5989,5.5638,5.5254,5.4824,5.4381,5.3853,5.3164,5.2676,5.2255,5.1717,5.1405,5.1196,5.0935,5.064,5.0483,5.0685,5.0742,5.0673,5.0422,5.0792,5.1075,5.0576,5.0646,5.0515,4.9555,4.8786,4.8385,4.8607,4.8657,4.8731,4.8972,4.9002,4.8854,4.8407,4.7918,4.7552,4.7387,4.7002,4.6696,4.6512,4.6145,4.5792,4.5572,4.5407,4.5003,4.4325,4.394,4.3353,4.2513,4.2329,4.1724,4.0699,4.0916,4.0584,3.9777,3.996,3.9942,5.8556,5.9525,5.9034,6.0215,5.998,5.8476,5.4759,5.3144,5.0532,4.381,0.0,3.8849,3.594,3.7716,4.0605,4.3574,0.0,5.3217,5.7703,5.8375,5.9138,6.1035,6.0625,6.0332,6.0782,6.0782,6.0957,6.1484,6.1484,6.1894,6.2939,6.3056,6.3223,6.3515,6.2744,6.2099,6.1719,6.1719,6.167,6.1601,6.1269,6.0859,6.0372,5.998,5.9601,5.9266,0.0,0.0,5.918,5.8769,5.8332,5.7937,5.7539,5.6868,5.6165,5.6106,5.5852,5.5488,5.5019,5.4805,5.4668,5.4037,5.3354,5.2851,5.313,5.2994,5.2637,5.2368,5.2197,5.2068,5.1675,5.1608,5.1599,5.1504,5.1568,5.1618,5.1504,5.1396,5.1044,5.0166,4.9288,4.8805,4.9219,4.9293,4.9422,4.9852,4.9882,4.9882,4.9882,4.9095,4.838,4.803,4.7515,4.7043,4.6724,4.6187,4.5883,4.5883,4.5572,4.5352,4.5297,4.4618,4.4031,4.3573,4.3228,4.2641,4.1797,4.1834,4.1448,4.0659,4.0974,4.0937,6.0361,6.0846,6.0225,6.0811,5.9297,5.6933,5.4147,5.0414,0.0,0.0,0.0,3.5,3.2699,3.555,3.9903,4.5019,0.0,0.0,0.0,0.0,6.1308,0.0,0.0,0.0,0.0,0.0,0.0,0.0,0.0,6.3164,6.3017,6.3349,6.3281,6.2657,6.2099,6.1777,6.1719,6.1719,6.1543,6.1191,6.1133,6.0859,6.0372,5.998,5.9765,5.9687,5.9355,0.0,5.918,5.9121,5.88,5.839,5.8304,5.7969,5.7507,5.7129,5.6926,5.6777,5.597,5.5462,5.4961,5.3437,5.3086,5.315,5.2525,5.25,5.2773,5.3072,5.2818,5.2492,5.2788,5.3109,5.3275,5.2929,5.3474,5.3885,5.3171,5.2367,5.1741,5.1545,5.1087,5.0591,5.0301,5.027,5.0181,4.9939,4.9882,4.9882,4.9882,4.9735,4.9593,4.9542,4.8458,4.7731,4.7657,4.6566,4.5883,4.5883,4.5828,4.5645,4.5315,4.5168,4.4746,4.4017,4.3925,4.3338,4.2201,4.2531,4.2274,4.1485,4.121,4.1228,6.1988,6.1885,6.0859,6.1308,5.9297,5.6015,5.143,0.0,0.0,0.0,0.0,3.1973,3.0742,3.4394,0.0,4.2383,0.0,0.0,0.0,0.0,0.0,0.0,0.0,0.0,0.0,0.0,0.0,0.0,0.0,6.3906,6.37,6.3466,6.3134,6.2744,6.207,6.1836,6.207,6.1836,6.1601,6.1397,6.1397,6.1045,6.0372,6.0215,5.9893,5.9473,5.9297,0.0,5.9207,5.9207,5.8917,5.848,5.8262,5.791,5.748,5.7051,5.6894,5.6797,5.6126,5.5501,5.4805,5.375,5.3535,5.3633,5.3223,5.3217,5.3412,5.3652,5.3508,5.3318,5.3556,5.375,5.3866,5.3653,5.3975,5.4219,5.3789,5.295,5.2262,5.2262,5.1687,5.1207,5.1242,5.1229,5.1176,5.105,5.1042,5.0965,5.0709,5.069,5.0495,4.9975,4.8907,4.8158,4.7918,4.7073,4.6479,4.6243,4.6219,4.6127,4.592,4.5517,4.5113,4.4728,4.4531,4.4127,4.354,4.3742,4.3522,4.2953,4.2751,4.2659,6.3046,6.2581,6.1298,6.1514,5.9015,5.4902,4.8734,4.3945,0.0,0.0,0.0,2.9721,2.9487,0.0,3.6758,0.0,4.4121,4.9394,0.0,0.0,0.0,0.0,0.0,0.0,0.0,0.0,0.0,0.0,0.0,0.0,6.4023,6.3349,6.2997,6.2997,6.2138,6.1924,6.2393,6.1924,6.166,6.1572,6.1572,6.1162,6.0401,6.0303,5.9922,5.9325,5.9238,0.0,0.0,5.9207,5.8917,5.848,5.8262,5.784,5.7305,5.7019,5.6797,5.666,5.6204,5.5586,5.4902,5.4525,5.4154,5.3861,5.3861,5.392,5.3998,5.3998,5.3998,5.4017,5.4115,5.4213,5.4271,5.4271,5.4213,5.4115,5.4017,5.3439,5.2908,5.2908,5.2309,5.1889,5.217,5.222,5.2216,5.2236,5.2226,5.209,5.1733,5.1597,5.1265,5.0457,4.9499,4.8722,4.8242,4.7676,4.7147,4.6665,4.6549,4.6494,4.6494,4.581,4.5388,4.5297,4.5008,4.4788,4.4696,4.4696,4.4531,4.4237,4.4146,4.398,6.3046,6.2802,6.1572,6.125,5.7715,5.2905,4.7637,0.0,0.0,0.0,0.0,0.0,2.8893,0.0,0.0,0.0,0.0,4.5623,5.3119,5.6672,0.0,0.0,0.0,0.0,0.0,0.0,0.0,0.0,0.0,0.0,6.3143,6.3026,6.2997,6.2997,6.2138,6.1924,6.2393,6.1924,6.1514,6.1152,6.1152,6.087,6.0372,6.0011,5.9805,5.9718,5.9355,0.0,0.0,5.9207,5.8917,5.8538,5.8945,5.8582,5.782,5.7808,5.7527,5.709,5.668,5.6211,5.5794,5.5755,5.4707,5.3443,5.3443,5.3711,5.3998,5.3998,5.3998,5.4095,5.4531,5.4902,5.5195,5.5195,5.4902,5.4512,5.4095,5.3927,5.3863,5.3863,5.3818,5.3636,5.3328,5.325,5.3119,5.2715,5.2656,5.2637,5.2598,5.2266,5.2007,5.1908,5.0741,4.9756,4.9206,4.8346,4.7617,4.7081,4.6714,4.6494,4.6494,4.609,4.5663,4.5315,4.526,4.5081,4.4696,4.4696,4.4678,4.4623,4.4274,4.4274,6.1166,6.2169,6.2012,6.1572,5.7129,5.1582,4.6638,0.0,0.0,0.0,2.8509,2.8138,2.8775,2.9766,3.1543,3.4824,3.6953,4.0254,4.6189,4.941,5.3359,0.0,0.0,0.0,0.0,0.0,0.0,0.0,0.0,0.0,6.3457,6.3407,6.3407,6.3407,6.2578,6.2334,6.2754,6.207,6.1631,6.1455,6.1455,6.1094,6.0372,6.0245,5.9893,5.9442,5.9266,0.0,0.0,5.9207,5.909,5.8914,5.8828,5.8566,5.8203,5.7676,5.7363,5.7148,5.6738,5.6133,5.5579,5.5833,5.5137,5.4225,5.4479,5.4668,5.4779,5.4779,5.4609,5.4453,5.4655,5.4609,5.4525,5.4525,5.4414,5.4213,5.4037,5.3998,5.3998,5.3998,5.3998,5.3939,5.3789,5.3769,5.3613,5.3189,5.313,5.3033,5.2754,5.2558,5.2461,5.2461,5.1294,5.032,4.9814,4.9106,4.848,4.7971,4.7508,4.7112,4.6874,4.647,4.6067,4.5663,4.5645,4.5572,4.543,4.543,4.543,4.5412,4.5003,4.4893,5.8582,6.0859,6.2041,6.1455,5.6484,5.0527,0.0,0.0,0.0,2.9805,2.8451,2.8041,2.8633,2.9434,3.0561,3.2148,3.3984,3.6875,4.1718,4.4647,4.875,0.0,0.0,0.0,0.0,0.0,0.0,0.0,0.0,0.0,0.0,6.3808,6.3839,6.3691,6.2862,6.2539,6.2812,6.208,6.1631,6.1514,6.1397,6.0928,6.0225,6.0098,5.9746,5.9207,0.0,0.0,0.0,5.9207,5.9207,5.9168,5.8828,5.8555,5.8262,5.7766,5.7363,5.6992,5.6836,5.6289,5.5742,5.6009,5.5723,5.5299,5.5449,5.5312,5.5117,5.5117,5.5,5.4863,5.4863,5.4629,5.4388,5.4388,5.4193,5.4037,5.4173,5.4095,5.3998,5.3998,5.3998,5.3998,5.3998,5.3998,5.39,5.3638,5.358,5.3457,5.3144,5.2988,5.291,5.291,5.1875,5.0998,5.0513,4.996,4.9374,4.8715,4.8213,4.7741,4.7295,4.6788,4.6366,4.6067,4.5957,4.5883,4.5883,4.5883,4.5883,4.5883,4.5608,4.5407,5.5364,5.8769,6.1514,6.0635,5.5579,4.9805,0.0,0.0,3.3234,3.0224,2.89,2.8295,2.8301,2.9018,3.0014,3.1313,3.332,3.6523,4.1679,4.4647,4.7754,0.0,0.0,0.0,0.0,0.0,0.0,0.0,0.0,0.0,0.0,6.4082,6.411,6.3721,6.2862,6.2393,6.2393,6.1953,6.1484,6.1094,6.0635,6.0215,5.9776,5.9386,5.9207,0.0,0.0,0.0,0.0,5.9207,5.9207,5.9207,5.918,5.8652,5.7937,5.8332,5.7695,5.664,5.707,5.6933,5.6609,5.6582,5.6609,5.6484,5.6028,5.5351,5.4713,5.4713,5.498,5.5293,5.5293,5.5293,5.5293,5.5293,5.4622,5.4115,5.459,5.4336,5.3998,5.3998,5.3998,5.3998,5.3998,5.3998,5.3998,5.3998,5.3998,5.3998,5.3998,5.3633,5.3384,5.3384,5.2603,5.1873,5.1325,5.0921,5.0231,4.915,4.8704,4.8236,4.7723,4.6934,4.6494,4.6494,4.6109,4.5883,4.5883,4.5883,4.5883,4.5883,4.5907,4.5682,4.9668,5.2422,5.3906,5.2441,4.8532,4.4276,4.1289,0.0,3.1719,2.957,2.8691,2.8314,2.8314,2.8998,3.0288,3.2446,3.3867,3.5898,0.0,0.0,0.0,5.1973,0.0,0.0,0.0,0.0,0.0,0.0,0.0,0.0,0.0,6.3839,6.3839,6.3691,6.2862,6.2393,6.2393,6.166,6.1367,6.1484,6.1074,6.0635,6.0215,5.9776,0.0,0.0,0.0,0.0,0.0,5.9207,5.9207,5.9207,5.9207,5.9032,5.8758,5.8566,5.8242,5.7824,5.7363,5.7129,5.6973,5.668,5.6609,5.6504,5.6028,5.5716,5.541,5.4844,5.498,5.5234,5.4961,5.4883,5.4961,5.5234,5.4883,5.4512,5.4674,5.4336,5.3998,5.3998,5.3998,5.3998,5.3998,5.3998,5.4115,5.4433,5.4219,5.4213,5.4798,5.4277,5.3926,5.4264,5.3502,5.2665,5.1907,5.1142,5.0397,4.9686,4.9161,4.8558,4.7723,4.7185,4.691,4.691,4.6232,4.6054,4.6311,4.603,4.5883,4.5883,4.5883,4.5828,0.0,4.7754,4.957,4.8476,4.5058,0.0,0.0,0.0,3.0825,2.9224,2.8574,2.8314,2.8314,2.8998,3.017,3.1899,3.3324,0.0,0.0,0.0,0.0,0.0,0.0,0.0,0.0,0.0,0.0,0.0,0.0,0.0,0.0,6.3789,6.3613,6.3457,6.2754,6.2158,6.166,6.1298,6.1133,6.1221,6.0801,6.0449,6.0138,5.9765,0.0,0.0,0.0,0.0,0.0,5.9207,5.9207,5.9207,5.9207,5.909,5.8917,5.88,5.8449,5.7969,5.7598,5.7246,5.6933,5.668,5.6465,5.6289,5.5989,5.5677,5.5364,5.5019,5.5117,5.5293,5.5176,5.5156,5.5176,5.5293,5.498,5.4752,5.4883,5.459,5.4291,5.4466,5.4486,5.4486,5.4486,5.4486,5.4583,5.4883,5.4551,5.4505,5.5215,5.4681,5.4433,5.4883,5.4166,5.3398,5.2871,5.1838,5.0863,4.995,4.9587,4.8959,4.7986,4.7534,4.7332,4.7332,4.669,4.647,4.6733,4.6305,4.6054,4.5883,4.5883,4.5883,0.0,0.0,0.0,0.0,0.0,0.0,0.0,0.0,0.0,2.9166,2.8574,2.8334,2.8418,2.9057,2.978,0.0,0.0,0.0,0.0,4.2422,0.0,0.0,0.0,0.0,0.0,0.0,0.0,0.0,0.0,0.0,0.0,6.3848,6.3407,6.2909,6.2519,6.1719,6.049,6.0859,6.0859,6.0431,6.0011,5.9805,5.9776,5.9383,0.0,0.0,0.0,0.0,0.0,5.9207,5.9207,5.9207,5.9207,5.8945,5.8597,5.9004,5.8359,5.7363,5.7722,5.7312,5.6648,5.6628,5.6289,5.5891,5.5872,5.5371,5.487,5.5195,5.5332,5.5423,5.5813,5.5911,5.5813,5.5423,5.5058,5.4863,5.5234,5.498,5.483,5.5234,5.5254,5.5234,5.5254,5.5254,5.5273,5.5312,5.498,5.4883,5.5332,5.5039,5.4922,5.5312,5.4622,5.4095,5.4017,5.2871,5.1535,5.0081,4.9964,4.9477,4.841,4.7925,4.7699,4.7736,4.7351,4.7112,4.7057,4.6696,4.6292,4.5883,4.5883,4.5883,0.0,0.0,0.0,0.0,0.0,0.0,0.0,0.0,0.0,0.0,0.0,2.8607,2.957,2.9662,3.038,0.0,0.0,0.0,0.0,0.0,0.0,0.0,0.0,0.0,0.0,0.0,0.0,0.0,0.0,0.0,0.0,6.3232,6.2812,6.2021,6.1601,6.1416,6.1397,6.084,6.0694,6.0947,6.0156,5.9805,5.9776,5.9383,0.0,0.0,0.0,0.0,5.9207,5.9207,5.9207,5.9207,5.9207,5.9121,5.9004,5.8769,5.8476,5.8097,5.7558,5.7226,5.7012,5.668,5.6289,5.5852,5.5521,5.5521,5.556,5.5371,5.5521,5.5774,5.5891,5.5911,5.5891,5.5774,5.5677,5.556,5.5351,5.498,5.483,5.5234,5.4759,5.4408,5.4765,5.4824,5.4941,5.5254,5.5215,5.543,5.6191,5.5898,5.5657,5.5755,5.5579,5.5072,5.4076,5.31,5.2085,5.1037,5.0579,4.9908,4.8947,4.8122,4.7846,4.8139,4.7754,4.7259,4.6641,4.6549,4.6292,4.5883,4.5883,4.5883,2.9272,3.1191,3.3066,0.0,0.0,0.0,0.0,0.0,0.0,0.0,0.0,2.8627,2.9721,0.0,0.0,0.0,0.0,0.0,0.0,0.0,0.0,0.0,0.0,0.0,0.0,0.0,0.0,0.0,0.0,0.0,0.0,6.293,6.2519,6.2041,6.1426,6.1015,6.0811,6.0362,6.0156,6.0215,5.9746,5.9531,5.9531,5.9297,5.9207,0.0,0.0,0.0,5.9207,5.9207,5.9207,5.9207,5.9207,5.9207,5.9149,5.8683,5.839,5.8144,5.7441,5.709,5.6894,5.666,5.6426,5.6126,5.5696,5.5872,5.6094,5.5488,5.5442,5.5716,5.6133,5.623,5.6165,5.595,5.5911,5.5852,5.5618,5.5384,5.539,5.582,5.5527,5.5273,5.5534,5.5573,5.5651,5.5859,5.5723,5.5813,5.6504,5.6184,5.5989,5.6211,5.6028,5.5638,5.4935,5.4101,5.2957,5.1402,5.0977,5.0283,4.9163,4.854,4.8267,4.8311,4.8109,4.7662,4.7063,4.6879,4.6562,4.6182,4.5999,4.5883,2.8613,3.0742,3.293,3.316,0.0,0.0,0.0,0.0,0.0,0.0,0.0,0.0,0.0,0.0,0.0,0.0,0.0,0.0,0.0,0.0,0.0,0.0,0.0,0.0,0.0,0.0,0.0,0.0,0.0,6.373,0.0,6.2812,6.2334,6.2217,6.1416,6.0625,5.9805,5.9805,5.9629,5.9297,5.9238,5.9207,5.9207,5.9207,5.9207,0.0,0.0,0.0,5.9207,5.9207,5.9207,5.9207,5.9207,5.9149,5.9051,5.8566,5.8144,5.7722,5.7265,5.6875,5.6609,5.6609,5.6609,5.6504,5.6028,5.6165,5.6328,5.5605,5.5449,5.5664,5.6406,5.6543,5.6387,5.5989,5.5911,5.5911,5.5911,5.5911,5.6028,5.6504,5.6484,5.6406,5.6465,5.6484,5.6504,5.6609,5.6328,5.6262,5.6745,5.6497,5.6399,5.666,5.6406,5.6087,5.5833,5.5195,5.3858,5.1633,5.1262,5.046,4.904,4.8939,4.8708,4.8311,4.8311,4.8084,4.7699,4.7351,4.6984,4.6586,4.6182,4.6012,3.0098,3.186,3.2641,2.9883,0.0,0.0,0.0,0.0,0.0,0.0,0.0,0.0,0.0,0.0,0.0,0.0,0.0,0.0,0.0,0.0,0.0,0.0,0.0,0.0,0.0,0.0,0.0,0.0,0.0,0.0,6.3164,6.2656,6.2041,6.1308,6.0801,6.0284,5.9805,5.9805,5.9765,5.9707,5.9355,5.9207,5.9207,5.9207,5.9207,0.0,0.0,5.9207,5.9207,5.9207,5.9207,5.9207,5.9207,5.8945,5.8566,5.8144,5.7695,5.7246,5.6836,5.664,5.6609,5.6609,5.6609,5.6504,5.6028,5.595,5.5989,5.5852,5.6094,5.6426,5.657,5.6308,5.5989,5.593,5.5911,5.5911,5.5911,5.5911,5.6028,5.6504,5.5996,5.5625,5.595,5.6009,5.6126,5.6523,5.6836,5.7168,5.7644,5.7922,5.7836,5.7187,5.7383,5.6999,5.5527,5.5293,5.4396,5.2435,5.1611,5.0335,4.8496,4.8739,4.8708,4.8311,4.8311,4.8084,4.7699,4.7644,4.7406,4.7002,4.6604,4.658,2.8939,3.0229,3.125,3.082,0.0,0.0,0.0,0.0,0.0,0.0,0.0,0.0,0.0,0.0,0.0,0.0,0.0,0.0,0.0,0.0,0.0,0.0,0.0,0.0,0.0,0.0,0.0,0.0,0.0,0.0,6.2695,6.2275,6.1836,6.1426,6.0752,6.0303,6.0128,5.9687,5.9473,5.9473,5.9297,5.9207,5.9207,5.9207,5.9207,5.9207,0.0,5.9207,5.9207,5.9207,5.9207,5.9207,5.9207,5.8914,5.8421,5.7762,5.7246,5.6855,5.666,5.6609,5.6609,5.6609,5.6609,5.6504,5.6028,5.6067,5.623,5.597,5.6048,5.6289,5.6523,5.6445,5.6289,5.6289,5.6289,5.6289,5.6289,5.6289,5.6348,5.657,5.6445,5.6328,5.6289,5.668,5.6973,5.6933,5.7285,5.7664,5.7879,5.8055,5.7937,5.7285,5.7383,5.7012,5.5735,5.5403,5.4481,5.2565,5.1365,5.0276,4.932,4.9013,4.8793,4.8634,4.8396,4.8219,4.8011,4.7791,4.7607,4.7424,4.7002,4.6929,2.821,2.9149,3.0503,0.0,0.0,0.0,0.0,0.0,0.0,0.0,0.0,0.0,0.0,0.0,0.0,0.0,0.0,0.0,0.0,0.0,0.0,0.0,0.0,0.0,0.0,0.0,0.0,0.0,0.0,0.0,6.2422,6.1953,6.1601,6.1397,6.0752,6.0303,6.0128,5.9512,5.9207,5.9207,5.9207,5.9207,5.9207,5.9207,5.9207,5.9207,5.9207,5.9149,5.9034,5.9149,5.9062,5.8887,5.9004,5.8683,5.8097,5.7344,5.6855,5.6609,5.6609,5.6609,5.6609,5.6609,5.6609,5.6523,5.6165,5.6308,5.655,5.6165,5.6067,5.6145,5.6504,5.6504,5.6465,5.6562,5.6504,5.6484,5.668,5.6738,5.6758,5.6882,5.7148,5.7265,5.696,5.7449,5.7793,5.7531,5.7793,5.8102,5.8172,5.8219,5.7996,5.7422,5.7363,5.6933,5.5852,5.5129,5.4097,5.2516,5.1138,5.0253,4.9973,4.9452,4.9122,4.9056,4.8634,4.8432,4.8432,4.8054,4.7827,4.7827,4.7424,4.7295,2.9687,3.0684,3.1684,3.3031,0.0,0.0,3.674,0.0,0.0,0.0,0.0,0.0,0.0,0.0,0.0,0.0,0.0,0.0,0.0,0.0,0.0,0.0,0.0,0.0,0.0,0.0,0.0,0.0,0.0,0.0,6.2393,6.1953,6.1338,6.0518,6.0431,6.0039,5.9297,5.9238,5.9207,5.9207,5.9207,5.9207,5.9207,5.9207,5.9207,5.9207,5.9207,5.8945,5.8566,5.9004,5.8711,5.8043,5.839,5.8039,5.7246,5.6797,5.6621,5.6609,5.6609,5.6609,5.6609,5.6609,5.6609,5.6582,5.6543,5.6562,5.6582,5.6543,5.6543,5.657,5.6582,5.6289,5.6048,5.6484,5.6269,5.6165,5.6965,5.7168,5.7285,5.7722,5.782,5.784,5.7793,5.7867,5.8016,5.8359,5.8449,5.8625,5.9051,5.911,5.8769,5.7937,5.7867,5.7175,5.5488,5.3978,5.2959,5.2446,5.1318,5.0329,4.9569,4.9837,4.9837,4.9459,4.9074,4.8873,4.8873,4.8451,4.8274,4.8255,4.7827,4.7846,2.89,3.0444,3.2285,3.3828,0.0,0.0,0.0,0.0,0.0,0.0,0.0,0.0,0.0,0.0,0.0,0.0,0.0,0.0,0.0,0.0,0.0,0.0,0.0,0.0,0.0,0.0,0.0,0.0,0.0,0.0,0.0,6.1543,6.1191,6.0859,6.0303,5.9883,5.959,5.9325,5.9207,5.9207,5.9207,5.9207,5.9207,5.9207,5.9207,5.9207,5.9207,5.8945,5.8507,5.8683,5.8418,5.7879,5.7734,5.7473,5.7168,5.6738,5.6609,5.6609,5.6609,5.6609,5.6609,5.6609,5.6609,5.6609,5.6609,5.6609,5.6609,5.6609,5.6609,5.6609,5.6609,5.6465,5.6387,5.657,5.666,5.6789,5.7148,5.7422,5.7703,5.7867,5.8113,5.8203,5.7937,5.8348,5.8652,5.8507,5.8742,5.8887,5.8769,5.8769,5.8437,5.7558,5.6765,5.6113,5.5696,5.4104,5.3009,5.2787,5.1478,5.0552,5.0266,5.0149,5.0039,4.9874,4.9214,4.8884,4.8884,4.8487,4.8311,4.8311,4.8121,4.8139,2.7969,2.9408,3.1416,0.0,0.0,0.0,0.0,0.0,0.0,0.0,0.0,0.0,0.0,0.0,0.0,0.0,0.0,0.0,0.0,0.0,0.0,0.0,0.0,0.0,0.0,0.0,0.0,0.0,0.0,0.0,0.0,6.1035,6.0829,6.0683,6.0098,5.9746,5.9601,5.9355,5.9207,5.9207,5.9207,5.9207,5.9207,5.9207,5.9207,5.9207,5.9207,5.8875,5.832,5.8449,5.8183,5.7644,5.7187,5.7012,5.6973,5.6699,5.6609,5.6609,5.6609,5.6609,5.6609,5.6609,5.6609,5.6609,5.6609,5.6609,5.6609,5.6609,5.6609,5.6609,5.6609,5.6609,5.6609,5.6609,5.6914,5.7246,5.7383,5.7762,5.8113,5.8289,5.8535,5.8625,5.8348,5.8817,5.909,5.8769,5.9004,5.9062,5.8769,5.8711,5.839,5.7519,5.6387,5.5762,5.5891,5.4615,5.3567,5.3014,5.1839,5.1036,5.0699,5.0442,5.0296,5.0296,4.9489,4.9093,4.9093,4.8561,4.8311,4.8311,4.8311,4.8311,2.7253,2.7676,0.0,0.0,0.0,0.0,0.0,0.0,0.0,0.0,0.0,0.0,0.0,0.0,0.0,0.0,0.0,0.0,0.0,0.0,0.0,0.0,0.0,0.0,0.0,0.0,0.0,0.0,0.0,0.0,0.0,6.0401,6.0197,5.9805,5.9805,5.959,5.9207,5.9207,5.918,5.918,5.918,5.918,5.9207,5.9207,5.9207,5.9207,5.9207,5.8699,5.7937,5.832,5.798,5.7141,5.6758,5.6609,5.6609,5.6609,5.6609,5.6609,5.6609,5.6609,5.6609,5.6609,5.6609,5.6609,5.6609,5.6609,5.6609,5.6609,5.6609,5.6609,5.6609,5.6609,5.6609,5.6609,5.6914,5.7324,5.7808,5.8203,5.8625,5.909,5.918,5.918,5.918,5.918,5.918,5.918,5.9207,5.9207,5.918,5.918,5.8828,5.7984,5.7117,5.6406,5.595,5.5408,5.4506,5.3097,5.2518,5.1757,5.0743,5.0699,5.0699,5.0699,4.9918,4.9514,4.9514,4.8714,4.8311,4.8311,4.8311,4.8311,2.8223,0.0,0.0,0.0,0.0,0.0,0.0,0.0,0.0,0.0,0.0,0.0,0.0,0.0,0.0,0.0,0.0,0.0,0.0,0.0,0.0,0.0,0.0,0.0,0.0,0.0,0.0,0.0,0.0,0.0,0.0,6.0128,5.9922,5.9805,5.9531,5.9325,5.9207,5.8859,5.8711,5.8711,5.8418,5.8594,5.9207,5.9207,5.9207,5.918,5.8859,5.8406,5.7867,5.7363,5.7012,5.6758,5.664,5.6609,5.6609,5.6609,5.6609,5.6609,5.6609,5.6609,5.6609,5.6609,5.6609,5.6609,5.6609,5.6609,5.6609,5.6609,5.6609,5.6609,5.6609,5.6609,5.6609,5.6609,5.6914,5.7324,5.7808,5.7996,5.8203,5.8625,5.8476,5.8289,5.8289,5.8507,5.8711,5.8711,5.9004,5.8993,5.8348,5.7762,5.7273,5.7019,5.6465,5.6165,5.6387,5.5681,5.4919,5.4125,5.3244,5.2148,5.0769,5.0699,5.0699,5.0699,5.0186,4.9911,4.9911,4.9104,4.8726,4.8726,4.8414,4.8311,2.9316,0.0,0.0,3.7809,0.0,0.0,0.0,0.0,0.0,0.0,0.0,0.0,0.0,0.0,0.0,0.0,0.0,0.0,0.0,0.0,0.0,0.0,0.0,0.0,0.0,0.0,0.0,0.0,0.0,0.0,0.0,5.9687,5.9542,5.9542,5.9149,5.8917,5.8917,5.8476,5.8262,5.8262,5.8016,5.8172,5.8699,5.8699,5.8769,5.8887,5.8262,5.7851,5.7586,5.6875,5.6609,5.6609,5.6609,5.6484,5.6328,5.6328,5.6328,5.6328,5.6328,5.6445,5.6609,5.6609,5.6609,5.6609,5.6609,5.6609,5.6609,5.6609,5.6609,5.6609,5.6609,5.6609,5.6609,5.6609,5.6914,5.7285,5.7539,5.7762,5.7984,5.8203,5.8055,5.7898,5.7898,5.8113,5.832,5.848,5.8887,5.8903,5.7996,5.7429,5.7058,5.6855,5.6445,5.6308,5.6589,5.6113,5.5505,5.4777,5.3803,5.2698,5.1355,5.0902,5.0699,5.0699,5.0314,5.0112,5.0112,4.9452,4.9074,4.8884,4.8653,4.8451,3.0424,0.0,0.0,4.2037,4.676,0.0,0.0,0.0,0.0,0.0,0.0,0.0,0.0,0.0,0.0,0.0,0.0,0.0,0.0,0.0,0.0,0.0,0.0,0.0,0.0,0.0,0.0,0.0,0.0,0.0,0.0,5.9575,5.9456,5.9456,5.8802,5.8449,5.8449,5.8027,5.784,5.784,5.7742,5.7742,5.7781,5.7867,5.8055,5.8273,5.7473,5.7109,5.7012,5.666,5.6504,5.6465,5.6465,5.625,5.5911,5.5872,5.5852,5.5852,5.5852,5.6106,5.6511,5.6504,5.6589,5.6582,5.6543,5.6589,5.6582,5.6543,5.6589,5.6609,5.6609,5.6609,5.6609,5.6609,5.6875,5.7168,5.718,5.7527,5.7808,5.7879,5.784,5.7808,5.782,5.784,5.7996,5.8421,5.8828,5.8817,5.8055,5.7879,5.7683,5.7246,5.6836,5.6609,5.6609,5.6609,5.6193,5.5234,5.4294,5.3304,5.2328,5.1266,5.0699,5.0699,5.0332,5.0149,5.0149,4.9746,4.9368,4.8994,4.8921,4.8708,0.0,3.4027,0.0,0.0,5.2772,6.1376,0.0,0.0,0.0,0.0,0.0,0.0,0.0,0.0,0.0,0.0,0.0,0.0,0.0,0.0,0.0,0.0,0.0,0.0,0.0,0.0,0.0,0.0,0.0,0.0,6.4551,6.2489,6.1325,6.1325,5.917,5.8027,5.8027,5.7578,5.7344,0.0,5.666,5.6523,5.6902,5.7586,5.7566,5.6992,5.6797,5.6348,5.5742,5.595,5.5852,5.5586,5.5586,5.5696,5.5872,5.554,5.5423,5.5423,5.5423,5.5508,5.5644,5.595,5.6308,5.6523,5.6145,5.6308,5.6504,5.6145,5.6328,5.6609,5.6609,5.6609,5.6609,5.6609,5.6687,5.6816,5.7129,5.7031,5.7078,5.7762,5.7351,5.6999,5.7305,5.7344,5.7617,5.839,5.832,5.823,5.8332,5.7766,5.7324,5.7226,5.6836,5.6609,5.6609,5.6609,5.6353,5.5745,5.4728,5.3765,5.2869,5.1448,5.0699,5.0699,5.0607,5.057,5.057,5.0167,4.9929,4.9837,4.9177,4.8848,0.0,0.0,0.0,5.1763,0.0,6.744,6.9826,0.0,0.0,0.0,0.0,0.0,0.0,0.0,0.0,0.0,0.0,0.0,0.0,0.0,0.0,0.0,0.0,0.0,0.0,0.0,0.0,0.0,0.0,6.611,6.563,6.3263,6.1692,6.1251,5.8665,5.7175,5.6933,5.6523,5.6191,5.5996,5.5547,5.5351,5.539,5.6465,5.6582,5.5957,5.5762,5.541,5.5019,5.5254,5.5195,5.5,5.5,5.5019,5.4974,5.4759,5.4681,5.4701,5.4941,5.5137,5.5332,5.554,5.5781,5.5976,5.5911,5.6067,5.6269,5.625,5.6406,5.6609,5.6609,5.6609,5.6609,5.6609,5.6609,5.664,5.6855,5.6738,5.6719,5.7195,5.6921,5.6687,5.6875,5.707,5.7336,5.7805,5.7879,5.782,5.7617,5.7363,5.7129,5.6933,5.6719,5.6609,5.6609,5.6609,5.6484,5.625,5.5258,5.4272,5.3381,5.2111,5.1195,5.0725,5.0699,5.0699,5.0699,5.0479,5.0296,5.0094,4.9672,4.9269,0.0,3.9324,4.7295,6.0067,6.6741,0.0,7.1809,7.2436,0.0,0.0,0.0,0.0,0.0,0.0,0.0,0.0,0.0,0.0,0.0,0.0,0.0,0.0,0.0,0.0,0.0,0.0,0.0,0.0,0.0,6.6547,6.5711,6.3771,6.2084,6.0845,5.8276,5.6689,5.6202,5.5528,5.5019,5.4713,5.4557,5.4219,5.3803,5.4798,5.513,5.4961,5.4635,5.444,5.4361,5.444,5.444,5.4336,5.4336,5.416,5.3881,5.3881,5.3881,5.3959,5.4414,5.4805,5.5098,5.5176,5.5254,5.5351,5.5599,5.5794,5.597,5.6289,5.6465,5.6609,5.6609,5.6609,5.6609,5.6609,5.6609,5.6609,5.6609,5.6609,5.6601,5.668,5.6699,5.6699,5.6699,5.6914,5.7148,5.7305,5.7586,5.7547,5.6921,5.7051,5.707,5.6738,5.6621,5.6609,5.6609,5.6609,5.6609,5.6609,5.5718,5.4808,5.3888,5.2852,5.1838,5.0855,5.0751,5.0699,5.0699,5.0699,5.0534,5.0204,5.0131,4.9746,3.0932,0.0,5.153,0.0,6.6169,6.9436,0.0,0.0,7.2964,0.0,0.0,0.0,0.0,0.0,0.0,0.0,0.0,0.0,0.0,0.0,0.0,0.0,0.0,0.0,0.0,0.0,0.0,0.0,7.0837,6.9722,6.7727,6.6451,6.4645,6.2143,5.9528,5.7915,5.7362,5.5668,5.4746,5.4694,5.3932,5.3326,5.2891,5.2676,5.2994,5.3638,5.3605,5.3345,5.3008,5.3404,5.3345,5.2969,5.2969,5.3189,5.3482,5.3482,5.3482,5.3541,5.3965,5.4134,5.4232,5.4648,5.5019,5.5254,5.4941,5.5351,5.5852,5.554,5.6015,5.6609,5.6609,5.6609,5.6609,5.6609,5.6609,5.6609,5.6609,5.6609,5.6699,5.7051,5.7129,5.7129,5.7129,5.6875,5.6941,5.7683,5.75,5.7402,5.7683,5.7402,5.7187,5.7129,5.6797,5.6609,5.6609,5.6609,5.6609,5.6609,5.5989,5.5255,5.4422,5.3319,5.2293,5.1407,5.094,5.0699,5.0699,5.0699,5.0662,5.0607,5.0259,5.0039,3.7519,4.5162,5.3281,0.0,6.7193,6.9349,7.1587,0.0,7.294,7.3491,7.378,0.0,0.0,0.0,0.0,0.0,0.0,0.0,0.0,0.0,0.0,0.0,0.0,0.0,0.0,0.0,0.0,0.0,7.1427,7.0621,6.9035,6.7327,6.4817,6.1326,5.8917,5.6769,5.487,5.4009,5.3457,5.3248,5.2368,5.186,5.1621,5.1211,5.1763,5.2969,5.248,5.2305,5.2383,5.2583,5.2564,5.2363,5.2363,5.2505,5.2661,5.2661,5.2818,5.3091,5.3496,5.3808,5.4037,5.4232,5.4433,5.4609,5.4668,5.5098,5.556,5.5618,5.6113,5.6609,5.6609,5.6609,5.6609,5.6609,5.6609,5.6609,5.6609,5.6609,5.664,5.6816,5.7051,5.7207,5.7207,5.7051,5.707,5.7441,5.7129,5.6933,5.7156,5.6973,5.6855,5.6855,5.6726,5.6609,5.6609,5.6609,5.6609,5.6609,5.6341,5.5802,5.4866,5.4079,5.31,5.1917,5.1121,5.0699,5.0699,5.0699,5.0699,5.068,5.0516,5.0314,4.0782,4.6233,5.1295,6.1604,6.5741,6.7966,0.0,0.0,7.2605,0.0,7.3421,7.3517,0.0,0.0,0.0,0.0,0.0,0.0,0.0,0.0,0.0,0.0,0.0,0.0,0.0,0.0,0.0,0.0,7.0513,6.9739,6.8534,6.7038,6.4602,6.1033,5.9207,5.6923,5.4079,5.2941,5.2129,5.1626,5.0957,5.0644,5.0625,5.0215,5.0762,5.2031,5.1479,5.1465,5.1782,5.1782,5.1816,5.1914,5.1797,5.1816,5.1933,5.2075,5.2285,5.2617,5.3072,5.3418,5.3666,5.3666,5.3744,5.3926,5.4264,5.4726,5.5234,5.5618,5.6067,5.6445,5.6589,5.6609,5.6609,5.6609,5.6609,5.6609,5.6609,5.6609,5.6609,5.6609,5.6933,5.7246,5.7363,5.7285,5.7246,5.7363,5.6914,5.6609,5.6609,5.6609,5.6609,5.6609,5.6609,5.6609,5.6609,5.6609,5.6609,5.6609,5.6609,5.62,5.5321,5.4797,5.3897,5.2582,5.1596,5.0947,5.0699,5.0699,5.0699,5.0699,5.0699,5.0534,3.4504,3.8838,4.3742,5.3276,5.9258,6.3937,0.0,0.0,7.1668,7.2653,7.282,7.2844,7.2893,0.0,0.0,0.0,0.0,0.0,0.0,0.0,0.0,0.0,0.0,0.0,0.0,0.0,0.0,0.0,6.8372,6.6797,6.5125,6.5495,6.4667,6.2377,6.1803,6.0321,5.7747,5.3579,5.1069,5.0297,5.0258,5.0238,5.0219,4.9766,4.9844,5.0356,5.0683,5.0859,5.0879,5.0879,5.1089,5.1401,5.1035,5.1089,5.1499,5.1933,5.2114,5.2192,5.2598,5.2754,5.2773,5.2773,5.3091,5.3449,5.3443,5.4049,5.483,5.5215,5.5618,5.6028,5.6484,5.6609,5.6609,5.6609,5.6609,5.6609,5.6609,5.6609,5.6609,5.6609,5.6933,5.7344,5.7808,5.748,5.7344,5.7808,5.7136,5.6609,5.6609,5.6609,5.6609,5.6609,5.6609,5.6609,5.6609,5.6609,5.6609,5.6609,5.6609,5.6387,5.5878,5.5329,5.456,5.3549,5.2608,5.1667,5.0699,5.0699,5.0699,5.0699,5.0699,5.068,3.3835,3.6814,4.0376,4.891,5.4637,5.9278,6.3411,6.7129,7.0152,7.1571,7.2125,7.2462,7.2749,7.294,0.0,0.0,0.0,0.0,0.0,0.0,0.0,0.0,0.0,0.0,0.0,0.0,0.0,0.0,0.0,6.6362,6.5423,6.5576,6.4449,6.1718,6.1143,5.952,5.6634,5.3821,5.2279,5.1979,5.0451,4.9766,4.9746,4.9297,4.9203,4.9379,4.9785,5.0156,5.0391,5.0391,5.0488,5.0644,5.0762,5.0898,5.1074,5.1479,5.1836,5.2134,5.2246,5.248,5.2715,5.2715,5.2812,5.3013,5.3306,5.3814,5.4414,5.5117,5.5579,5.6009,5.6465,5.6609,5.6609,5.6609,5.6609,5.6609,5.6609,5.6609,5.6609,5.6609,5.6933,5.7168,5.7078,5.7129,5.7168,5.7078,5.6804,5.6609,5.6609,5.6609,5.6609,5.6609,5.6609,5.6609,5.6609,5.6609,5.6609,5.6609,5.6609,5.6504,5.6367,5.5788,5.506,5.4192,5.3488,5.2443,5.1065,5.0809,5.0699,5.0699,5.0699,5.0699,3.1995,0.0,0.0,4.488,4.953,5.3885,6.0318,6.4122,6.7049,6.9911,7.0922,7.1499,7.2172,7.2292,7.234,7.2532,0.0,0.0,0.0,0.0,0.0,0.0,0.0,0.0,0.0,0.0,0.0,0.0,0.0,0.0,6.5438,6.5079,6.3889,6.1727,6.0494,5.8503,5.5655,5.4362,5.3339,5.253,5.0975,5.0232,5.0209,4.9308,4.8913,4.8913,4.918,4.9551,4.9961,4.9961,5.0039,5.0219,5.0332,5.0547,5.084,5.1089,5.1479,5.1855,5.1855,5.2051,5.226,5.226,5.2456,5.2754,5.3072,5.3555,5.4193,5.5032,5.5481,5.5833,5.6426,5.6609,5.6609,5.6609,5.6609,5.6609,5.6609,5.6609,5.6609,5.6609,5.6933,5.7129,5.6836,5.7031,5.7109,5.6836,5.668,5.6609,5.6609,5.6609,5.6609,5.6609,5.6609,5.6609,5.6609,5.6609,5.6609,5.6609,5.6609,5.6609,5.6609,5.6207,5.5669,5.4905,5.4247,5.3304,5.2067,5.1329,5.0862,5.0699,5.0699,5.0625,0.0,0.0,0.0,0.0,0.0,0.0,5.882,0.0,6.2189,6.7602,6.9117,6.9863,7.1066,7.1283,7.1427,7.1957,7.1595,0.0,0.0,0.0,0.0,0.0,0.0,0.0,0.0,0.0,0.0,0.0,6.467,6.4285,6.4766,6.3828,6.3035,6.2574,6.014,5.7755,5.5466,5.5331,5.4109,5.1868,5.1755,5.171,5.1643,4.9771,4.8913,4.8913,4.8913,4.9125,4.9488,4.9488,4.9766,5.0121,4.9734,5.0063,5.0781,5.0873,5.1098,5.1401,5.1401,5.1401,5.1401,5.1401,5.1968,5.2676,5.2695,5.3295,5.4154,5.5013,5.5293,5.5508,5.6367,5.6609,5.6609,5.6609,5.6609,5.6609,5.6609,5.6609,5.6609,5.6609,5.6914,5.716,5.716,5.716,5.716,5.716,5.6855,5.6609,5.6609,5.6609,5.6609,5.6609,5.6609,5.6609,5.6609,5.6609,5.6609,5.6609,5.6609,5.6609,5.6609,5.6609,5.6314,5.5732,5.4931,5.4226,5.3601,5.2215,5.1252,5.0725,5.0725,5.0479,2.857,0.0,0.0,0.0,0.0,0.0,0.0,0.0,5.5145,6.2768,6.4452,6.5846,6.996,7.0729,7.0657,7.0417,7.0248,7.0128,0.0,0.0,0.0,0.0,0.0,0.0,0.0,0.0,0.0,0.0,6.3686,6.3275,6.2696,6.2384,6.1975,6.1443,6.0782,5.991,5.8852,5.7475,5.6473,5.5793,5.3013,5.171,5.1643,4.9771,4.8913,4.8913,4.8913,4.8949,4.9066,4.9066,4.9144,4.9401,5.0926,5.1066,5.0581,5.2239,5.2236,5.1401,5.1401,5.1401,5.1401,5.1401,5.1577,5.187,5.2495,5.2891,5.3295,5.4531,5.5078,5.5508,5.6367,5.6609,5.6609,5.6609,5.6609,5.6609,5.6609,5.6609,5.6609,5.6609,5.668,5.6758,5.6758,5.6758,5.6758,5.6758,5.666,5.6609,5.6609,5.6609,5.6609,5.6609,5.6609,5.6609,5.6609,5.6609,5.6609,5.6609,5.6609,5.6609,5.6609,5.6609,5.6346,5.5848,5.5349,5.4641,5.374,5.268,5.1847,5.1259,5.0862,5.0479,0.0,0.0,0.0,0.0,0.0,0.0,4.6033,4.8226,5.1201,5.9257,6.1467,6.3079,6.6809,6.8202,6.8755,6.8682,6.8465,6.8394,6.866,6.7963,0.0,0.0,0.0,0.0,0.0,6.3949,6.3251,6.2723,6.2674,6.241,6.1831,6.159,6.1323,6.1007,6.077,6.0143,5.9047,5.8705,5.8193,5.7376,5.5137,5.408,5.4013,5.2116,5.0803,5.0071,5.0071,5.0071,5.0071,5.0071,4.961,4.9098,5.1224,5.178,5.1688,5.3806,5.3767,5.2644,5.2644,5.2109,5.1401,5.1401,5.1655,5.2026,5.2558,5.2944,5.3457,5.4414,5.498,5.5469,5.6133,5.6308,5.6367,5.6543,5.6609,5.6609,5.6609,5.6609,5.6609,5.6609,5.6609,5.6609,5.6609,5.6609,5.6609,5.6609,5.6609,5.6609,5.6609,5.6609,5.6609,5.6609,5.6609,5.6609,5.6609,5.6609,5.6609,5.6609,5.6609,5.6609,5.6609,5.6609,5.6465,5.6211,5.5755,5.5117,5.4157,5.3019,5.1945,5.1008,5.0841,5.0362,0.0,0.0,0.0,0.0,0.0,0.0,4.7233,4.7858,4.8748,5.589,5.8556,6.0192,6.217,6.4162,6.5616,6.5833,6.5928,6.6276,6.7141,6.6735,6.6111,6.5582,0.0,0.0,6.3275,6.2793,6.2287,6.1758,6.1662,6.1638,6.171,6.1203,6.0911,6.0911,6.0433,5.9362,5.7651,5.9293,5.9272,5.7629,5.7346,5.7283,5.7333,5.5311,5.3527,5.2005,5.2005,5.2005,5.2005,5.2005,5.103,4.9702,5.1597,5.2728,5.3592,5.5578,5.5589,5.4645,5.4708,5.3559,5.206,5.206,5.2448,5.2925,5.2999,5.3438,5.3959,5.4531,5.4941,5.5351,5.5794,5.5911,5.6028,5.6484,5.6609,5.6609,5.6609,5.6609,5.6609,5.6609,5.6609,5.6609,5.6609,5.6609,5.6609,5.6609,5.6609,5.6609,5.6609,5.6609,5.6609,5.6609,5.6609,5.6609,5.6609,5.6609,5.6609,5.6609,5.6609,5.6609,5.6609,5.6609,5.6609,5.6609,5.6087,5.5403,5.4557,5.3229,5.1904,5.0626,5.0798,5.0251,0.0,0.0,0.0,0.0,0.0,0.0,3.9248,4.0547,4.3289,4.8579,5.0256,5.2163,5.6741,5.8982,5.9595,5.7955,6.0781,6.4131,6.6831,6.6075,6.5006,6.4477,6.3852,6.3275,6.2793,6.2263,6.171,6.1203,6.0745,6.0697,6.113,6.0649,6.0361,6.0361,6.024,5.9808,5.9022,5.9355,5.9355,5.8977,5.704,5.6574,5.731,5.4935,5.3887,5.3947,5.3947,5.3947,5.3947,5.3947,5.3726,5.3593,5.5531,5.5667,5.5058,5.7402,5.7355,5.6235,5.667,5.6566,5.6239,5.6239,5.5236,5.4211,5.4902,5.4089,5.3203,5.4381,5.4772,5.498,5.5716,5.5911,5.6028,5.6484,5.6609,5.6609,5.6609,5.6609,5.6609,5.6609,5.6609,5.6609,5.6609,5.6609,5.6609,5.6609,5.6609,5.6609,5.6609,5.6609,5.6609,5.6609,5.6609,5.6609,5.6609,5.6609,5.6609,5.6609,5.6609,5.6609,5.6609,5.6609,5.6609,5.6609,5.582,5.4824,5.3638,5.3255,5.291,5.2603,5.1443,5.0752,0.0,0.0,0.0,3.7014,0.0,0.0,0.0,4.0172,4.1341,4.6126,4.688,4.7841,5.1568,5.3334,5.4299,5.456,5.7217,6.001,6.2151,6.3392,6.387,6.3338,6.283,6.2338,6.1852,6.1563,6.1179,6.0646,6.0337,6.0312,6.0598,6.0337,6.0192,6.0192,5.9952,5.9663,5.9398,5.9113,5.8993,5.8993,5.7775,5.7501,5.7974,5.6725,5.5793,5.5164,5.5431,5.5565,5.5587,5.5833,5.6488,5.7353,5.7398,5.7088,5.6928,5.9389,5.9369,5.8163,5.8724,5.8237,5.7405,5.7405,5.6198,5.4872,5.551,5.4611,5.3457,5.3932,5.4205,5.4453,5.4857,5.5267,5.5696,5.6152,5.6426,5.6609,5.6609,5.6609,5.6609,5.6609,5.6609,5.6609,5.6609,5.6609,5.6609,5.6609,5.6609,5.6609,5.6609,5.6609,5.6609,5.6609,5.6609,5.6609,5.6609,5.6609,5.6609,5.6609,5.6609,5.6609,5.6609,5.6609,5.6484,5.6269,5.5625,5.4883,5.4049,5.3742,5.3229,5.2525,5.1967,5.1294,0.0,0.0,0.0,0.0,0.0,4.0234,0.0,0.0,0.0,4.4476,4.4652,0.0,0.0,0.0,0.0,0.0,0.0,0.0,0.0,5.8668,0.0,6.118,6.1008,6.0748,6.0409,6.0096,5.9903,5.9903,5.9519,5.947,5.9879,6.0,6.0048,6.0048,5.9639,5.935,5.9254,5.8704,5.844,5.844,5.8343,5.8392,5.8608,5.8488,5.7685,5.6367,5.6805,5.7057,5.7173,5.7612,5.8741,6.0045,5.8535,5.8168,5.8759,6.0999,6.1064,6.0095,6.072,5.9909,5.8537,5.8537,5.7499,5.6245,5.6275,5.5448,5.4412,5.4166,5.4119,5.4154,5.4232,5.4818,5.5501,5.593,5.6328,5.6609,5.6609,5.6609,5.6609,5.6609,5.6609,5.6609,5.6609,5.6609,5.6609,5.6609,5.6609,5.6609,5.6609,5.6609,5.6609,5.6609,5.6609,5.6609,5.6609,5.6609,5.6609,5.6609,5.6609,5.6609,5.6609,5.6609,5.6308,5.5677,5.5449,5.5058,5.4551,5.4173,5.3418,5.2311,5.2461,5.1847,0.0,0.0,0.0,0.0,4.342,0.0,0.0,0.0,4.1331,3.998,0.0,0.0,0.0,0.0,0.0,0.0,0.0,0.0,4.7385,5.0749,5.4249,5.6614,5.7261,5.7698,5.8127,5.6876,5.6804,5.8632,5.7021,5.678,5.868,5.9209,5.9494,5.9494,5.9446,5.9182,5.8704,5.8175,5.7886,5.7886,5.7409,5.7674,5.8584,5.8103,5.8029,5.8277,5.8348,5.8656,5.9087,5.9135,5.9571,6.0171,5.9982,5.9922,6.011,6.1357,6.1701,6.1674,6.2633,6.2834,6.2633,6.2633,6.1593,6.0105,5.8837,5.7316,5.6144,5.6543,5.5697,5.4687,5.5058,5.5481,5.595,5.6406,5.6543,5.6609,5.6609,5.6609,5.6609,5.6609,5.6609,5.6609,5.6609,5.6609,5.6609,5.6609,5.6609,5.6609,5.6609,5.6609,5.6609,5.6609,5.6609,5.6609,5.6609,5.6609,5.6609,5.6609,5.6609,5.6609,5.6609,5.6609,5.6035,5.487,5.5137,5.4896,5.4076,5.4037,5.3933,5.374,5.2952,5.2227,0.0,0.0,0.0,0.0,0.0,0.0,0.0,0.0,4.0138,0.0,0.0,0.0,0.0,0.0,0.0,0.0,4.315,0.0,0.0,0.0,4.9932,0.0,0.0,0.0,5.4496,5.4004,5.4479,5.6596,5.5362,5.545,5.7558,5.8464,5.8921,5.8921,5.8632,5.8367,5.8151,5.7602,5.7337,5.7337,5.7097,5.7241,5.765,5.7434,5.7626,5.8151,5.8464,5.8897,5.9422,5.9735,6.0,6.0192,6.0192,6.0192,6.0337,6.1398,6.1807,6.1951,6.2963,6.3301,6.31,6.1986,6.1344,6.066,5.8885,5.8023,5.7755,5.7995,5.6899,5.5684,5.5916,5.5601,5.5254,5.5456,5.569,5.5918,5.6126,5.6184,5.6289,5.6543,5.6609,5.6609,5.6609,5.6609,5.6609,5.6609,5.6609,5.6609,5.6609,5.6609,5.6609,5.6609,5.6609,5.6609,5.6609,5.6609,5.6609,5.6609,5.6348,5.6184,5.6184,5.5976,5.5469,5.4733,5.4889,5.4512,5.3633,5.3881,5.3861,5.3652,5.3502,5.3114,4.5587,0.0,0.0,0.0,0.0,0.0,0.0,0.0,0.0,0.0,0.0,0.0,0.0,0.0,0.0,0.0,0.0,4.2823,0.0,0.0,0.0,0.0,0.0,0.0,0.0,5.0606,5.1361,5.3728,5.2434,5.2896,5.5956,5.6997,5.7718,5.8151,5.7935,5.7814,5.7814,5.7265,5.7001,5.7001,5.7001,5.7001,5.7001,5.7001,5.7217,5.7602,5.8151,5.868,5.9209,5.9759,6.0072,6.0192,6.0192,6.0192,6.0337,6.1398,6.1807,6.1951,6.2963,6.3301,6.3056,6.1649,6.1387,6.1394,6.0062,5.9494,5.9403,5.9741,5.8627,5.7252,5.6949,5.6305,5.5573,5.4999,5.5078,5.543,5.5813,5.5911,5.6028,5.6504,5.6609,5.6609,5.6609,5.6609,5.6609,5.6609,5.6609,5.6609,5.6609,5.6609,5.6609,5.6609,5.6609,5.6609,5.6609,5.6609,5.657,5.6406,5.597,5.5677,5.5579,5.541,5.5058,5.4512,5.4629,5.4342,5.358,5.3842,5.3867,5.358,5.3861,5.3717,0.0,0.0,0.0,4.5733,0.0,0.0,0.0,0.0,4.2539,0.0,0.0,0.0,0.0,0.0,0.0,0.0,0.0,0.0,0.0,0.0,0.0,0.0,0.0,0.0,0.0,4.6372,4.6786,4.9839,4.7276,4.8008,5.3603,5.4428,5.5438,5.7001,5.753,5.7814,5.7814,5.7265,5.7001,5.7001,5.7001,5.7001,5.7001,5.7001,5.7001,5.7049,5.7578,5.8127,5.8656,5.9185,5.9735,6.0192,6.0192,6.0192,6.0337,6.1398,6.1807,6.1951,6.2963,6.3301,6.3301,6.3235,6.3213,6.3311,6.377,6.2513,6.1143,6.2174,6.1271,5.9647,5.8147,5.8019,5.7756,5.5769,5.5293,5.543,5.5813,5.5911,5.6028,5.6504,5.6609,5.6609,5.6609,5.6609,5.6609,5.6609,5.6609,5.6609,5.6609,5.6609,5.6609,5.6609,5.6609,5.6609,5.6609,5.6609,5.6406,5.595,5.554,5.5137,5.4746,5.5098,5.4896,5.4037,5.4473,5.4453,5.3978,5.3998,5.3998,5.3978,5.3998,5.3717,0.0,0.0,5.47,4.8915,0.0,0.0,0.0,0.0,0.0,0.0,0.0,0.0,0.0,0.0,0.0,0.0,0.0,0.0,0.0,0.0,0.0,0.0,0.0,0.0,0.0,0.0,0.0,4.7007,4.5674,4.6927,5.2012,5.3119,5.4303,5.589,5.6448,5.6905,5.7265,5.7097,5.7001,5.7001,5.7001,5.7001,5.7001,5.7001,5.7193,5.7554,5.8103,5.8632,5.9182,5.9711,6.0048,6.0192,6.0192,6.0192,6.0337,6.1398,6.1807,6.1951,6.2963,6.3301,6.3301,6.3301,6.3301,6.3325,6.354,6.3074,6.2749,6.3813,6.2712,6.0961,5.9772,5.8509,5.7085,5.5321,5.4668,5.4701,5.5696,5.5696,5.5723,5.6472,5.6609,5.6609,5.6609,5.6609,5.6609,5.6609,5.6609,5.6609,5.6609,5.6609,5.6609,5.6609,5.6609,5.6609,5.6609,5.6328,5.6067,5.5911,5.5273,5.4824,5.4713,5.4531,5.4291,5.4017,5.4154,5.4023,5.3594,5.3861,5.3861,5.3594,5.3594,5.3498,5.412,5.5847,0.0,5.1703,5.1302,0.0,4.6084,0.0,0.0,0.0,0.0,0.0,0.0,0.0,0.0,0.0,0.0,0.0,0.0,3.6743,0.0,0.0,0.0,0.0,0.0,0.0,4.1053,4.3107,4.2599,4.4044,0.0,5.0524,5.247,5.4231,5.5534,5.6376,5.6712,5.6905,5.7001,5.7001,5.7001,5.7001,5.7001,5.7001,5.7193,5.755,5.8079,5.8608,5.9182,5.9687,6.0024,6.0192,6.0192,6.0192,6.0337,6.1398,6.2023,6.241,6.3083,6.3301,6.3301,6.3301,6.3301,6.3301,6.3301,6.3301,6.3542,6.4814,6.4071,6.2712,6.1914,6.0519,5.8684,5.6153,5.5467,5.5416,5.5619,5.5599,5.5742,5.6472,5.6609,5.6609,5.6609,5.6609,5.6609,5.6609,5.6609,5.6609,5.6609,5.6445,5.6348,5.6348,5.6348,5.6406,5.6609,5.6055,5.5677,5.5677,5.4922,5.4453,5.4453,5.4154,5.4154,5.4447,5.4154,5.4017,5.4088,5.4017,5.3887,5.3594,5.3594,5.3541]}]]